<?xml version="1.0" encoding="UTF-8" standalone="no" ?>
<gpx xmlns="http://www.topografix.com/GPX/1/1" xmlns:xsi="http://www.w3.org/2001/XMLSchema-instance" xsi:schemaLocation="http://www.topografix.com/GPX/1/1 http://www.topografix.com/GPX/1/1/gpx.xsd" version="1.1" creator="VisuGPX - https://www.visugpx.com">
  <metadata>
    <name>Course orientation</name>
    <desc><![CDATA[Course orientation en VTT]]></desc>
  </metadata>
  <trk>
    <name><![CDATA[ADi2010/08/28_09:27]]></name>
    <trkseg>
      <trkpt lat="48.87219" lon="7.36381">
        <ele>211.385864</ele>
        <time>2010-08-28T07:27:37Z</time>
      </trkpt>
      <trkpt lat="48.87223" lon="7.36383">
        <ele>219.694458</ele>
        <time>2010-08-28T07:27:38Z</time>
      </trkpt>
      <trkpt lat="48.87222" lon="7.36377">
        <ele>236.440552</ele>
        <time>2010-08-28T07:27:39Z</time>
      </trkpt>
      <trkpt lat="48.87215" lon="7.36375">
        <ele>243.491333</ele>
        <time>2010-08-28T07:27:40Z</time>
      </trkpt>
      <trkpt lat="48.87211" lon="7.36374">
        <ele>256.662354</ele>
        <time>2010-08-28T07:27:41Z</time>
      </trkpt>
      <trkpt lat="48.87206" lon="7.36369">
        <ele>263.099854</ele>
        <time>2010-08-28T07:27:43Z</time>
      </trkpt>
      <trkpt lat="48.87205" lon="7.36297">
        <ele>253.401489</ele>
        <time>2010-08-28T07:47:10Z</time>
      </trkpt>
      <trkpt lat="48.87211" lon="7.36294">
        <ele>253.678833</ele>
        <time>2010-08-28T07:47:57Z</time>
      </trkpt>
      <trkpt lat="48.87213" lon="7.36287">
        <ele>253.022583</ele>
        <time>2010-08-28T07:47:59Z</time>
      </trkpt>
      <trkpt lat="48.87216" lon="7.36282">
        <ele>254.003052</ele>
        <time>2010-08-28T07:48:01Z</time>
      </trkpt>
      <trkpt lat="48.87218" lon="7.36274">
        <ele>253.385864</ele>
        <time>2010-08-28T07:48:04Z</time>
      </trkpt>
      <trkpt lat="48.87219" lon="7.36267">
        <ele>253.624146</ele>
        <time>2010-08-28T07:48:06Z</time>
      </trkpt>
      <trkpt lat="48.87217" lon="7.36261">
        <ele>253.006958</ele>
        <time>2010-08-28T07:48:28Z</time>
      </trkpt>
      <trkpt lat="48.8722" lon="7.36267">
        <ele>251.354614</ele>
        <time>2010-08-28T07:49:36Z</time>
      </trkpt>
      <trkpt lat="48.87216" lon="7.36263">
        <ele>251.206177</ele>
        <time>2010-08-28T07:49:45Z</time>
      </trkpt>
      <trkpt lat="48.8722" lon="7.36263">
        <ele>253.686646</ele>
        <time>2010-08-28T07:49:53Z</time>
      </trkpt>
      <trkpt lat="48.87225" lon="7.36263">
        <ele>254.049927</ele>
        <time>2010-08-28T07:49:56Z</time>
      </trkpt>
      <trkpt lat="48.87229" lon="7.3626">
        <ele>254.604614</ele>
        <time>2010-08-28T07:50:00Z</time>
      </trkpt>
      <trkpt lat="48.87233" lon="7.36257">
        <ele>254.010864</ele>
        <time>2010-08-28T07:50:02Z</time>
      </trkpt>
      <trkpt lat="48.87239" lon="7.36254">
        <ele>253.514771</ele>
        <time>2010-08-28T07:50:05Z</time>
      </trkpt>
      <trkpt lat="48.87244" lon="7.36251">
        <ele>253.928833</ele>
        <time>2010-08-28T07:50:08Z</time>
      </trkpt>
      <trkpt lat="48.87249" lon="7.36251">
        <ele>254.221802</ele>
        <time>2010-08-28T07:50:12Z</time>
      </trkpt>
      <trkpt lat="48.87255" lon="7.36251">
        <ele>254.819458</ele>
        <time>2010-08-28T07:50:14Z</time>
      </trkpt>
      <trkpt lat="48.8726" lon="7.36255">
        <ele>256.177979</ele>
        <time>2010-08-28T07:50:39Z</time>
      </trkpt>
      <trkpt lat="48.87265" lon="7.36254">
        <ele>256.334229</ele>
        <time>2010-08-28T07:50:42Z</time>
      </trkpt>
      <trkpt lat="48.87271" lon="7.36252">
        <ele>257.427979</ele>
        <time>2010-08-28T07:50:47Z</time>
      </trkpt>
      <trkpt lat="48.87268" lon="7.36248">
        <ele>254.120239</ele>
        <time>2010-08-28T07:51:38Z</time>
      </trkpt>
      <trkpt lat="48.87263" lon="7.3625">
        <ele>255.069458</ele>
        <time>2010-08-28T07:51:42Z</time>
      </trkpt>
      <trkpt lat="48.87258" lon="7.36251">
        <ele>256.396729</ele>
        <time>2010-08-28T07:51:45Z</time>
      </trkpt>
      <trkpt lat="48.87253" lon="7.3625">
        <ele>256.701416</ele>
        <time>2010-08-28T07:51:47Z</time>
      </trkpt>
      <trkpt lat="48.87247" lon="7.36254">
        <ele>257.068604</ele>
        <time>2010-08-28T07:51:50Z</time>
      </trkpt>
      <trkpt lat="48.87244" lon="7.36258">
        <ele>256.537354</ele>
        <time>2010-08-28T07:51:52Z</time>
      </trkpt>
      <trkpt lat="48.87238" lon="7.36262">
        <ele>256.802979</ele>
        <time>2010-08-28T07:51:55Z</time>
      </trkpt>
      <trkpt lat="48.87233" lon="7.3626">
        <ele>258.842041</ele>
        <time>2010-08-28T07:51:59Z</time>
      </trkpt>
      <trkpt lat="48.87227" lon="7.3626">
        <ele>258.935791</ele>
        <time>2010-08-28T07:52:08Z</time>
      </trkpt>
      <trkpt lat="48.87225" lon="7.36253">
        <ele>259.560791</ele>
        <time>2010-08-28T07:52:12Z</time>
      </trkpt>
      <trkpt lat="48.87226" lon="7.36245">
        <ele>257.506104</ele>
        <time>2010-08-28T07:52:54Z</time>
      </trkpt>
      <trkpt lat="48.87222" lon="7.36237">
        <ele>258.638916</ele>
        <time>2010-08-28T07:52:58Z</time>
      </trkpt>
      <trkpt lat="48.87218" lon="7.36232">
        <ele>258.615479</ele>
        <time>2010-08-28T07:53:00Z</time>
      </trkpt>
      <trkpt lat="48.87219" lon="7.36224">
        <ele>259.592041</ele>
        <time>2010-08-28T07:53:03Z</time>
      </trkpt>
      <trkpt lat="48.8722" lon="7.36215">
        <ele>259.763916</ele>
        <time>2010-08-28T07:53:06Z</time>
      </trkpt>
      <trkpt lat="48.8722" lon="7.36207">
        <ele>259.896729</ele>
        <time>2010-08-28T07:53:08Z</time>
      </trkpt>
      <trkpt lat="48.87218" lon="7.36199">
        <ele>260.193604</ele>
        <time>2010-08-28T07:53:10Z</time>
      </trkpt>
      <trkpt lat="48.87215" lon="7.36194">
        <ele>260.935791</ele>
        <time>2010-08-28T07:53:12Z</time>
      </trkpt>
      <trkpt lat="48.8721" lon="7.36188">
        <ele>261.490479</ele>
        <time>2010-08-28T07:53:15Z</time>
      </trkpt>
      <trkpt lat="48.87207" lon="7.36183">
        <ele>262.537354</ele>
        <time>2010-08-28T07:53:18Z</time>
      </trkpt>
      <trkpt lat="48.8721" lon="7.36179">
        <ele>263.943604</ele>
        <time>2010-08-28T07:53:31Z</time>
      </trkpt>
      <trkpt lat="48.87214" lon="7.36174">
        <ele>265.099854</ele>
        <time>2010-08-28T07:54:48Z</time>
      </trkpt>
      <trkpt lat="48.87217" lon="7.36167">
        <ele>264.545166</ele>
        <time>2010-08-28T07:54:50Z</time>
      </trkpt>
      <trkpt lat="48.8722" lon="7.36158">
        <ele>264.732666</ele>
        <time>2010-08-28T07:54:52Z</time>
      </trkpt>
      <trkpt lat="48.87222" lon="7.36148">
        <ele>264.451416</ele>
        <time>2010-08-28T07:54:54Z</time>
      </trkpt>
      <trkpt lat="48.87225" lon="7.36137">
        <ele>263.904541</ele>
        <time>2010-08-28T07:54:56Z</time>
      </trkpt>
      <trkpt lat="48.87226" lon="7.36128">
        <ele>263.959229</ele>
        <time>2010-08-28T07:54:58Z</time>
      </trkpt>
      <trkpt lat="48.87227" lon="7.36118">
        <ele>263.927979</ele>
        <time>2010-08-28T07:55:00Z</time>
      </trkpt>
      <trkpt lat="48.87227" lon="7.36106">
        <ele>264.607666</ele>
        <time>2010-08-28T07:55:02Z</time>
      </trkpt>
      <trkpt lat="48.87228" lon="7.36094">
        <ele>265.490479</ele>
        <time>2010-08-28T07:55:04Z</time>
      </trkpt>
      <trkpt lat="48.87228" lon="7.36079">
        <ele>264.482666</ele>
        <time>2010-08-28T07:55:06Z</time>
      </trkpt>
      <trkpt lat="48.87227" lon="7.36071">
        <ele>263.412354</ele>
        <time>2010-08-28T07:55:07Z</time>
      </trkpt>
      <trkpt lat="48.87229" lon="7.36064">
        <ele>262.248291</ele>
        <time>2010-08-28T07:55:08Z</time>
      </trkpt>
      <trkpt lat="48.87231" lon="7.36056">
        <ele>262.177979</ele>
        <time>2010-08-28T07:55:09Z</time>
      </trkpt>
      <trkpt lat="48.87232" lon="7.36049">
        <ele>262.576416</ele>
        <time>2010-08-28T07:55:10Z</time>
      </trkpt>
      <trkpt lat="48.87232" lon="7.36042">
        <ele>262.592041</ele>
        <time>2010-08-28T07:55:11Z</time>
      </trkpt>
      <trkpt lat="48.87232" lon="7.36029">
        <ele>262.623291</ele>
        <time>2010-08-28T07:55:13Z</time>
      </trkpt>
      <trkpt lat="48.87233" lon="7.36018">
        <ele>262.904541</ele>
        <time>2010-08-28T07:55:15Z</time>
      </trkpt>
      <trkpt lat="48.87233" lon="7.36006">
        <ele>263.513916</ele>
        <time>2010-08-28T07:55:17Z</time>
      </trkpt>
      <trkpt lat="48.87233" lon="7.35995">
        <ele>264.037354</ele>
        <time>2010-08-28T07:55:19Z</time>
      </trkpt>
      <trkpt lat="48.87233" lon="7.35986">
        <ele>264.263916</ele>
        <time>2010-08-28T07:55:21Z</time>
      </trkpt>
      <trkpt lat="48.87231" lon="7.35976">
        <ele>264.459229</ele>
        <time>2010-08-28T07:55:23Z</time>
      </trkpt>
      <trkpt lat="48.87232" lon="7.35968">
        <ele>265.162354</ele>
        <time>2010-08-28T07:55:25Z</time>
      </trkpt>
      <trkpt lat="48.87231" lon="7.3596">
        <ele>265.873291</ele>
        <time>2010-08-28T07:55:27Z</time>
      </trkpt>
      <trkpt lat="48.8723" lon="7.35951">
        <ele>266.263916</ele>
        <time>2010-08-28T07:55:29Z</time>
      </trkpt>
      <trkpt lat="48.87228" lon="7.35941">
        <ele>265.951416</ele>
        <time>2010-08-28T07:55:31Z</time>
      </trkpt>
      <trkpt lat="48.87227" lon="7.35932">
        <ele>267.146729</ele>
        <time>2010-08-28T07:55:33Z</time>
      </trkpt>
      <trkpt lat="48.87224" lon="7.35925">
        <ele>267.334229</ele>
        <time>2010-08-28T07:55:34Z</time>
      </trkpt>
      <trkpt lat="48.87224" lon="7.35916">
        <ele>268.248291</ele>
        <time>2010-08-28T07:55:36Z</time>
      </trkpt>
      <trkpt lat="48.87228" lon="7.35908">
        <ele>268.881104</ele>
        <time>2010-08-28T07:55:38Z</time>
      </trkpt>
      <trkpt lat="48.87228" lon="7.35897">
        <ele>269.092041</ele>
        <time>2010-08-28T07:55:40Z</time>
      </trkpt>
      <trkpt lat="48.8723" lon="7.35891">
        <ele>269.177979</ele>
        <time>2010-08-28T07:55:42Z</time>
      </trkpt>
      <trkpt lat="48.87231" lon="7.3588">
        <ele>268.232666</ele>
        <time>2010-08-28T07:55:44Z</time>
      </trkpt>
      <trkpt lat="48.8723" lon="7.35871">
        <ele>268.826416</ele>
        <time>2010-08-28T07:55:46Z</time>
      </trkpt>
      <trkpt lat="48.87228" lon="7.35861">
        <ele>269.412354</ele>
        <time>2010-08-28T07:55:48Z</time>
      </trkpt>
      <trkpt lat="48.87227" lon="7.35849">
        <ele>268.232666</ele>
        <time>2010-08-28T07:55:50Z</time>
      </trkpt>
      <trkpt lat="48.87226" lon="7.3584">
        <ele>268.998291</ele>
        <time>2010-08-28T07:55:52Z</time>
      </trkpt>
      <trkpt lat="48.87227" lon="7.35832">
        <ele>269.154541</ele>
        <time>2010-08-28T07:55:54Z</time>
      </trkpt>
      <trkpt lat="48.87227" lon="7.3582">
        <ele>269.302979</ele>
        <time>2010-08-28T07:55:56Z</time>
      </trkpt>
      <trkpt lat="48.87227" lon="7.35809">
        <ele>269.373291</ele>
        <time>2010-08-28T07:55:58Z</time>
      </trkpt>
      <trkpt lat="48.87229" lon="7.35798">
        <ele>269.037354</ele>
        <time>2010-08-28T07:56:00Z</time>
      </trkpt>
      <trkpt lat="48.87231" lon="7.35787">
        <ele>268.834229</ele>
        <time>2010-08-28T07:56:02Z</time>
      </trkpt>
      <trkpt lat="48.87232" lon="7.35774">
        <ele>267.670166</ele>
        <time>2010-08-28T07:56:04Z</time>
      </trkpt>
      <trkpt lat="48.87231" lon="7.35767">
        <ele>265.943604</ele>
        <time>2010-08-28T07:56:05Z</time>
      </trkpt>
      <trkpt lat="48.87235" lon="7.35757">
        <ele>267.037354</ele>
        <time>2010-08-28T07:56:07Z</time>
      </trkpt>
      <trkpt lat="48.87236" lon="7.35747">
        <ele>267.209229</ele>
        <time>2010-08-28T07:56:09Z</time>
      </trkpt>
      <trkpt lat="48.87238" lon="7.35736">
        <ele>266.545166</ele>
        <time>2010-08-28T07:56:11Z</time>
      </trkpt>
      <trkpt lat="48.87241" lon="7.35725">
        <ele>266.342041</ele>
        <time>2010-08-28T07:56:13Z</time>
      </trkpt>
      <trkpt lat="48.87243" lon="7.35714">
        <ele>266.779541</ele>
        <time>2010-08-28T07:56:15Z</time>
      </trkpt>
      <trkpt lat="48.87243" lon="7.35706">
        <ele>265.443604</ele>
        <time>2010-08-28T07:56:16Z</time>
      </trkpt>
      <trkpt lat="48.87243" lon="7.35694">
        <ele>263.677979</ele>
        <time>2010-08-28T07:56:18Z</time>
      </trkpt>
      <trkpt lat="48.87244" lon="7.35687">
        <ele>262.318604</ele>
        <time>2010-08-28T07:56:19Z</time>
      </trkpt>
      <trkpt lat="48.87246" lon="7.35674">
        <ele>261.115479</ele>
        <time>2010-08-28T07:56:21Z</time>
      </trkpt>
      <trkpt lat="48.87249" lon="7.35662">
        <ele>259.420166</ele>
        <time>2010-08-28T07:56:23Z</time>
      </trkpt>
      <trkpt lat="48.87252" lon="7.35649">
        <ele>258.709229</ele>
        <time>2010-08-28T07:56:25Z</time>
      </trkpt>
      <trkpt lat="48.87252" lon="7.35642">
        <ele>257.795166</ele>
        <time>2010-08-28T07:56:26Z</time>
      </trkpt>
      <trkpt lat="48.87255" lon="7.3563">
        <ele>257.693604</ele>
        <time>2010-08-28T07:56:28Z</time>
      </trkpt>
      <trkpt lat="48.87255" lon="7.35617">
        <ele>258.654541</ele>
        <time>2010-08-28T07:56:30Z</time>
      </trkpt>
      <trkpt lat="48.87256" lon="7.35605">
        <ele>258.967041</ele>
        <time>2010-08-28T07:56:32Z</time>
      </trkpt>
      <trkpt lat="48.87258" lon="7.35593">
        <ele>259.396729</ele>
        <time>2010-08-28T07:56:34Z</time>
      </trkpt>
      <trkpt lat="48.8726" lon="7.35581">
        <ele>259.967041</ele>
        <time>2010-08-28T07:56:36Z</time>
      </trkpt>
      <trkpt lat="48.87261" lon="7.35571">
        <ele>260.615479</ele>
        <time>2010-08-28T07:56:38Z</time>
      </trkpt>
      <trkpt lat="48.87261" lon="7.35564">
        <ele>260.115479</ele>
        <time>2010-08-28T07:56:39Z</time>
      </trkpt>
      <trkpt lat="48.87261" lon="7.35554">
        <ele>260.787354</ele>
        <time>2010-08-28T07:56:41Z</time>
      </trkpt>
      <trkpt lat="48.87261" lon="7.35542">
        <ele>260.927979</ele>
        <time>2010-08-28T07:56:43Z</time>
      </trkpt>
      <trkpt lat="48.8726" lon="7.35531">
        <ele>261.021729</ele>
        <time>2010-08-28T07:56:45Z</time>
      </trkpt>
      <trkpt lat="48.8726" lon="7.35521">
        <ele>261.506104</ele>
        <time>2010-08-28T07:56:47Z</time>
      </trkpt>
      <trkpt lat="48.87261" lon="7.35508">
        <ele>260.638916</ele>
        <time>2010-08-28T07:56:49Z</time>
      </trkpt>
      <trkpt lat="48.87262" lon="7.35497">
        <ele>260.435791</ele>
        <time>2010-08-28T07:56:51Z</time>
      </trkpt>
      <trkpt lat="48.87262" lon="7.35487">
        <ele>261.568604</ele>
        <time>2010-08-28T07:56:53Z</time>
      </trkpt>
      <trkpt lat="48.87262" lon="7.35479">
        <ele>261.873291</ele>
        <time>2010-08-28T07:56:55Z</time>
      </trkpt>
      <trkpt lat="48.87262" lon="7.35471">
        <ele>261.849854</ele>
        <time>2010-08-28T07:57:10Z</time>
      </trkpt>
      <trkpt lat="48.8726" lon="7.35464">
        <ele>263.256104</ele>
        <time>2010-08-28T07:57:38Z</time>
      </trkpt>
      <trkpt lat="48.8726" lon="7.35456">
        <ele>263.607666</ele>
        <time>2010-08-28T07:57:40Z</time>
      </trkpt>
      <trkpt lat="48.87264" lon="7.35447">
        <ele>264.334229</ele>
        <time>2010-08-28T07:57:42Z</time>
      </trkpt>
      <trkpt lat="48.87264" lon="7.35436">
        <ele>264.263916</ele>
        <time>2010-08-28T07:57:44Z</time>
      </trkpt>
      <trkpt lat="48.87265" lon="7.35425">
        <ele>263.857666</ele>
        <time>2010-08-28T07:57:46Z</time>
      </trkpt>
      <trkpt lat="48.87267" lon="7.35414">
        <ele>263.677979</ele>
        <time>2010-08-28T07:57:48Z</time>
      </trkpt>
      <trkpt lat="48.87268" lon="7.35402">
        <ele>263.201416</ele>
        <time>2010-08-28T07:57:50Z</time>
      </trkpt>
      <trkpt lat="48.87268" lon="7.35388">
        <ele>263.381104</ele>
        <time>2010-08-28T07:57:52Z</time>
      </trkpt>
      <trkpt lat="48.87268" lon="7.35381">
        <ele>263.388916</ele>
        <time>2010-08-28T07:57:53Z</time>
      </trkpt>
      <trkpt lat="48.87268" lon="7.35374">
        <ele>263.318604</ele>
        <time>2010-08-28T07:57:54Z</time>
      </trkpt>
      <trkpt lat="48.87268" lon="7.3536">
        <ele>263.459229</ele>
        <time>2010-08-28T07:57:56Z</time>
      </trkpt>
      <trkpt lat="48.8727" lon="7.35348">
        <ele>263.217041</ele>
        <time>2010-08-28T07:57:58Z</time>
      </trkpt>
      <trkpt lat="48.8727" lon="7.35336">
        <ele>263.342041</ele>
        <time>2010-08-28T07:58:00Z</time>
      </trkpt>
      <trkpt lat="48.8727" lon="7.35324">
        <ele>262.959229</ele>
        <time>2010-08-28T07:58:02Z</time>
      </trkpt>
      <trkpt lat="48.8727" lon="7.35313">
        <ele>262.498291</ele>
        <time>2010-08-28T07:58:04Z</time>
      </trkpt>
      <trkpt lat="48.87271" lon="7.35302">
        <ele>262.138916</ele>
        <time>2010-08-28T07:58:06Z</time>
      </trkpt>
      <trkpt lat="48.87272" lon="7.35291">
        <ele>261.677979</ele>
        <time>2010-08-28T07:58:08Z</time>
      </trkpt>
      <trkpt lat="48.87272" lon="7.35278">
        <ele>261.209229</ele>
        <time>2010-08-28T07:58:10Z</time>
      </trkpt>
      <trkpt lat="48.87273" lon="7.35264">
        <ele>260.357666</ele>
        <time>2010-08-28T07:58:12Z</time>
      </trkpt>
      <trkpt lat="48.87274" lon="7.35257">
        <ele>259.998291</ele>
        <time>2010-08-28T07:58:13Z</time>
      </trkpt>
      <trkpt lat="48.87274" lon="7.3525">
        <ele>259.787354</ele>
        <time>2010-08-28T07:58:14Z</time>
      </trkpt>
      <trkpt lat="48.87275" lon="7.35243">
        <ele>259.662354</ele>
        <time>2010-08-28T07:58:15Z</time>
      </trkpt>
      <trkpt lat="48.87275" lon="7.35235">
        <ele>259.334229</ele>
        <time>2010-08-28T07:58:16Z</time>
      </trkpt>
      <trkpt lat="48.87275" lon="7.35228">
        <ele>259.318604</ele>
        <time>2010-08-28T07:58:17Z</time>
      </trkpt>
      <trkpt lat="48.87276" lon="7.3522">
        <ele>259.318604</ele>
        <time>2010-08-28T07:58:18Z</time>
      </trkpt>
      <trkpt lat="48.87277" lon="7.35213">
        <ele>259.295166</ele>
        <time>2010-08-28T07:58:19Z</time>
      </trkpt>
      <trkpt lat="48.87277" lon="7.35205">
        <ele>259.248291</ele>
        <time>2010-08-28T07:58:20Z</time>
      </trkpt>
      <trkpt lat="48.87277" lon="7.35198">
        <ele>258.912354</ele>
        <time>2010-08-28T07:58:21Z</time>
      </trkpt>
      <trkpt lat="48.87278" lon="7.3519">
        <ele>258.881104</ele>
        <time>2010-08-28T07:58:22Z</time>
      </trkpt>
      <trkpt lat="48.87278" lon="7.35182">
        <ele>259.060791</ele>
        <time>2010-08-28T07:58:23Z</time>
      </trkpt>
      <trkpt lat="48.87278" lon="7.35174">
        <ele>258.896729</ele>
        <time>2010-08-28T07:58:24Z</time>
      </trkpt>
      <trkpt lat="48.87278" lon="7.35166">
        <ele>258.732666</ele>
        <time>2010-08-28T07:58:25Z</time>
      </trkpt>
      <trkpt lat="48.87278" lon="7.35158">
        <ele>258.685791</ele>
        <time>2010-08-28T07:58:26Z</time>
      </trkpt>
      <trkpt lat="48.87278" lon="7.3515">
        <ele>258.412354</ele>
        <time>2010-08-28T07:58:27Z</time>
      </trkpt>
      <trkpt lat="48.87278" lon="7.35142">
        <ele>258.224854</ele>
        <time>2010-08-28T07:58:28Z</time>
      </trkpt>
      <trkpt lat="48.87279" lon="7.35134">
        <ele>258.349854</ele>
        <time>2010-08-28T07:58:29Z</time>
      </trkpt>
      <trkpt lat="48.8728" lon="7.35127">
        <ele>258.474854</ele>
        <time>2010-08-28T07:58:30Z</time>
      </trkpt>
      <trkpt lat="48.87281" lon="7.35118">
        <ele>258.662354</ele>
        <time>2010-08-28T07:58:31Z</time>
      </trkpt>
      <trkpt lat="48.87281" lon="7.3511">
        <ele>258.787354</ele>
        <time>2010-08-28T07:58:32Z</time>
      </trkpt>
      <trkpt lat="48.87281" lon="7.35102">
        <ele>258.373291</ele>
        <time>2010-08-28T07:58:33Z</time>
      </trkpt>
      <trkpt lat="48.87281" lon="7.35091">
        <ele>258.451416</ele>
        <time>2010-08-28T07:58:35Z</time>
      </trkpt>
      <trkpt lat="48.87281" lon="7.35083">
        <ele>259.365479</ele>
        <time>2010-08-28T07:58:39Z</time>
      </trkpt>
      <trkpt lat="48.87284" lon="7.35077">
        <ele>259.006104</ele>
        <time>2010-08-28T07:58:42Z</time>
      </trkpt>
      <trkpt lat="48.87284" lon="7.35067">
        <ele>257.802979</ele>
        <time>2010-08-28T07:58:48Z</time>
      </trkpt>
      <trkpt lat="48.87287" lon="7.35062">
        <ele>258.623291</ele>
        <time>2010-08-28T07:58:57Z</time>
      </trkpt>
      <trkpt lat="48.87282" lon="7.35059">
        <ele>258.631104</ele>
        <time>2010-08-28T07:59:18Z</time>
      </trkpt>
      <trkpt lat="48.87277" lon="7.35055">
        <ele>258.263916</ele>
        <time>2010-08-28T07:59:35Z</time>
      </trkpt>
      <trkpt lat="48.87283" lon="7.35059">
        <ele>259.763916</ele>
        <time>2010-08-28T07:59:45Z</time>
      </trkpt>
      <trkpt lat="48.87278" lon="7.3506">
        <ele>259.459229</ele>
        <time>2010-08-28T07:59:50Z</time>
      </trkpt>
      <trkpt lat="48.87276" lon="7.35053">
        <ele>260.724854</ele>
        <time>2010-08-28T08:00:02Z</time>
      </trkpt>
      <trkpt lat="48.87276" lon="7.35045">
        <ele>260.881104</ele>
        <time>2010-08-28T08:00:04Z</time>
      </trkpt>
      <trkpt lat="48.87276" lon="7.35036">
        <ele>261.279541</ele>
        <time>2010-08-28T08:00:06Z</time>
      </trkpt>
      <trkpt lat="48.87276" lon="7.35025">
        <ele>261.795166</ele>
        <time>2010-08-28T08:00:08Z</time>
      </trkpt>
      <trkpt lat="48.87277" lon="7.35013">
        <ele>261.052979</ele>
        <time>2010-08-28T08:00:10Z</time>
      </trkpt>
      <trkpt lat="48.87278" lon="7.35001">
        <ele>261.615479</ele>
        <time>2010-08-28T08:00:12Z</time>
      </trkpt>
      <trkpt lat="48.87278" lon="7.34994">
        <ele>261.498291</ele>
        <time>2010-08-28T08:00:13Z</time>
      </trkpt>
      <trkpt lat="48.87281" lon="7.34982">
        <ele>260.685791</ele>
        <time>2010-08-28T08:00:15Z</time>
      </trkpt>
      <trkpt lat="48.87282" lon="7.34975">
        <ele>260.677979</ele>
        <time>2010-08-28T08:00:16Z</time>
      </trkpt>
      <trkpt lat="48.87283" lon="7.34967">
        <ele>260.654541</ele>
        <time>2010-08-28T08:00:17Z</time>
      </trkpt>
      <trkpt lat="48.87283" lon="7.34958">
        <ele>260.295166</ele>
        <time>2010-08-28T08:00:18Z</time>
      </trkpt>
      <trkpt lat="48.87283" lon="7.3495">
        <ele>259.677979</ele>
        <time>2010-08-28T08:00:19Z</time>
      </trkpt>
      <trkpt lat="48.87284" lon="7.34941">
        <ele>259.201416</ele>
        <time>2010-08-28T08:00:20Z</time>
      </trkpt>
      <trkpt lat="48.87285" lon="7.34932">
        <ele>258.826416</ele>
        <time>2010-08-28T08:00:21Z</time>
      </trkpt>
      <trkpt lat="48.87286" lon="7.34923">
        <ele>258.474854</ele>
        <time>2010-08-28T08:00:22Z</time>
      </trkpt>
      <trkpt lat="48.87287" lon="7.34914">
        <ele>258.451416</ele>
        <time>2010-08-28T08:00:23Z</time>
      </trkpt>
      <trkpt lat="48.87288" lon="7.34905">
        <ele>258.521729</ele>
        <time>2010-08-28T08:00:24Z</time>
      </trkpt>
      <trkpt lat="48.8729" lon="7.34896">
        <ele>257.795166</ele>
        <time>2010-08-28T08:00:25Z</time>
      </trkpt>
      <trkpt lat="48.87292" lon="7.34887">
        <ele>257.373291</ele>
        <time>2010-08-28T08:00:26Z</time>
      </trkpt>
      <trkpt lat="48.87293" lon="7.34878">
        <ele>257.326416</ele>
        <time>2010-08-28T08:00:27Z</time>
      </trkpt>
      <trkpt lat="48.87296" lon="7.34869">
        <ele>256.521729</ele>
        <time>2010-08-28T08:00:28Z</time>
      </trkpt>
      <trkpt lat="48.87297" lon="7.3486">
        <ele>255.928833</ele>
        <time>2010-08-28T08:00:29Z</time>
      </trkpt>
      <trkpt lat="48.87299" lon="7.34851">
        <ele>255.495239</ele>
        <time>2010-08-28T08:00:30Z</time>
      </trkpt>
      <trkpt lat="48.87302" lon="7.34842">
        <ele>254.952271</ele>
        <time>2010-08-28T08:00:31Z</time>
      </trkpt>
      <trkpt lat="48.87304" lon="7.34833">
        <ele>254.499146</ele>
        <time>2010-08-28T08:00:32Z</time>
      </trkpt>
      <trkpt lat="48.87305" lon="7.34825">
        <ele>254.229614</ele>
        <time>2010-08-28T08:00:33Z</time>
      </trkpt>
      <trkpt lat="48.87307" lon="7.34816">
        <ele>253.671021</ele>
        <time>2010-08-28T08:00:34Z</time>
      </trkpt>
      <trkpt lat="48.87309" lon="7.34807">
        <ele>253.335083</ele>
        <time>2010-08-28T08:00:35Z</time>
      </trkpt>
      <trkpt lat="48.8731" lon="7.34799">
        <ele>253.217896</ele>
        <time>2010-08-28T08:00:36Z</time>
      </trkpt>
      <trkpt lat="48.8731" lon="7.3479">
        <ele>253.331177</ele>
        <time>2010-08-28T08:00:37Z</time>
      </trkpt>
      <trkpt lat="48.87312" lon="7.34781">
        <ele>253.811646</ele>
        <time>2010-08-28T08:00:38Z</time>
      </trkpt>
      <trkpt lat="48.87312" lon="7.34772">
        <ele>253.909302</ele>
        <time>2010-08-28T08:00:39Z</time>
      </trkpt>
      <trkpt lat="48.87312" lon="7.34763">
        <ele>254.256958</ele>
        <time>2010-08-28T08:00:40Z</time>
      </trkpt>
      <trkpt lat="48.87313" lon="7.34754">
        <ele>254.530396</ele>
        <time>2010-08-28T08:00:41Z</time>
      </trkpt>
      <trkpt lat="48.87314" lon="7.34745">
        <ele>254.772583</ele>
        <time>2010-08-28T08:00:42Z</time>
      </trkpt>
      <trkpt lat="48.87314" lon="7.34736">
        <ele>255.069458</ele>
        <time>2010-08-28T08:00:43Z</time>
      </trkpt>
      <trkpt lat="48.87315" lon="7.34727">
        <ele>255.444458</ele>
        <time>2010-08-28T08:00:44Z</time>
      </trkpt>
      <trkpt lat="48.87316" lon="7.34718">
        <ele>255.831177</ele>
        <time>2010-08-28T08:00:45Z</time>
      </trkpt>
      <trkpt lat="48.87316" lon="7.34709">
        <ele>256.256104</ele>
        <time>2010-08-28T08:00:46Z</time>
      </trkpt>
      <trkpt lat="48.87317" lon="7.34701">
        <ele>256.506104</ele>
        <time>2010-08-28T08:00:47Z</time>
      </trkpt>
      <trkpt lat="48.87318" lon="7.34692">
        <ele>256.810791</ele>
        <time>2010-08-28T08:00:48Z</time>
      </trkpt>
      <trkpt lat="48.8732" lon="7.34684">
        <ele>257.232666</ele>
        <time>2010-08-28T08:00:49Z</time>
      </trkpt>
      <trkpt lat="48.87321" lon="7.34676">
        <ele>257.388916</ele>
        <time>2010-08-28T08:00:50Z</time>
      </trkpt>
      <trkpt lat="48.87322" lon="7.34669">
        <ele>257.802979</ele>
        <time>2010-08-28T08:00:51Z</time>
      </trkpt>
      <trkpt lat="48.87323" lon="7.34662">
        <ele>258.279541</ele>
        <time>2010-08-28T08:00:52Z</time>
      </trkpt>
      <trkpt lat="48.87325" lon="7.3465">
        <ele>258.873291</ele>
        <time>2010-08-28T08:00:54Z</time>
      </trkpt>
      <trkpt lat="48.87325" lon="7.34642">
        <ele>259.568604</ele>
        <time>2010-08-28T08:00:56Z</time>
      </trkpt>
      <trkpt lat="48.87324" lon="7.34635">
        <ele>259.443604</ele>
        <time>2010-08-28T08:01:00Z</time>
      </trkpt>
      <trkpt lat="48.87326" lon="7.34636">
        <ele>254.940552</ele>
        <time>2010-08-28T08:04:05Z</time>
      </trkpt>
      <trkpt lat="48.87322" lon="7.34633">
        <ele>254.561646</ele>
        <time>2010-08-28T08:04:37Z</time>
      </trkpt>
      <trkpt lat="48.87326" lon="7.34631">
        <ele>255.999146</ele>
        <time>2010-08-28T08:05:16Z</time>
      </trkpt>
      <trkpt lat="48.87329" lon="7.34624">
        <ele>257.021729</ele>
        <time>2010-08-28T08:05:27Z</time>
      </trkpt>
      <trkpt lat="48.8733" lon="7.34616">
        <ele>257.412354</ele>
        <time>2010-08-28T08:05:31Z</time>
      </trkpt>
      <trkpt lat="48.87329" lon="7.34606">
        <ele>254.960083</ele>
        <time>2010-08-28T08:06:02Z</time>
      </trkpt>
      <trkpt lat="48.87329" lon="7.34595">
        <ele>255.362427</ele>
        <time>2010-08-28T08:06:04Z</time>
      </trkpt>
      <trkpt lat="48.87328" lon="7.34582">
        <ele>255.260864</ele>
        <time>2010-08-28T08:06:06Z</time>
      </trkpt>
      <trkpt lat="48.87326" lon="7.34569">
        <ele>255.366333</ele>
        <time>2010-08-28T08:06:08Z</time>
      </trkpt>
      <trkpt lat="48.87325" lon="7.34557">
        <ele>255.756958</ele>
        <time>2010-08-28T08:06:10Z</time>
      </trkpt>
      <trkpt lat="48.87324" lon="7.3455">
        <ele>255.909302</ele>
        <time>2010-08-28T08:06:11Z</time>
      </trkpt>
      <trkpt lat="48.87323" lon="7.34543">
        <ele>256.076416</ele>
        <time>2010-08-28T08:06:12Z</time>
      </trkpt>
      <trkpt lat="48.87322" lon="7.34536">
        <ele>256.310791</ele>
        <time>2010-08-28T08:06:13Z</time>
      </trkpt>
      <trkpt lat="48.8732" lon="7.34528">
        <ele>256.310791</ele>
        <time>2010-08-28T08:06:14Z</time>
      </trkpt>
      <trkpt lat="48.87319" lon="7.34521">
        <ele>256.365479</ele>
        <time>2010-08-28T08:06:15Z</time>
      </trkpt>
      <trkpt lat="48.87317" lon="7.34513">
        <ele>256.810791</ele>
        <time>2010-08-28T08:06:16Z</time>
      </trkpt>
      <trkpt lat="48.87316" lon="7.34507">
        <ele>257.310791</ele>
        <time>2010-08-28T08:06:17Z</time>
      </trkpt>
      <trkpt lat="48.87313" lon="7.34493">
        <ele>257.763916</ele>
        <time>2010-08-28T08:06:19Z</time>
      </trkpt>
      <trkpt lat="48.87312" lon="7.34487">
        <ele>258.201416</ele>
        <time>2010-08-28T08:06:20Z</time>
      </trkpt>
      <trkpt lat="48.87309" lon="7.34474">
        <ele>258.537354</ele>
        <time>2010-08-28T08:06:22Z</time>
      </trkpt>
      <trkpt lat="48.87307" lon="7.34467">
        <ele>258.920166</ele>
        <time>2010-08-28T08:06:23Z</time>
      </trkpt>
      <trkpt lat="48.87305" lon="7.34454">
        <ele>259.443604</ele>
        <time>2010-08-28T08:06:25Z</time>
      </trkpt>
      <trkpt lat="48.87303" lon="7.34442">
        <ele>260.498291</ele>
        <time>2010-08-28T08:06:27Z</time>
      </trkpt>
      <trkpt lat="48.87301" lon="7.34435">
        <ele>261.013916</ele>
        <time>2010-08-28T08:06:28Z</time>
      </trkpt>
      <trkpt lat="48.87298" lon="7.34424">
        <ele>261.240479</ele>
        <time>2010-08-28T08:06:30Z</time>
      </trkpt>
      <trkpt lat="48.87296" lon="7.34418">
        <ele>261.451416</ele>
        <time>2010-08-28T08:06:31Z</time>
      </trkpt>
      <trkpt lat="48.87291" lon="7.34407">
        <ele>261.302979</ele>
        <time>2010-08-28T08:06:33Z</time>
      </trkpt>
      <trkpt lat="48.87286" lon="7.34396">
        <ele>261.224854</ele>
        <time>2010-08-28T08:06:35Z</time>
      </trkpt>
      <trkpt lat="48.87283" lon="7.34385">
        <ele>261.865479</ele>
        <time>2010-08-28T08:06:37Z</time>
      </trkpt>
      <trkpt lat="48.87279" lon="7.34376">
        <ele>259.115479</ele>
        <time>2010-08-28T08:06:39Z</time>
      </trkpt>
      <trkpt lat="48.87276" lon="7.34367">
        <ele>259.240479</ele>
        <time>2010-08-28T08:06:41Z</time>
      </trkpt>
      <trkpt lat="48.87275" lon="7.34359">
        <ele>257.474854</ele>
        <time>2010-08-28T08:06:43Z</time>
      </trkpt>
      <trkpt lat="48.87273" lon="7.34352">
        <ele>255.909302</ele>
        <time>2010-08-28T08:06:51Z</time>
      </trkpt>
      <trkpt lat="48.87272" lon="7.34348">
        <ele>252.772583</ele>
        <time>2010-08-28T08:07:06Z</time>
      </trkpt>
      <trkpt lat="48.87275" lon="7.34348">
        <ele>255.604614</ele>
        <time>2010-08-28T08:07:32Z</time>
      </trkpt>
      <trkpt lat="48.87278" lon="7.34357">
        <ele>255.053833</ele>
        <time>2010-08-28T08:07:36Z</time>
      </trkpt>
      <trkpt lat="48.87281" lon="7.34363">
        <ele>254.741333</ele>
        <time>2010-08-28T08:07:38Z</time>
      </trkpt>
      <trkpt lat="48.87285" lon="7.34369">
        <ele>254.350708</ele>
        <time>2010-08-28T08:07:40Z</time>
      </trkpt>
      <trkpt lat="48.87289" lon="7.34376">
        <ele>253.983521</ele>
        <time>2010-08-28T08:07:42Z</time>
      </trkpt>
      <trkpt lat="48.87293" lon="7.34383">
        <ele>253.780396</ele>
        <time>2010-08-28T08:07:44Z</time>
      </trkpt>
      <trkpt lat="48.87297" lon="7.34391">
        <ele>253.901489</ele>
        <time>2010-08-28T08:07:46Z</time>
      </trkpt>
      <trkpt lat="48.87301" lon="7.34399">
        <ele>254.440552</ele>
        <time>2010-08-28T08:07:48Z</time>
      </trkpt>
      <trkpt lat="48.87306" lon="7.34408">
        <ele>254.483521</ele>
        <time>2010-08-28T08:07:50Z</time>
      </trkpt>
      <trkpt lat="48.87311" lon="7.34418">
        <ele>253.483521</ele>
        <time>2010-08-28T08:07:52Z</time>
      </trkpt>
      <trkpt lat="48.87316" lon="7.34428">
        <ele>253.905396</ele>
        <time>2010-08-28T08:07:54Z</time>
      </trkpt>
      <trkpt lat="48.8732" lon="7.34436">
        <ele>254.147583</ele>
        <time>2010-08-28T08:07:56Z</time>
      </trkpt>
      <trkpt lat="48.87324" lon="7.34444">
        <ele>254.667114</ele>
        <time>2010-08-28T08:07:58Z</time>
      </trkpt>
      <trkpt lat="48.87327" lon="7.34452">
        <ele>253.881958</ele>
        <time>2010-08-28T08:08:00Z</time>
      </trkpt>
      <trkpt lat="48.87329" lon="7.3446">
        <ele>250.710083</ele>
        <time>2010-08-28T08:08:02Z</time>
      </trkpt>
      <trkpt lat="48.87333" lon="7.3447">
        <ele>251.534302</ele>
        <time>2010-08-28T08:08:04Z</time>
      </trkpt>
      <trkpt lat="48.87337" lon="7.3448">
        <ele>251.631958</ele>
        <time>2010-08-28T08:08:06Z</time>
      </trkpt>
      <trkpt lat="48.87341" lon="7.34491">
        <ele>252.319458</ele>
        <time>2010-08-28T08:08:08Z</time>
      </trkpt>
      <trkpt lat="48.87346" lon="7.34502">
        <ele>252.456177</ele>
        <time>2010-08-28T08:08:10Z</time>
      </trkpt>
      <trkpt lat="48.87349" lon="7.34513">
        <ele>252.710083</ele>
        <time>2010-08-28T08:08:12Z</time>
      </trkpt>
      <trkpt lat="48.87354" lon="7.34524">
        <ele>253.838989</ele>
        <time>2010-08-28T08:08:14Z</time>
      </trkpt>
      <trkpt lat="48.87356" lon="7.34531">
        <ele>254.108521</ele>
        <time>2010-08-28T08:08:15Z</time>
      </trkpt>
      <trkpt lat="48.87359" lon="7.34537">
        <ele>254.452271</ele>
        <time>2010-08-28T08:08:16Z</time>
      </trkpt>
      <trkpt lat="48.87361" lon="7.34544">
        <ele>254.928833</ele>
        <time>2010-08-28T08:08:17Z</time>
      </trkpt>
      <trkpt lat="48.87363" lon="7.34551">
        <ele>255.659302</ele>
        <time>2010-08-28T08:08:18Z</time>
      </trkpt>
      <trkpt lat="48.87367" lon="7.34563">
        <ele>256.138916</ele>
        <time>2010-08-28T08:08:20Z</time>
      </trkpt>
      <trkpt lat="48.87369" lon="7.34571">
        <ele>256.756104</ele>
        <time>2010-08-28T08:08:22Z</time>
      </trkpt>
      <trkpt lat="48.87371" lon="7.34578">
        <ele>258.138916</ele>
        <time>2010-08-28T08:08:24Z</time>
      </trkpt>
      <trkpt lat="48.87373" lon="7.34586">
        <ele>258.795166</ele>
        <time>2010-08-28T08:08:26Z</time>
      </trkpt>
      <trkpt lat="48.87375" lon="7.34593">
        <ele>256.857666</ele>
        <time>2010-08-28T08:08:28Z</time>
      </trkpt>
      <trkpt lat="48.87376" lon="7.346">
        <ele>258.115479</ele>
        <time>2010-08-28T08:08:30Z</time>
      </trkpt>
      <trkpt lat="48.87378" lon="7.34607">
        <ele>257.123291</ele>
        <time>2010-08-28T08:08:32Z</time>
      </trkpt>
      <trkpt lat="48.8738" lon="7.34615">
        <ele>257.357666</ele>
        <time>2010-08-28T08:08:34Z</time>
      </trkpt>
      <trkpt lat="48.87382" lon="7.34623">
        <ele>256.904541</ele>
        <time>2010-08-28T08:08:36Z</time>
      </trkpt>
      <trkpt lat="48.87384" lon="7.34631">
        <ele>256.795166</ele>
        <time>2010-08-28T08:08:39Z</time>
      </trkpt>
      <trkpt lat="48.87387" lon="7.3464">
        <ele>255.999146</ele>
        <time>2010-08-28T08:08:43Z</time>
      </trkpt>
      <trkpt lat="48.87389" lon="7.34647">
        <ele>256.177979</ele>
        <time>2010-08-28T08:08:46Z</time>
      </trkpt>
      <trkpt lat="48.87391" lon="7.34653">
        <ele>256.248291</ele>
        <time>2010-08-28T08:08:48Z</time>
      </trkpt>
      <trkpt lat="48.87391" lon="7.34662">
        <ele>255.217896</ele>
        <time>2010-08-28T08:08:51Z</time>
      </trkpt>
      <trkpt lat="48.87394" lon="7.34669">
        <ele>255.346802</ele>
        <time>2010-08-28T08:08:53Z</time>
      </trkpt>
      <trkpt lat="48.87395" lon="7.34677">
        <ele>256.092041</ele>
        <time>2010-08-28T08:08:57Z</time>
      </trkpt>
      <trkpt lat="48.87399" lon="7.34681">
        <ele>257.552979</ele>
        <time>2010-08-28T08:09:57Z</time>
      </trkpt>
      <trkpt lat="48.87395" lon="7.34672">
        <ele>255.905396</ele>
        <time>2010-08-28T08:10:40Z</time>
      </trkpt>
      <trkpt lat="48.87394" lon="7.34666">
        <ele>255.069458</ele>
        <time>2010-08-28T08:10:42Z</time>
      </trkpt>
      <trkpt lat="48.87391" lon="7.34657">
        <ele>254.514771</ele>
        <time>2010-08-28T08:10:45Z</time>
      </trkpt>
      <trkpt lat="48.87387" lon="7.3465">
        <ele>254.385864</ele>
        <time>2010-08-28T08:10:48Z</time>
      </trkpt>
      <trkpt lat="48.87387" lon="7.34642">
        <ele>252.979614</ele>
        <time>2010-08-28T08:10:51Z</time>
      </trkpt>
      <trkpt lat="48.87386" lon="7.34635">
        <ele>254.057739</ele>
        <time>2010-08-28T08:10:54Z</time>
      </trkpt>
      <trkpt lat="48.87384" lon="7.34626">
        <ele>253.690552</ele>
        <time>2010-08-28T08:10:57Z</time>
      </trkpt>
      <trkpt lat="48.87382" lon="7.34618">
        <ele>253.202271</ele>
        <time>2010-08-28T08:10:59Z</time>
      </trkpt>
      <trkpt lat="48.8738" lon="7.34607">
        <ele>252.979614</ele>
        <time>2010-08-28T08:11:01Z</time>
      </trkpt>
      <trkpt lat="48.87378" lon="7.34599">
        <ele>252.842896</ele>
        <time>2010-08-28T08:11:03Z</time>
      </trkpt>
      <trkpt lat="48.87375" lon="7.3459">
        <ele>252.862427</ele>
        <time>2010-08-28T08:11:05Z</time>
      </trkpt>
      <trkpt lat="48.87371" lon="7.34583">
        <ele>252.987427</ele>
        <time>2010-08-28T08:11:07Z</time>
      </trkpt>
      <trkpt lat="48.87368" lon="7.34574">
        <ele>252.897583</ele>
        <time>2010-08-28T08:11:09Z</time>
      </trkpt>
      <trkpt lat="48.87367" lon="7.34566">
        <ele>253.073364</ele>
        <time>2010-08-28T08:11:11Z</time>
      </trkpt>
      <trkpt lat="48.87365" lon="7.34559">
        <ele>253.327271</ele>
        <time>2010-08-28T08:11:13Z</time>
      </trkpt>
      <trkpt lat="48.87363" lon="7.3455">
        <ele>254.452271</ele>
        <time>2010-08-28T08:11:15Z</time>
      </trkpt>
      <trkpt lat="48.8736" lon="7.3454">
        <ele>255.483521</ele>
        <time>2010-08-28T08:11:17Z</time>
      </trkpt>
      <trkpt lat="48.87357" lon="7.34531">
        <ele>256.006104</ele>
        <time>2010-08-28T08:11:19Z</time>
      </trkpt>
      <trkpt lat="48.87353" lon="7.34523">
        <ele>256.357666</ele>
        <time>2010-08-28T08:11:21Z</time>
      </trkpt>
      <trkpt lat="48.87349" lon="7.34514">
        <ele>256.943604</ele>
        <time>2010-08-28T08:11:23Z</time>
      </trkpt>
      <trkpt lat="48.87347" lon="7.34504">
        <ele>257.162354</ele>
        <time>2010-08-28T08:11:25Z</time>
      </trkpt>
      <trkpt lat="48.87343" lon="7.34493">
        <ele>257.623291</ele>
        <time>2010-08-28T08:11:27Z</time>
      </trkpt>
      <trkpt lat="48.87339" lon="7.34484">
        <ele>257.693604</ele>
        <time>2010-08-28T08:11:29Z</time>
      </trkpt>
      <trkpt lat="48.87335" lon="7.34473">
        <ele>256.584229</ele>
        <time>2010-08-28T08:11:31Z</time>
      </trkpt>
      <trkpt lat="48.87331" lon="7.34464">
        <ele>256.302979</ele>
        <time>2010-08-28T08:11:33Z</time>
      </trkpt>
      <trkpt lat="48.87327" lon="7.34456">
        <ele>255.991333</ele>
        <time>2010-08-28T08:11:35Z</time>
      </trkpt>
      <trkpt lat="48.87324" lon="7.34447">
        <ele>256.201416</ele>
        <time>2010-08-28T08:11:37Z</time>
      </trkpt>
      <trkpt lat="48.8732" lon="7.34437">
        <ele>256.631104</ele>
        <time>2010-08-28T08:11:39Z</time>
      </trkpt>
      <trkpt lat="48.87316" lon="7.34428">
        <ele>255.971802</ele>
        <time>2010-08-28T08:11:41Z</time>
      </trkpt>
      <trkpt lat="48.87312" lon="7.34419">
        <ele>255.733521</ele>
        <time>2010-08-28T08:11:43Z</time>
      </trkpt>
      <trkpt lat="48.87308" lon="7.3441">
        <ele>255.327271</ele>
        <time>2010-08-28T08:11:45Z</time>
      </trkpt>
      <trkpt lat="48.87306" lon="7.344">
        <ele>254.815552</ele>
        <time>2010-08-28T08:11:47Z</time>
      </trkpt>
      <trkpt lat="48.87302" lon="7.34392">
        <ele>254.842896</ele>
        <time>2010-08-28T08:11:49Z</time>
      </trkpt>
      <trkpt lat="48.87299" lon="7.34384">
        <ele>254.475708</ele>
        <time>2010-08-28T08:11:51Z</time>
      </trkpt>
      <trkpt lat="48.87295" lon="7.34377">
        <ele>254.710083</ele>
        <time>2010-08-28T08:11:53Z</time>
      </trkpt>
      <trkpt lat="48.87292" lon="7.34371">
        <ele>254.901489</ele>
        <time>2010-08-28T08:11:55Z</time>
      </trkpt>
      <trkpt lat="48.87289" lon="7.34364">
        <ele>254.014771</ele>
        <time>2010-08-28T08:11:57Z</time>
      </trkpt>
      <trkpt lat="48.87285" lon="7.34358">
        <ele>253.682739</ele>
        <time>2010-08-28T08:11:59Z</time>
      </trkpt>
      <trkpt lat="48.87282" lon="7.34352">
        <ele>254.131958</ele>
        <time>2010-08-28T08:12:01Z</time>
      </trkpt>
      <trkpt lat="48.87279" lon="7.34346">
        <ele>254.073364</ele>
        <time>2010-08-28T08:12:03Z</time>
      </trkpt>
      <trkpt lat="48.87275" lon="7.34339">
        <ele>253.526489</ele>
        <time>2010-08-28T08:12:06Z</time>
      </trkpt>
      <trkpt lat="48.8727" lon="7.34332">
        <ele>253.444458</ele>
        <time>2010-08-28T08:12:09Z</time>
      </trkpt>
      <trkpt lat="48.87267" lon="7.34327">
        <ele>253.100708</ele>
        <time>2010-08-28T08:12:11Z</time>
      </trkpt>
      <trkpt lat="48.87264" lon="7.34321">
        <ele>253.026489</ele>
        <time>2010-08-28T08:12:13Z</time>
      </trkpt>
      <trkpt lat="48.87261" lon="7.34315">
        <ele>253.374146</ele>
        <time>2010-08-28T08:12:15Z</time>
      </trkpt>
      <trkpt lat="48.87258" lon="7.34308">
        <ele>253.557739</ele>
        <time>2010-08-28T08:12:17Z</time>
      </trkpt>
      <trkpt lat="48.87255" lon="7.34302">
        <ele>253.710083</ele>
        <time>2010-08-28T08:12:19Z</time>
      </trkpt>
      <trkpt lat="48.87251" lon="7.34296">
        <ele>253.756958</ele>
        <time>2010-08-28T08:12:21Z</time>
      </trkpt>
      <trkpt lat="48.87248" lon="7.34289">
        <ele>253.889771</ele>
        <time>2010-08-28T08:12:23Z</time>
      </trkpt>
      <trkpt lat="48.87245" lon="7.34282">
        <ele>253.936646</ele>
        <time>2010-08-28T08:12:25Z</time>
      </trkpt>
      <trkpt lat="48.87241" lon="7.34275">
        <ele>254.135864</ele>
        <time>2010-08-28T08:12:27Z</time>
      </trkpt>
      <trkpt lat="48.87238" lon="7.34269">
        <ele>254.159302</ele>
        <time>2010-08-28T08:12:29Z</time>
      </trkpt>
      <trkpt lat="48.87236" lon="7.34262">
        <ele>254.424927</ele>
        <time>2010-08-28T08:12:31Z</time>
      </trkpt>
      <trkpt lat="48.87235" lon="7.34253">
        <ele>257.935791</ele>
        <time>2010-08-28T08:13:12Z</time>
      </trkpt>
      <trkpt lat="48.87231" lon="7.34244">
        <ele>258.599854</ele>
        <time>2010-08-28T08:13:14Z</time>
      </trkpt>
      <trkpt lat="48.87228" lon="7.34234">
        <ele>259.365479</ele>
        <time>2010-08-28T08:13:16Z</time>
      </trkpt>
      <trkpt lat="48.87226" lon="7.34224">
        <ele>259.435791</ele>
        <time>2010-08-28T08:13:18Z</time>
      </trkpt>
      <trkpt lat="48.87223" lon="7.34214">
        <ele>259.646729</ele>
        <time>2010-08-28T08:13:20Z</time>
      </trkpt>
      <trkpt lat="48.87221" lon="7.34206">
        <ele>259.935791</ele>
        <time>2010-08-28T08:13:22Z</time>
      </trkpt>
      <trkpt lat="48.87219" lon="7.34197">
        <ele>259.951416</ele>
        <time>2010-08-28T08:13:24Z</time>
      </trkpt>
      <trkpt lat="48.87216" lon="7.34187">
        <ele>259.881104</ele>
        <time>2010-08-28T08:13:26Z</time>
      </trkpt>
      <trkpt lat="48.87214" lon="7.34179">
        <ele>260.045166</ele>
        <time>2010-08-28T08:13:28Z</time>
      </trkpt>
      <trkpt lat="48.87211" lon="7.3417">
        <ele>259.638916</ele>
        <time>2010-08-28T08:13:30Z</time>
      </trkpt>
      <trkpt lat="48.87209" lon="7.34163">
        <ele>260.560791</ele>
        <time>2010-08-28T08:13:32Z</time>
      </trkpt>
      <trkpt lat="48.87206" lon="7.34155">
        <ele>260.560791</ele>
        <time>2010-08-28T08:13:34Z</time>
      </trkpt>
      <trkpt lat="48.87204" lon="7.34147">
        <ele>260.826416</ele>
        <time>2010-08-28T08:13:36Z</time>
      </trkpt>
      <trkpt lat="48.87203" lon="7.34139">
        <ele>261.779541</ele>
        <time>2010-08-28T08:13:38Z</time>
      </trkpt>
      <trkpt lat="48.872" lon="7.34131">
        <ele>261.638916</ele>
        <time>2010-08-28T08:13:40Z</time>
      </trkpt>
      <trkpt lat="48.87197" lon="7.34123">
        <ele>261.857666</ele>
        <time>2010-08-28T08:13:42Z</time>
      </trkpt>
      <trkpt lat="48.87194" lon="7.34116">
        <ele>261.513916</ele>
        <time>2010-08-28T08:13:44Z</time>
      </trkpt>
      <trkpt lat="48.87193" lon="7.34109">
        <ele>262.224854</ele>
        <time>2010-08-28T08:13:46Z</time>
      </trkpt>
      <trkpt lat="48.8719" lon="7.34101">
        <ele>262.513916</ele>
        <time>2010-08-28T08:13:48Z</time>
      </trkpt>
      <trkpt lat="48.87186" lon="7.34094">
        <ele>262.631104</ele>
        <time>2010-08-28T08:13:50Z</time>
      </trkpt>
      <trkpt lat="48.87184" lon="7.34087">
        <ele>262.951416</ele>
        <time>2010-08-28T08:13:52Z</time>
      </trkpt>
      <trkpt lat="48.87182" lon="7.34079">
        <ele>263.146729</ele>
        <time>2010-08-28T08:13:54Z</time>
      </trkpt>
      <trkpt lat="48.87179" lon="7.34071">
        <ele>263.201416</ele>
        <time>2010-08-28T08:13:56Z</time>
      </trkpt>
      <trkpt lat="48.87175" lon="7.34063">
        <ele>263.482666</ele>
        <time>2010-08-28T08:13:58Z</time>
      </trkpt>
      <trkpt lat="48.87172" lon="7.34055">
        <ele>263.427979</ele>
        <time>2010-08-28T08:14:00Z</time>
      </trkpt>
      <trkpt lat="48.87169" lon="7.34046">
        <ele>263.552979</ele>
        <time>2010-08-28T08:14:02Z</time>
      </trkpt>
      <trkpt lat="48.87166" lon="7.34036">
        <ele>263.638916</ele>
        <time>2010-08-28T08:14:04Z</time>
      </trkpt>
      <trkpt lat="48.87162" lon="7.34027">
        <ele>263.545166</ele>
        <time>2010-08-28T08:14:06Z</time>
      </trkpt>
      <trkpt lat="48.87159" lon="7.34016">
        <ele>263.427979</ele>
        <time>2010-08-28T08:14:08Z</time>
      </trkpt>
      <trkpt lat="48.87155" lon="7.34007">
        <ele>263.623291</ele>
        <time>2010-08-28T08:14:10Z</time>
      </trkpt>
      <trkpt lat="48.87152" lon="7.33998">
        <ele>263.498291</ele>
        <time>2010-08-28T08:14:12Z</time>
      </trkpt>
      <trkpt lat="48.87148" lon="7.33989">
        <ele>263.529541</ele>
        <time>2010-08-28T08:14:14Z</time>
      </trkpt>
      <trkpt lat="48.87145" lon="7.3398">
        <ele>263.404541</ele>
        <time>2010-08-28T08:14:16Z</time>
      </trkpt>
      <trkpt lat="48.87141" lon="7.33972">
        <ele>263.412354</ele>
        <time>2010-08-28T08:14:18Z</time>
      </trkpt>
      <trkpt lat="48.87138" lon="7.33963">
        <ele>263.451416</ele>
        <time>2010-08-28T08:14:20Z</time>
      </trkpt>
      <trkpt lat="48.87135" lon="7.33956">
        <ele>264.342041</ele>
        <time>2010-08-28T08:14:22Z</time>
      </trkpt>
      <trkpt lat="48.87133" lon="7.33948">
        <ele>264.107666</ele>
        <time>2010-08-28T08:14:25Z</time>
      </trkpt>
      <trkpt lat="48.87132" lon="7.33945">
        <ele>260.138916</ele>
        <time>2010-08-28T08:17:37Z</time>
      </trkpt>
      <trkpt lat="48.87127" lon="7.33942">
        <ele>259.209229</ele>
        <time>2010-08-28T08:17:57Z</time>
      </trkpt>
      <trkpt lat="48.87122" lon="7.3394">
        <ele>259.638916</ele>
        <time>2010-08-28T08:18:02Z</time>
      </trkpt>
      <trkpt lat="48.87117" lon="7.33938">
        <ele>259.357666</ele>
        <time>2010-08-28T08:18:05Z</time>
      </trkpt>
      <trkpt lat="48.87113" lon="7.33935">
        <ele>260.670166</ele>
        <time>2010-08-28T08:18:08Z</time>
      </trkpt>
      <trkpt lat="48.87109" lon="7.33932">
        <ele>261.701416</ele>
        <time>2010-08-28T08:18:13Z</time>
      </trkpt>
      <trkpt lat="48.87104" lon="7.33928">
        <ele>262.537354</ele>
        <time>2010-08-28T08:18:17Z</time>
      </trkpt>
      <trkpt lat="48.871" lon="7.33924">
        <ele>263.857666</ele>
        <time>2010-08-28T08:18:21Z</time>
      </trkpt>
      <trkpt lat="48.87095" lon="7.33924">
        <ele>265.427979</ele>
        <time>2010-08-28T08:18:34Z</time>
      </trkpt>
      <trkpt lat="48.87091" lon="7.33919">
        <ele>266.568604</ele>
        <time>2010-08-28T08:18:52Z</time>
      </trkpt>
      <trkpt lat="48.87087" lon="7.33914">
        <ele>266.521729</ele>
        <time>2010-08-28T08:18:56Z</time>
      </trkpt>
      <trkpt lat="48.87085" lon="7.33908">
        <ele>266.998291</ele>
        <time>2010-08-28T08:19:36Z</time>
      </trkpt>
      <trkpt lat="48.87082" lon="7.33902">
        <ele>267.599854</ele>
        <time>2010-08-28T08:19:45Z</time>
      </trkpt>
      <trkpt lat="48.87087" lon="7.33907">
        <ele>265.365479</ele>
        <time>2010-08-28T08:23:49Z</time>
      </trkpt>
      <trkpt lat="48.87091" lon="7.33912">
        <ele>264.584229</ele>
        <time>2010-08-28T08:23:51Z</time>
      </trkpt>
      <trkpt lat="48.87098" lon="7.33916">
        <ele>263.951416</ele>
        <time>2010-08-28T08:23:53Z</time>
      </trkpt>
      <trkpt lat="48.87103" lon="7.33919">
        <ele>263.138916</ele>
        <time>2010-08-28T08:23:55Z</time>
      </trkpt>
      <trkpt lat="48.87108" lon="7.33922">
        <ele>262.545166</ele>
        <time>2010-08-28T08:23:56Z</time>
      </trkpt>
      <trkpt lat="48.87117" lon="7.33927">
        <ele>260.802979</ele>
        <time>2010-08-28T08:23:58Z</time>
      </trkpt>
      <trkpt lat="48.87124" lon="7.33933">
        <ele>259.732666</ele>
        <time>2010-08-28T08:24:00Z</time>
      </trkpt>
      <trkpt lat="48.87128" lon="7.33938">
        <ele>258.474854</ele>
        <time>2010-08-28T08:24:02Z</time>
      </trkpt>
      <trkpt lat="48.87126" lon="7.33929">
        <ele>257.748291</ele>
        <time>2010-08-28T08:24:15Z</time>
      </trkpt>
      <trkpt lat="48.87123" lon="7.33921">
        <ele>256.849854</ele>
        <time>2010-08-28T08:24:17Z</time>
      </trkpt>
      <trkpt lat="48.87119" lon="7.33912">
        <ele>256.568604</ele>
        <time>2010-08-28T08:24:19Z</time>
      </trkpt>
      <trkpt lat="48.87116" lon="7.33901">
        <ele>256.185791</ele>
        <time>2010-08-28T08:24:21Z</time>
      </trkpt>
      <trkpt lat="48.87114" lon="7.33892">
        <ele>256.248291</ele>
        <time>2010-08-28T08:24:23Z</time>
      </trkpt>
      <trkpt lat="48.87111" lon="7.33883">
        <ele>256.357666</ele>
        <time>2010-08-28T08:24:25Z</time>
      </trkpt>
      <trkpt lat="48.8711" lon="7.33875">
        <ele>256.232666</ele>
        <time>2010-08-28T08:24:27Z</time>
      </trkpt>
      <trkpt lat="48.87108" lon="7.33867">
        <ele>256.037354</ele>
        <time>2010-08-28T08:24:29Z</time>
      </trkpt>
      <trkpt lat="48.87106" lon="7.33859">
        <ele>255.319458</ele>
        <time>2010-08-28T08:24:32Z</time>
      </trkpt>
      <trkpt lat="48.87105" lon="7.33849">
        <ele>255.034302</ele>
        <time>2010-08-28T08:25:11Z</time>
      </trkpt>
      <trkpt lat="48.87108" lon="7.3384">
        <ele>254.878052</ele>
        <time>2010-08-28T08:25:13Z</time>
      </trkpt>
      <trkpt lat="48.87111" lon="7.33829">
        <ele>254.565552</ele>
        <time>2010-08-28T08:25:15Z</time>
      </trkpt>
      <trkpt lat="48.87114" lon="7.33818">
        <ele>254.241333</ele>
        <time>2010-08-28T08:25:17Z</time>
      </trkpt>
      <trkpt lat="48.87116" lon="7.33812">
        <ele>254.085083</ele>
        <time>2010-08-28T08:25:19Z</time>
      </trkpt>
      <trkpt lat="48.87114" lon="7.33818">
        <ele>254.346802</ele>
        <time>2010-08-28T08:26:08Z</time>
      </trkpt>
      <trkpt lat="48.87119" lon="7.33813">
        <ele>253.850708</ele>
        <time>2010-08-28T08:26:12Z</time>
      </trkpt>
      <trkpt lat="48.87124" lon="7.3381">
        <ele>253.280396</ele>
        <time>2010-08-28T08:26:14Z</time>
      </trkpt>
      <trkpt lat="48.8713" lon="7.3381">
        <ele>252.776489</ele>
        <time>2010-08-28T08:26:16Z</time>
      </trkpt>
      <trkpt lat="48.87135" lon="7.33809">
        <ele>251.381958</ele>
        <time>2010-08-28T08:26:18Z</time>
      </trkpt>
      <trkpt lat="48.87141" lon="7.3381">
        <ele>250.370239</ele>
        <time>2010-08-28T08:26:20Z</time>
      </trkpt>
      <trkpt lat="48.87147" lon="7.33808">
        <ele>249.889771</ele>
        <time>2010-08-28T08:26:22Z</time>
      </trkpt>
      <trkpt lat="48.87152" lon="7.33803">
        <ele>248.710083</ele>
        <time>2010-08-28T08:26:24Z</time>
      </trkpt>
      <trkpt lat="48.87157" lon="7.33796">
        <ele>247.026489</ele>
        <time>2010-08-28T08:26:26Z</time>
      </trkpt>
      <trkpt lat="48.87159" lon="7.33785">
        <ele>245.143677</ele>
        <time>2010-08-28T08:26:28Z</time>
      </trkpt>
      <trkpt lat="48.87162" lon="7.33775">
        <ele>243.807739</ele>
        <time>2010-08-28T08:26:30Z</time>
      </trkpt>
      <trkpt lat="48.87162" lon="7.33764">
        <ele>242.878052</ele>
        <time>2010-08-28T08:26:32Z</time>
      </trkpt>
      <trkpt lat="48.87162" lon="7.33756">
        <ele>242.178833</ele>
        <time>2010-08-28T08:26:34Z</time>
      </trkpt>
      <trkpt lat="48.87163" lon="7.33747">
        <ele>241.385864</ele>
        <time>2010-08-28T08:26:37Z</time>
      </trkpt>
      <trkpt lat="48.87163" lon="7.33739">
        <ele>241.604614</ele>
        <time>2010-08-28T08:26:40Z</time>
      </trkpt>
      <trkpt lat="48.87162" lon="7.33732">
        <ele>241.995239</ele>
        <time>2010-08-28T08:26:43Z</time>
      </trkpt>
      <trkpt lat="48.87162" lon="7.33724">
        <ele>241.413208</ele>
        <time>2010-08-28T08:26:46Z</time>
      </trkpt>
      <trkpt lat="48.87163" lon="7.33711">
        <ele>242.397583</ele>
        <time>2010-08-28T08:26:49Z</time>
      </trkpt>
      <trkpt lat="48.87162" lon="7.33704">
        <ele>242.194458</ele>
        <time>2010-08-28T08:26:51Z</time>
      </trkpt>
      <trkpt lat="48.87162" lon="7.33693">
        <ele>241.881958</ele>
        <time>2010-08-28T08:26:54Z</time>
      </trkpt>
      <trkpt lat="48.87159" lon="7.33684">
        <ele>241.905396</ele>
        <time>2010-08-28T08:26:55Z</time>
      </trkpt>
      <trkpt lat="48.87158" lon="7.33673">
        <ele>241.401489</ele>
        <time>2010-08-28T08:26:57Z</time>
      </trkpt>
      <trkpt lat="48.87156" lon="7.33664">
        <ele>241.030396</ele>
        <time>2010-08-28T08:26:59Z</time>
      </trkpt>
      <trkpt lat="48.87155" lon="7.33656">
        <ele>240.835083</ele>
        <time>2010-08-28T08:27:01Z</time>
      </trkpt>
      <trkpt lat="48.87155" lon="7.33646">
        <ele>240.546021</ele>
        <time>2010-08-28T08:27:04Z</time>
      </trkpt>
      <trkpt lat="48.87155" lon="7.33636">
        <ele>240.112427</ele>
        <time>2010-08-28T08:27:06Z</time>
      </trkpt>
      <trkpt lat="48.87155" lon="7.33623">
        <ele>239.440552</ele>
        <time>2010-08-28T08:27:08Z</time>
      </trkpt>
      <trkpt lat="48.87155" lon="7.33613">
        <ele>239.225708</ele>
        <time>2010-08-28T08:27:10Z</time>
      </trkpt>
      <trkpt lat="48.87155" lon="7.33604">
        <ele>239.131958</ele>
        <time>2010-08-28T08:27:12Z</time>
      </trkpt>
      <trkpt lat="48.87154" lon="7.33592">
        <ele>239.014771</ele>
        <time>2010-08-28T08:27:14Z</time>
      </trkpt>
      <trkpt lat="48.87153" lon="7.33579">
        <ele>239.331177</ele>
        <time>2010-08-28T08:27:16Z</time>
      </trkpt>
      <trkpt lat="48.87152" lon="7.33569">
        <ele>239.585083</ele>
        <time>2010-08-28T08:27:18Z</time>
      </trkpt>
      <trkpt lat="48.8715" lon="7.33558">
        <ele>240.124146</ele>
        <time>2010-08-28T08:27:20Z</time>
      </trkpt>
      <trkpt lat="48.8715" lon="7.33547">
        <ele>240.604614</ele>
        <time>2010-08-28T08:27:22Z</time>
      </trkpt>
      <trkpt lat="48.87154" lon="7.33536">
        <ele>240.327271</ele>
        <time>2010-08-28T08:27:24Z</time>
      </trkpt>
      <trkpt lat="48.87156" lon="7.33525">
        <ele>240.600708</ele>
        <time>2010-08-28T08:27:26Z</time>
      </trkpt>
      <trkpt lat="48.87156" lon="7.33512">
        <ele>240.569458</ele>
        <time>2010-08-28T08:27:28Z</time>
      </trkpt>
      <trkpt lat="48.87157" lon="7.33499">
        <ele>240.573364</ele>
        <time>2010-08-28T08:27:30Z</time>
      </trkpt>
      <trkpt lat="48.87157" lon="7.33489">
        <ele>240.983521</ele>
        <time>2010-08-28T08:27:32Z</time>
      </trkpt>
      <trkpt lat="48.8716" lon="7.33476">
        <ele>241.030396</ele>
        <time>2010-08-28T08:27:34Z</time>
      </trkpt>
      <trkpt lat="48.87164" lon="7.33462">
        <ele>239.893677</ele>
        <time>2010-08-28T08:27:36Z</time>
      </trkpt>
      <trkpt lat="48.87164" lon="7.3345">
        <ele>239.253052</ele>
        <time>2010-08-28T08:27:38Z</time>
      </trkpt>
      <trkpt lat="48.87163" lon="7.33442">
        <ele>239.850708</ele>
        <time>2010-08-28T08:27:39Z</time>
      </trkpt>
      <trkpt lat="48.87165" lon="7.3343">
        <ele>240.780396</ele>
        <time>2010-08-28T08:27:41Z</time>
      </trkpt>
      <trkpt lat="48.87166" lon="7.33417">
        <ele>241.264771</ele>
        <time>2010-08-28T08:27:43Z</time>
      </trkpt>
      <trkpt lat="48.87168" lon="7.33406">
        <ele>240.960083</ele>
        <time>2010-08-28T08:27:45Z</time>
      </trkpt>
      <trkpt lat="48.87169" lon="7.33395">
        <ele>241.788208</ele>
        <time>2010-08-28T08:27:47Z</time>
      </trkpt>
      <trkpt lat="48.87168" lon="7.33385">
        <ele>242.163208</ele>
        <time>2010-08-28T08:27:49Z</time>
      </trkpt>
      <trkpt lat="48.87166" lon="7.33376">
        <ele>243.335083</ele>
        <time>2010-08-28T08:27:51Z</time>
      </trkpt>
      <trkpt lat="48.87167" lon="7.33367">
        <ele>243.581177</ele>
        <time>2010-08-28T08:27:53Z</time>
      </trkpt>
      <trkpt lat="48.87167" lon="7.33357">
        <ele>243.725708</ele>
        <time>2010-08-28T08:27:55Z</time>
      </trkpt>
      <trkpt lat="48.87167" lon="7.33346">
        <ele>244.846802</ele>
        <time>2010-08-28T08:27:57Z</time>
      </trkpt>
      <trkpt lat="48.87167" lon="7.33335">
        <ele>244.749146</ele>
        <time>2010-08-28T08:27:59Z</time>
      </trkpt>
      <trkpt lat="48.87166" lon="7.33328">
        <ele>245.573364</ele>
        <time>2010-08-28T08:28:00Z</time>
      </trkpt>
      <trkpt lat="48.87163" lon="7.33317">
        <ele>246.796021</ele>
        <time>2010-08-28T08:28:02Z</time>
      </trkpt>
      <trkpt lat="48.87161" lon="7.33307">
        <ele>248.374146</ele>
        <time>2010-08-28T08:28:04Z</time>
      </trkpt>
      <trkpt lat="48.87161" lon="7.33297">
        <ele>249.182739</ele>
        <time>2010-08-28T08:28:06Z</time>
      </trkpt>
      <trkpt lat="48.87162" lon="7.33288">
        <ele>249.854614</ele>
        <time>2010-08-28T08:28:08Z</time>
      </trkpt>
      <trkpt lat="48.87161" lon="7.33278">
        <ele>251.073364</ele>
        <time>2010-08-28T08:28:10Z</time>
      </trkpt>
      <trkpt lat="48.87159" lon="7.33269">
        <ele>251.717896</ele>
        <time>2010-08-28T08:28:12Z</time>
      </trkpt>
      <trkpt lat="48.87158" lon="7.33259">
        <ele>251.753052</ele>
        <time>2010-08-28T08:28:14Z</time>
      </trkpt>
      <trkpt lat="48.87155" lon="7.33251">
        <ele>252.421021</ele>
        <time>2010-08-28T08:28:16Z</time>
      </trkpt>
      <trkpt lat="48.87153" lon="7.33244">
        <ele>253.495239</ele>
        <time>2010-08-28T08:28:18Z</time>
      </trkpt>
      <trkpt lat="48.8715" lon="7.33235">
        <ele>255.381958</ele>
        <time>2010-08-28T08:28:21Z</time>
      </trkpt>
      <trkpt lat="48.87148" lon="7.33227">
        <ele>256.349854</ele>
        <time>2010-08-28T08:28:23Z</time>
      </trkpt>
      <trkpt lat="48.87146" lon="7.33219">
        <ele>257.295166</ele>
        <time>2010-08-28T08:28:25Z</time>
      </trkpt>
      <trkpt lat="48.87146" lon="7.33212">
        <ele>257.974854</ele>
        <time>2010-08-28T08:28:27Z</time>
      </trkpt>
      <trkpt lat="48.87144" lon="7.33205">
        <ele>259.607666</ele>
        <time>2010-08-28T08:28:30Z</time>
      </trkpt>
      <trkpt lat="48.8714" lon="7.33198">
        <ele>259.685791</ele>
        <time>2010-08-28T08:29:39Z</time>
      </trkpt>
      <trkpt lat="48.87139" lon="7.3319">
        <ele>260.795166</ele>
        <time>2010-08-28T08:29:42Z</time>
      </trkpt>
      <trkpt lat="48.87137" lon="7.3318">
        <ele>261.576416</ele>
        <time>2010-08-28T08:29:45Z</time>
      </trkpt>
      <trkpt lat="48.87136" lon="7.33172">
        <ele>262.256104</ele>
        <time>2010-08-28T08:29:47Z</time>
      </trkpt>
      <trkpt lat="48.87134" lon="7.33163">
        <ele>262.912354</ele>
        <time>2010-08-28T08:29:49Z</time>
      </trkpt>
      <trkpt lat="48.87133" lon="7.33154">
        <ele>263.248291</ele>
        <time>2010-08-28T08:29:51Z</time>
      </trkpt>
      <trkpt lat="48.87132" lon="7.33145">
        <ele>263.279541</ele>
        <time>2010-08-28T08:29:53Z</time>
      </trkpt>
      <trkpt lat="48.87131" lon="7.33136">
        <ele>263.881104</ele>
        <time>2010-08-28T08:29:55Z</time>
      </trkpt>
      <trkpt lat="48.8713" lon="7.33127">
        <ele>264.685791</ele>
        <time>2010-08-28T08:29:57Z</time>
      </trkpt>
      <trkpt lat="48.87129" lon="7.33119">
        <ele>263.927979</ele>
        <time>2010-08-28T08:29:59Z</time>
      </trkpt>
      <trkpt lat="48.87128" lon="7.33111">
        <ele>264.060791</ele>
        <time>2010-08-28T08:30:01Z</time>
      </trkpt>
      <trkpt lat="48.87125" lon="7.33102">
        <ele>264.404541</ele>
        <time>2010-08-28T08:30:04Z</time>
      </trkpt>
      <trkpt lat="48.87122" lon="7.33093">
        <ele>263.763916</ele>
        <time>2010-08-28T08:30:07Z</time>
      </trkpt>
      <trkpt lat="48.87119" lon="7.33085">
        <ele>263.849854</ele>
        <time>2010-08-28T08:30:10Z</time>
      </trkpt>
      <trkpt lat="48.87115" lon="7.33077">
        <ele>263.857666</ele>
        <time>2010-08-28T08:30:13Z</time>
      </trkpt>
      <trkpt lat="48.87112" lon="7.33071">
        <ele>263.724854</ele>
        <time>2010-08-28T08:30:15Z</time>
      </trkpt>
      <trkpt lat="48.87109" lon="7.33064">
        <ele>263.631104</ele>
        <time>2010-08-28T08:30:17Z</time>
      </trkpt>
      <trkpt lat="48.87107" lon="7.33056">
        <ele>263.873291</ele>
        <time>2010-08-28T08:30:20Z</time>
      </trkpt>
      <trkpt lat="48.87106" lon="7.33048">
        <ele>264.756104</ele>
        <time>2010-08-28T08:30:28Z</time>
      </trkpt>
      <trkpt lat="48.87106" lon="7.3304">
        <ele>264.802979</ele>
        <time>2010-08-28T08:30:30Z</time>
      </trkpt>
      <trkpt lat="48.87107" lon="7.33031">
        <ele>264.818604</ele>
        <time>2010-08-28T08:30:32Z</time>
      </trkpt>
      <trkpt lat="48.87109" lon="7.33024">
        <ele>265.177979</ele>
        <time>2010-08-28T08:30:34Z</time>
      </trkpt>
      <trkpt lat="48.87111" lon="7.33017">
        <ele>265.357666</ele>
        <time>2010-08-28T08:30:36Z</time>
      </trkpt>
      <trkpt lat="48.87112" lon="7.3301">
        <ele>265.349854</ele>
        <time>2010-08-28T08:30:38Z</time>
      </trkpt>
      <trkpt lat="48.87113" lon="7.33003">
        <ele>265.513916</ele>
        <time>2010-08-28T08:30:40Z</time>
      </trkpt>
      <trkpt lat="48.87114" lon="7.32996">
        <ele>265.498291</ele>
        <time>2010-08-28T08:30:42Z</time>
      </trkpt>
      <trkpt lat="48.87115" lon="7.32988">
        <ele>265.662354</ele>
        <time>2010-08-28T08:30:44Z</time>
      </trkpt>
      <trkpt lat="48.87115" lon="7.32979">
        <ele>265.232666</ele>
        <time>2010-08-28T08:30:46Z</time>
      </trkpt>
      <trkpt lat="48.87115" lon="7.32971">
        <ele>264.256104</ele>
        <time>2010-08-28T08:30:48Z</time>
      </trkpt>
      <trkpt lat="48.87116" lon="7.32963">
        <ele>263.248291</ele>
        <time>2010-08-28T08:30:50Z</time>
      </trkpt>
      <trkpt lat="48.87116" lon="7.32955">
        <ele>262.318604</ele>
        <time>2010-08-28T08:30:52Z</time>
      </trkpt>
      <trkpt lat="48.87116" lon="7.32947">
        <ele>261.396729</ele>
        <time>2010-08-28T08:30:54Z</time>
      </trkpt>
      <trkpt lat="48.87116" lon="7.32941">
        <ele>260.420166</ele>
        <time>2010-08-28T08:30:56Z</time>
      </trkpt>
      <trkpt lat="48.87114" lon="7.32934">
        <ele>259.443604</ele>
        <time>2010-08-28T08:30:58Z</time>
      </trkpt>
      <trkpt lat="48.87111" lon="7.32928">
        <ele>258.498291</ele>
        <time>2010-08-28T08:31:00Z</time>
      </trkpt>
      <trkpt lat="48.87109" lon="7.32921">
        <ele>257.302979</ele>
        <time>2010-08-28T08:31:03Z</time>
      </trkpt>
      <trkpt lat="48.87106" lon="7.32912">
        <ele>256.084229</ele>
        <time>2010-08-28T08:31:06Z</time>
      </trkpt>
      <trkpt lat="48.87103" lon="7.32905">
        <ele>255.553833</ele>
        <time>2010-08-28T08:31:08Z</time>
      </trkpt>
      <trkpt lat="48.87101" lon="7.32899">
        <ele>254.655396</ele>
        <time>2010-08-28T08:31:10Z</time>
      </trkpt>
      <trkpt lat="48.87099" lon="7.32889">
        <ele>255.807739</ele>
        <time>2010-08-28T08:31:13Z</time>
      </trkpt>
      <trkpt lat="48.87097" lon="7.32879">
        <ele>256.107666</ele>
        <time>2010-08-28T08:31:15Z</time>
      </trkpt>
      <trkpt lat="48.87095" lon="7.32873">
        <ele>254.237427</ele>
        <time>2010-08-28T08:31:16Z</time>
      </trkpt>
      <trkpt lat="48.87094" lon="7.32866">
        <ele>253.850708</ele>
        <time>2010-08-28T08:31:18Z</time>
      </trkpt>
      <trkpt lat="48.87093" lon="7.32858">
        <ele>254.003052</ele>
        <time>2010-08-28T08:31:20Z</time>
      </trkpt>
      <trkpt lat="48.87093" lon="7.32849">
        <ele>253.987427</ele>
        <time>2010-08-28T08:31:22Z</time>
      </trkpt>
      <trkpt lat="48.87091" lon="7.32842">
        <ele>254.182739</ele>
        <time>2010-08-28T08:31:24Z</time>
      </trkpt>
      <trkpt lat="48.87091" lon="7.32835">
        <ele>254.276489</ele>
        <time>2010-08-28T08:31:26Z</time>
      </trkpt>
      <trkpt lat="48.8709" lon="7.32827">
        <ele>254.526489</ele>
        <time>2010-08-28T08:31:28Z</time>
      </trkpt>
      <trkpt lat="48.8709" lon="7.3282">
        <ele>254.756958</ele>
        <time>2010-08-28T08:31:30Z</time>
      </trkpt>
      <trkpt lat="48.87089" lon="7.32812">
        <ele>255.124146</ele>
        <time>2010-08-28T08:31:32Z</time>
      </trkpt>
      <trkpt lat="48.87088" lon="7.32803">
        <ele>255.225708</ele>
        <time>2010-08-28T08:31:34Z</time>
      </trkpt>
      <trkpt lat="48.87088" lon="7.32794">
        <ele>255.678833</ele>
        <time>2010-08-28T08:31:36Z</time>
      </trkpt>
      <trkpt lat="48.87087" lon="7.32784">
        <ele>256.138916</ele>
        <time>2010-08-28T08:31:38Z</time>
      </trkpt>
      <trkpt lat="48.87086" lon="7.32775">
        <ele>255.725708</ele>
        <time>2010-08-28T08:31:40Z</time>
      </trkpt>
      <trkpt lat="48.87083" lon="7.32766">
        <ele>256.131104</ele>
        <time>2010-08-28T08:31:42Z</time>
      </trkpt>
      <trkpt lat="48.87082" lon="7.32756">
        <ele>256.349854</ele>
        <time>2010-08-28T08:31:44Z</time>
      </trkpt>
      <trkpt lat="48.87079" lon="7.32747">
        <ele>256.334229</ele>
        <time>2010-08-28T08:31:46Z</time>
      </trkpt>
      <trkpt lat="48.87078" lon="7.32737">
        <ele>256.115479</ele>
        <time>2010-08-28T08:31:48Z</time>
      </trkpt>
      <trkpt lat="48.87076" lon="7.32727">
        <ele>255.913208</ele>
        <time>2010-08-28T08:31:50Z</time>
      </trkpt>
      <trkpt lat="48.87074" lon="7.32718">
        <ele>255.710083</ele>
        <time>2010-08-28T08:31:52Z</time>
      </trkpt>
      <trkpt lat="48.87074" lon="7.32708">
        <ele>255.393677</ele>
        <time>2010-08-28T08:31:54Z</time>
      </trkpt>
      <trkpt lat="48.87073" lon="7.32699">
        <ele>255.628052</ele>
        <time>2010-08-28T08:31:56Z</time>
      </trkpt>
      <trkpt lat="48.87074" lon="7.32689">
        <ele>255.448364</ele>
        <time>2010-08-28T08:31:58Z</time>
      </trkpt>
      <trkpt lat="48.87075" lon="7.32682">
        <ele>255.885864</ele>
        <time>2010-08-28T08:32:00Z</time>
      </trkpt>
      <trkpt lat="48.87078" lon="7.32672">
        <ele>257.842041</ele>
        <time>2010-08-28T08:32:03Z</time>
      </trkpt>
      <trkpt lat="48.87083" lon="7.32668">
        <ele>259.146729</ele>
        <time>2010-08-28T08:32:06Z</time>
      </trkpt>
      <trkpt lat="48.87085" lon="7.32662">
        <ele>259.756104</ele>
        <time>2010-08-28T08:32:27Z</time>
      </trkpt>
      <trkpt lat="48.87086" lon="7.32656">
        <ele>262.779541</ele>
        <time>2010-08-28T08:32:33Z</time>
      </trkpt>
      <trkpt lat="48.87083" lon="7.32659">
        <ele>264.951416</ele>
        <time>2010-08-28T08:32:42Z</time>
      </trkpt>
      <trkpt lat="48.87078" lon="7.32661">
        <ele>265.396729</ele>
        <time>2010-08-28T08:32:46Z</time>
      </trkpt>
      <trkpt lat="48.87075" lon="7.32668">
        <ele>265.677979</ele>
        <time>2010-08-28T08:33:17Z</time>
      </trkpt>
      <trkpt lat="48.8708" lon="7.32668">
        <ele>266.420166</ele>
        <time>2010-08-28T08:34:01Z</time>
      </trkpt>
      <trkpt lat="48.87085" lon="7.32666">
        <ele>266.756104</ele>
        <time>2010-08-28T08:34:03Z</time>
      </trkpt>
      <trkpt lat="48.87089" lon="7.32665">
        <ele>266.396729</ele>
        <time>2010-08-28T08:34:05Z</time>
      </trkpt>
      <trkpt lat="48.87095" lon="7.32666">
        <ele>265.802979</ele>
        <time>2010-08-28T08:34:07Z</time>
      </trkpt>
      <trkpt lat="48.871" lon="7.32664">
        <ele>264.607666</ele>
        <time>2010-08-28T08:34:09Z</time>
      </trkpt>
      <trkpt lat="48.87104" lon="7.32664">
        <ele>264.834229</ele>
        <time>2010-08-28T08:34:12Z</time>
      </trkpt>
      <trkpt lat="48.87109" lon="7.32665">
        <ele>264.732666</ele>
        <time>2010-08-28T08:34:22Z</time>
      </trkpt>
      <trkpt lat="48.87111" lon="7.32672">
        <ele>265.076416</ele>
        <time>2010-08-28T08:34:28Z</time>
      </trkpt>
      <trkpt lat="48.87117" lon="7.32672">
        <ele>265.623291</ele>
        <time>2010-08-28T08:34:35Z</time>
      </trkpt>
      <trkpt lat="48.8712" lon="7.32674">
        <ele>269.365479</ele>
        <time>2010-08-28T08:34:40Z</time>
      </trkpt>
      <trkpt lat="48.87124" lon="7.32672">
        <ele>271.998291</ele>
        <time>2010-08-28T08:37:26Z</time>
      </trkpt>
      <trkpt lat="48.87128" lon="7.32677">
        <ele>271.967041</ele>
        <time>2010-08-28T08:37:55Z</time>
      </trkpt>
      <trkpt lat="48.87132" lon="7.32687">
        <ele>271.787354</ele>
        <time>2010-08-28T08:37:58Z</time>
      </trkpt>
      <trkpt lat="48.87137" lon="7.32692">
        <ele>271.154541</ele>
        <time>2010-08-28T08:37:59Z</time>
      </trkpt>
      <trkpt lat="48.87141" lon="7.32697">
        <ele>270.607666</ele>
        <time>2010-08-28T08:38:00Z</time>
      </trkpt>
      <trkpt lat="48.87144" lon="7.32705">
        <ele>270.318604</ele>
        <time>2010-08-28T08:38:02Z</time>
      </trkpt>
      <trkpt lat="48.87145" lon="7.32714">
        <ele>270.076416</ele>
        <time>2010-08-28T08:38:05Z</time>
      </trkpt>
      <trkpt lat="48.87149" lon="7.32719">
        <ele>269.006104</ele>
        <time>2010-08-28T08:38:07Z</time>
      </trkpt>
      <trkpt lat="48.87154" lon="7.32727">
        <ele>268.146729</ele>
        <time>2010-08-28T08:38:09Z</time>
      </trkpt>
      <trkpt lat="48.87159" lon="7.32734">
        <ele>266.888916</ele>
        <time>2010-08-28T08:38:11Z</time>
      </trkpt>
      <trkpt lat="48.87164" lon="7.32741">
        <ele>265.490479</ele>
        <time>2010-08-28T08:38:13Z</time>
      </trkpt>
      <trkpt lat="48.8717" lon="7.32746">
        <ele>264.568604</ele>
        <time>2010-08-28T08:38:15Z</time>
      </trkpt>
      <trkpt lat="48.87174" lon="7.32752">
        <ele>263.412354</ele>
        <time>2010-08-28T08:38:17Z</time>
      </trkpt>
      <trkpt lat="48.87178" lon="7.3276">
        <ele>261.756104</ele>
        <time>2010-08-28T08:38:20Z</time>
      </trkpt>
      <trkpt lat="48.87182" lon="7.32768">
        <ele>259.857666</ele>
        <time>2010-08-28T08:38:23Z</time>
      </trkpt>
      <trkpt lat="48.87185" lon="7.32773">
        <ele>258.943604</ele>
        <time>2010-08-28T08:38:25Z</time>
      </trkpt>
      <trkpt lat="48.87187" lon="7.3278">
        <ele>256.810791</ele>
        <time>2010-08-28T08:38:28Z</time>
      </trkpt>
      <trkpt lat="48.87191" lon="7.32783">
        <ele>254.276489</ele>
        <time>2010-08-28T08:38:31Z</time>
      </trkpt>
      <trkpt lat="48.87196" lon="7.32788">
        <ele>251.424927</ele>
        <time>2010-08-28T08:38:34Z</time>
      </trkpt>
      <trkpt lat="48.87199" lon="7.32793">
        <ele>248.671021</ele>
        <time>2010-08-28T08:38:37Z</time>
      </trkpt>
      <trkpt lat="48.87202" lon="7.32797">
        <ele>246.006958</ele>
        <time>2010-08-28T08:38:39Z</time>
      </trkpt>
      <trkpt lat="48.87206" lon="7.32803">
        <ele>244.503052</ele>
        <time>2010-08-28T08:38:42Z</time>
      </trkpt>
      <trkpt lat="48.87209" lon="7.32811">
        <ele>244.260864</ele>
        <time>2010-08-28T08:38:44Z</time>
      </trkpt>
      <trkpt lat="48.87213" lon="7.32814">
        <ele>242.522583</ele>
        <time>2010-08-28T08:38:46Z</time>
      </trkpt>
      <trkpt lat="48.87216" lon="7.3282">
        <ele>240.358521</ele>
        <time>2010-08-28T08:38:49Z</time>
      </trkpt>
      <trkpt lat="48.87216" lon="7.32827">
        <ele>240.026489</ele>
        <time>2010-08-28T08:38:51Z</time>
      </trkpt>
      <trkpt lat="48.8722" lon="7.32833">
        <ele>239.213989</ele>
        <time>2010-08-28T08:38:53Z</time>
      </trkpt>
      <trkpt lat="48.87222" lon="7.32841">
        <ele>237.514771</ele>
        <time>2010-08-28T08:38:56Z</time>
      </trkpt>
      <trkpt lat="48.87225" lon="7.32848">
        <ele>234.510864</ele>
        <time>2010-08-28T08:38:59Z</time>
      </trkpt>
      <trkpt lat="48.87228" lon="7.32856">
        <ele>233.167114</ele>
        <time>2010-08-28T08:39:02Z</time>
      </trkpt>
      <trkpt lat="48.87233" lon="7.32862">
        <ele>230.788208</ele>
        <time>2010-08-28T08:39:05Z</time>
      </trkpt>
      <trkpt lat="48.87236" lon="7.32868">
        <ele>229.487427</ele>
        <time>2010-08-28T08:39:07Z</time>
      </trkpt>
      <trkpt lat="48.87239" lon="7.32875">
        <ele>227.686646</ele>
        <time>2010-08-28T08:39:10Z</time>
      </trkpt>
      <trkpt lat="48.87244" lon="7.3288">
        <ele>226.280396</ele>
        <time>2010-08-28T08:39:12Z</time>
      </trkpt>
      <trkpt lat="48.87246" lon="7.32887">
        <ele>224.065552</ele>
        <time>2010-08-28T08:39:16Z</time>
      </trkpt>
      <trkpt lat="48.87249" lon="7.32894">
        <ele>222.581177</ele>
        <time>2010-08-28T08:39:19Z</time>
      </trkpt>
      <trkpt lat="48.87251" lon="7.329">
        <ele>223.979614</ele>
        <time>2010-08-28T08:39:23Z</time>
      </trkpt>
      <trkpt lat="48.87256" lon="7.32901">
        <ele>223.991333</ele>
        <time>2010-08-28T08:39:30Z</time>
      </trkpt>
      <trkpt lat="48.87257" lon="7.32905">
        <ele>228.046021</ele>
        <time>2010-08-28T08:40:12Z</time>
      </trkpt>
      <trkpt lat="48.87258" lon="7.32908">
        <ele>233.303833</ele>
        <time>2010-08-28T08:40:21Z</time>
      </trkpt>
      <trkpt lat="48.8726" lon="7.32911">
        <ele>237.452271</ele>
        <time>2010-08-28T08:40:30Z</time>
      </trkpt>
      <trkpt lat="48.87257" lon="7.32914">
        <ele>241.713989</ele>
        <time>2010-08-28T08:40:51Z</time>
      </trkpt>
      <trkpt lat="48.87256" lon="7.32915">
        <ele>248.604614</ele>
        <time>2010-08-28T08:42:17Z</time>
      </trkpt>
      <trkpt lat="48.87261" lon="7.32916">
        <ele>251.588989</ele>
        <time>2010-08-28T08:42:20Z</time>
      </trkpt>
      <trkpt lat="48.87265" lon="7.3292">
        <ele>251.846802</ele>
        <time>2010-08-28T08:42:24Z</time>
      </trkpt>
      <trkpt lat="48.8727" lon="7.32927">
        <ele>251.202271</ele>
        <time>2010-08-28T08:42:35Z</time>
      </trkpt>
      <trkpt lat="48.87272" lon="7.32934">
        <ele>250.991333</ele>
        <time>2010-08-28T08:42:38Z</time>
      </trkpt>
      <trkpt lat="48.87273" lon="7.32942">
        <ele>249.885864</ele>
        <time>2010-08-28T08:42:41Z</time>
      </trkpt>
      <trkpt lat="48.87278" lon="7.32947">
        <ele>248.163208</ele>
        <time>2010-08-28T08:42:44Z</time>
      </trkpt>
      <trkpt lat="48.87281" lon="7.32954">
        <ele>246.397583</ele>
        <time>2010-08-28T08:42:48Z</time>
      </trkpt>
      <trkpt lat="48.87284" lon="7.32958">
        <ele>244.241333</ele>
        <time>2010-08-28T08:42:51Z</time>
      </trkpt>
      <trkpt lat="48.87286" lon="7.32965">
        <ele>242.823364</ele>
        <time>2010-08-28T08:42:54Z</time>
      </trkpt>
      <trkpt lat="48.87287" lon="7.32971">
        <ele>242.065552</ele>
        <time>2010-08-28T08:42:56Z</time>
      </trkpt>
      <trkpt lat="48.87289" lon="7.32979">
        <ele>241.381958</ele>
        <time>2010-08-28T08:42:59Z</time>
      </trkpt>
      <trkpt lat="48.87292" lon="7.32987">
        <ele>238.956177</ele>
        <time>2010-08-28T08:43:03Z</time>
      </trkpt>
      <trkpt lat="48.87296" lon="7.32992">
        <ele>237.424927</ele>
        <time>2010-08-28T08:43:06Z</time>
      </trkpt>
      <trkpt lat="48.87299" lon="7.32996">
        <ele>238.092896</ele>
        <time>2010-08-28T08:43:08Z</time>
      </trkpt>
      <trkpt lat="48.87302" lon="7.33002">
        <ele>238.362427</ele>
        <time>2010-08-28T08:43:10Z</time>
      </trkpt>
      <trkpt lat="48.87305" lon="7.33007">
        <ele>240.542114</ele>
        <time>2010-08-28T08:43:11Z</time>
      </trkpt>
      <trkpt lat="48.87308" lon="7.33011">
        <ele>241.280396</ele>
        <time>2010-08-28T08:43:14Z</time>
      </trkpt>
      <trkpt lat="48.87312" lon="7.33017">
        <ele>241.671021</ele>
        <time>2010-08-28T08:43:16Z</time>
      </trkpt>
      <trkpt lat="48.87313" lon="7.33023">
        <ele>243.245239</ele>
        <time>2010-08-28T08:43:18Z</time>
      </trkpt>
      <trkpt lat="48.87315" lon="7.3303">
        <ele>244.889771</ele>
        <time>2010-08-28T08:43:20Z</time>
      </trkpt>
      <trkpt lat="48.87318" lon="7.33035">
        <ele>245.096802</ele>
        <time>2010-08-28T08:43:22Z</time>
      </trkpt>
      <trkpt lat="48.87321" lon="7.33041">
        <ele>245.448364</ele>
        <time>2010-08-28T08:43:24Z</time>
      </trkpt>
      <trkpt lat="48.87323" lon="7.33047">
        <ele>247.389771</ele>
        <time>2010-08-28T08:43:26Z</time>
      </trkpt>
      <trkpt lat="48.87326" lon="7.33051">
        <ele>249.600708</ele>
        <time>2010-08-28T08:43:28Z</time>
      </trkpt>
      <trkpt lat="48.87328" lon="7.33057">
        <ele>251.987427</ele>
        <time>2010-08-28T08:43:29Z</time>
      </trkpt>
      <trkpt lat="48.87332" lon="7.33061">
        <ele>254.378052</ele>
        <time>2010-08-28T08:43:31Z</time>
      </trkpt>
      <trkpt lat="48.87334" lon="7.33066">
        <ele>257.302979</ele>
        <time>2010-08-28T08:43:32Z</time>
      </trkpt>
      <trkpt lat="48.87338" lon="7.33074">
        <ele>258.506104</ele>
        <time>2010-08-28T08:43:36Z</time>
      </trkpt>
      <trkpt lat="48.8734" lon="7.3308">
        <ele>257.599854</ele>
        <time>2010-08-28T08:43:40Z</time>
      </trkpt>
      <trkpt lat="48.87343" lon="7.33089">
        <ele>258.474854</ele>
        <time>2010-08-28T08:43:44Z</time>
      </trkpt>
      <trkpt lat="48.87346" lon="7.33095">
        <ele>258.560791</ele>
        <time>2010-08-28T08:43:47Z</time>
      </trkpt>
      <trkpt lat="48.8735" lon="7.33101">
        <ele>260.209229</ele>
        <time>2010-08-28T08:43:50Z</time>
      </trkpt>
      <trkpt lat="48.87354" lon="7.33108">
        <ele>258.857666</ele>
        <time>2010-08-28T08:43:53Z</time>
      </trkpt>
      <trkpt lat="48.87357" lon="7.33114">
        <ele>257.138916</ele>
        <time>2010-08-28T08:43:56Z</time>
      </trkpt>
      <trkpt lat="48.8736" lon="7.33122">
        <ele>255.803833</ele>
        <time>2010-08-28T08:43:59Z</time>
      </trkpt>
      <trkpt lat="48.87364" lon="7.33129">
        <ele>254.428833</ele>
        <time>2010-08-28T08:44:02Z</time>
      </trkpt>
      <trkpt lat="48.87367" lon="7.33135">
        <ele>254.362427</ele>
        <time>2010-08-28T08:44:04Z</time>
      </trkpt>
      <trkpt lat="48.8737" lon="7.3314">
        <ele>253.331177</ele>
        <time>2010-08-28T08:44:07Z</time>
      </trkpt>
      <trkpt lat="48.87376" lon="7.33147">
        <ele>255.292114</ele>
        <time>2010-08-28T08:44:10Z</time>
      </trkpt>
      <trkpt lat="48.8738" lon="7.3315">
        <ele>256.537354</ele>
        <time>2010-08-28T08:44:11Z</time>
      </trkpt>
      <trkpt lat="48.87384" lon="7.33154">
        <ele>259.092041</ele>
        <time>2010-08-28T08:44:13Z</time>
      </trkpt>
      <trkpt lat="48.87392" lon="7.33158">
        <ele>261.107666</ele>
        <time>2010-08-28T08:44:15Z</time>
      </trkpt>
      <trkpt lat="48.87396" lon="7.33166">
        <ele>262.396729</ele>
        <time>2010-08-28T08:44:18Z</time>
      </trkpt>
      <trkpt lat="48.874" lon="7.3317">
        <ele>262.795166</ele>
        <time>2010-08-28T08:44:20Z</time>
      </trkpt>
      <trkpt lat="48.87407" lon="7.33173">
        <ele>264.037354</ele>
        <time>2010-08-28T08:44:22Z</time>
      </trkpt>
      <trkpt lat="48.87411" lon="7.33175">
        <ele>266.209229</ele>
        <time>2010-08-28T08:44:24Z</time>
      </trkpt>
      <trkpt lat="48.87416" lon="7.33176">
        <ele>268.123291</ele>
        <time>2010-08-28T08:44:27Z</time>
      </trkpt>
      <trkpt lat="48.87421" lon="7.33176">
        <ele>272.404541</ele>
        <time>2010-08-28T08:44:30Z</time>
      </trkpt>
      <trkpt lat="48.87426" lon="7.33177">
        <ele>279.513916</ele>
        <time>2010-08-28T08:44:33Z</time>
      </trkpt>
      <trkpt lat="48.87431" lon="7.33177">
        <ele>282.685791</ele>
        <time>2010-08-28T08:44:36Z</time>
      </trkpt>
      <trkpt lat="48.87433" lon="7.3318">
        <ele>287.162354</ele>
        <time>2010-08-28T08:44:38Z</time>
      </trkpt>
      <trkpt lat="48.87435" lon="7.33176">
        <ele>291.834229</ele>
        <time>2010-08-28T08:48:00Z</time>
      </trkpt>
      <trkpt lat="48.87439" lon="7.3317">
        <ele>292.342041</ele>
        <time>2010-08-28T08:48:03Z</time>
      </trkpt>
      <trkpt lat="48.87443" lon="7.33165">
        <ele>293.052979</ele>
        <time>2010-08-28T08:48:06Z</time>
      </trkpt>
      <trkpt lat="48.87447" lon="7.3316">
        <ele>293.092041</ele>
        <time>2010-08-28T08:48:09Z</time>
      </trkpt>
      <trkpt lat="48.87452" lon="7.33157">
        <ele>292.693604</ele>
        <time>2010-08-28T08:48:12Z</time>
      </trkpt>
      <trkpt lat="48.87458" lon="7.33152">
        <ele>293.513916</ele>
        <time>2010-08-28T08:48:15Z</time>
      </trkpt>
      <trkpt lat="48.87464" lon="7.3315">
        <ele>293.849854</ele>
        <time>2010-08-28T08:48:18Z</time>
      </trkpt>
      <trkpt lat="48.8747" lon="7.3315">
        <ele>296.295166</ele>
        <time>2010-08-28T08:48:21Z</time>
      </trkpt>
      <trkpt lat="48.87475" lon="7.33148">
        <ele>299.006104</ele>
        <time>2010-08-28T08:48:25Z</time>
      </trkpt>
      <trkpt lat="48.8748" lon="7.33148">
        <ele>298.427979</ele>
        <time>2010-08-28T08:48:27Z</time>
      </trkpt>
      <trkpt lat="48.87486" lon="7.33145">
        <ele>299.654541</ele>
        <time>2010-08-28T08:48:30Z</time>
      </trkpt>
      <trkpt lat="48.8749" lon="7.33139">
        <ele>299.693604</ele>
        <time>2010-08-28T08:48:33Z</time>
      </trkpt>
      <trkpt lat="48.87492" lon="7.33133">
        <ele>301.006104</ele>
        <time>2010-08-28T08:48:36Z</time>
      </trkpt>
      <trkpt lat="48.87494" lon="7.33125">
        <ele>301.365479</ele>
        <time>2010-08-28T08:48:39Z</time>
      </trkpt>
      <trkpt lat="48.87494" lon="7.33117">
        <ele>300.474854</ele>
        <time>2010-08-28T08:48:43Z</time>
      </trkpt>
      <trkpt lat="48.87495" lon="7.33109">
        <ele>299.568604</ele>
        <time>2010-08-28T08:48:46Z</time>
      </trkpt>
      <trkpt lat="48.87495" lon="7.33102">
        <ele>299.818604</ele>
        <time>2010-08-28T08:48:49Z</time>
      </trkpt>
      <trkpt lat="48.87496" lon="7.33094">
        <ele>299.474854</ele>
        <time>2010-08-28T08:48:52Z</time>
      </trkpt>
      <trkpt lat="48.87497" lon="7.33087">
        <ele>300.787354</ele>
        <time>2010-08-28T08:48:54Z</time>
      </trkpt>
      <trkpt lat="48.87498" lon="7.33079">
        <ele>301.857666</ele>
        <time>2010-08-28T08:48:56Z</time>
      </trkpt>
      <trkpt lat="48.87499" lon="7.33072">
        <ele>302.232666</ele>
        <time>2010-08-28T08:48:58Z</time>
      </trkpt>
      <trkpt lat="48.875" lon="7.33065">
        <ele>303.154541</ele>
        <time>2010-08-28T08:49:00Z</time>
      </trkpt>
      <trkpt lat="48.875" lon="7.33058">
        <ele>304.084229</ele>
        <time>2010-08-28T08:49:02Z</time>
      </trkpt>
      <trkpt lat="48.87502" lon="7.3305">
        <ele>304.670166</ele>
        <time>2010-08-28T08:49:04Z</time>
      </trkpt>
      <trkpt lat="48.87502" lon="7.33043">
        <ele>305.302979</ele>
        <time>2010-08-28T08:49:06Z</time>
      </trkpt>
      <trkpt lat="48.87501" lon="7.33033">
        <ele>305.967041</ele>
        <time>2010-08-28T08:49:09Z</time>
      </trkpt>
      <trkpt lat="48.875" lon="7.33025">
        <ele>306.927979</ele>
        <time>2010-08-28T08:49:13Z</time>
      </trkpt>
      <trkpt lat="48.875" lon="7.33016">
        <ele>308.396729</ele>
        <time>2010-08-28T08:49:18Z</time>
      </trkpt>
      <trkpt lat="48.87499" lon="7.33023">
        <ele>306.279541</ele>
        <time>2010-08-28T08:49:33Z</time>
      </trkpt>
      <trkpt lat="48.875" lon="7.33027">
        <ele>302.498291</ele>
        <time>2010-08-28T08:49:38Z</time>
      </trkpt>
      <trkpt lat="48.87496" lon="7.33028">
        <ele>302.349854</ele>
        <time>2010-08-28T08:49:55Z</time>
      </trkpt>
      <trkpt lat="48.87499" lon="7.33022">
        <ele>303.654541</ele>
        <time>2010-08-28T08:50:28Z</time>
      </trkpt>
      <trkpt lat="48.87502" lon="7.33017">
        <ele>303.709229</ele>
        <time>2010-08-28T08:50:30Z</time>
      </trkpt>
      <trkpt lat="48.87505" lon="7.33012">
        <ele>303.654541</ele>
        <time>2010-08-28T08:50:32Z</time>
      </trkpt>
      <trkpt lat="48.87508" lon="7.33005">
        <ele>302.459229</ele>
        <time>2010-08-28T08:50:34Z</time>
      </trkpt>
      <trkpt lat="48.87511" lon="7.32999">
        <ele>301.834229</ele>
        <time>2010-08-28T08:50:36Z</time>
      </trkpt>
      <trkpt lat="48.87515" lon="7.32993">
        <ele>301.584229</ele>
        <time>2010-08-28T08:50:38Z</time>
      </trkpt>
      <trkpt lat="48.87519" lon="7.32987">
        <ele>301.068604</ele>
        <time>2010-08-28T08:50:40Z</time>
      </trkpt>
      <trkpt lat="48.87522" lon="7.32983">
        <ele>300.787354</ele>
        <time>2010-08-28T08:50:42Z</time>
      </trkpt>
      <trkpt lat="48.87527" lon="7.32979">
        <ele>300.052979</ele>
        <time>2010-08-28T08:50:44Z</time>
      </trkpt>
      <trkpt lat="48.87532" lon="7.32975">
        <ele>299.709229</ele>
        <time>2010-08-28T08:50:46Z</time>
      </trkpt>
      <trkpt lat="48.87537" lon="7.32973">
        <ele>299.677979</ele>
        <time>2010-08-28T08:50:48Z</time>
      </trkpt>
      <trkpt lat="48.87542" lon="7.32971">
        <ele>299.482666</ele>
        <time>2010-08-28T08:50:50Z</time>
      </trkpt>
      <trkpt lat="48.87547" lon="7.32972">
        <ele>298.709229</ele>
        <time>2010-08-28T08:50:52Z</time>
      </trkpt>
      <trkpt lat="48.87552" lon="7.32974">
        <ele>298.013916</ele>
        <time>2010-08-28T08:50:54Z</time>
      </trkpt>
      <trkpt lat="48.87558" lon="7.32979">
        <ele>296.951416</ele>
        <time>2010-08-28T08:50:57Z</time>
      </trkpt>
      <trkpt lat="48.87564" lon="7.32985">
        <ele>295.537354</ele>
        <time>2010-08-28T08:50:59Z</time>
      </trkpt>
      <trkpt lat="48.87569" lon="7.32992">
        <ele>295.435791</ele>
        <time>2010-08-28T08:51:01Z</time>
      </trkpt>
      <trkpt lat="48.87574" lon="7.32999">
        <ele>294.810791</ele>
        <time>2010-08-28T08:51:03Z</time>
      </trkpt>
      <trkpt lat="48.87578" lon="7.33004">
        <ele>294.349854</ele>
        <time>2010-08-28T08:51:05Z</time>
      </trkpt>
      <trkpt lat="48.87582" lon="7.33009">
        <ele>293.802979</ele>
        <time>2010-08-28T08:51:07Z</time>
      </trkpt>
      <trkpt lat="48.87587" lon="7.33012">
        <ele>293.920166</ele>
        <time>2010-08-28T08:51:09Z</time>
      </trkpt>
      <trkpt lat="48.87592" lon="7.33007">
        <ele>292.881104</ele>
        <time>2010-08-28T08:51:11Z</time>
      </trkpt>
      <trkpt lat="48.87598" lon="7.33003">
        <ele>294.599854</ele>
        <time>2010-08-28T08:51:13Z</time>
      </trkpt>
      <trkpt lat="48.87603" lon="7.32995">
        <ele>298.146729</ele>
        <time>2010-08-28T08:51:15Z</time>
      </trkpt>
      <trkpt lat="48.87606" lon="7.32983">
        <ele>298.537354</ele>
        <time>2010-08-28T08:51:17Z</time>
      </trkpt>
      <trkpt lat="48.87608" lon="7.32971">
        <ele>299.037354</ele>
        <time>2010-08-28T08:51:19Z</time>
      </trkpt>
      <trkpt lat="48.8761" lon="7.32959">
        <ele>299.349854</ele>
        <time>2010-08-28T08:51:21Z</time>
      </trkpt>
      <trkpt lat="48.87613" lon="7.32946">
        <ele>298.677979</ele>
        <time>2010-08-28T08:51:23Z</time>
      </trkpt>
      <trkpt lat="48.87617" lon="7.32935">
        <ele>299.373291</ele>
        <time>2010-08-28T08:51:25Z</time>
      </trkpt>
      <trkpt lat="48.87622" lon="7.32924">
        <ele>300.474854</ele>
        <time>2010-08-28T08:51:27Z</time>
      </trkpt>
      <trkpt lat="48.87627" lon="7.32916">
        <ele>300.396729</ele>
        <time>2010-08-28T08:51:29Z</time>
      </trkpt>
      <trkpt lat="48.87631" lon="7.32911">
        <ele>299.943604</ele>
        <time>2010-08-28T08:51:30Z</time>
      </trkpt>
      <trkpt lat="48.87635" lon="7.32904">
        <ele>299.974854</ele>
        <time>2010-08-28T08:51:32Z</time>
      </trkpt>
      <trkpt lat="48.87639" lon="7.32896">
        <ele>300.607666</ele>
        <time>2010-08-28T08:51:34Z</time>
      </trkpt>
      <trkpt lat="48.87642" lon="7.32889">
        <ele>300.662354</ele>
        <time>2010-08-28T08:55:38Z</time>
      </trkpt>
      <trkpt lat="48.87647" lon="7.32886">
        <ele>299.740479</ele>
        <time>2010-08-28T08:55:41Z</time>
      </trkpt>
      <trkpt lat="48.8765" lon="7.3288">
        <ele>299.029541</ele>
        <time>2010-08-28T08:55:43Z</time>
      </trkpt>
      <trkpt lat="48.87655" lon="7.32873">
        <ele>298.006104</ele>
        <time>2010-08-28T08:55:45Z</time>
      </trkpt>
      <trkpt lat="48.8766" lon="7.32867">
        <ele>297.623291</ele>
        <time>2010-08-28T08:55:47Z</time>
      </trkpt>
      <trkpt lat="48.87662" lon="7.32862">
        <ele>296.498291</ele>
        <time>2010-08-28T08:55:49Z</time>
      </trkpt>
      <trkpt lat="48.87667" lon="7.32855">
        <ele>296.084229</ele>
        <time>2010-08-28T08:55:51Z</time>
      </trkpt>
      <trkpt lat="48.87671" lon="7.32848">
        <ele>295.467041</ele>
        <time>2010-08-28T08:55:53Z</time>
      </trkpt>
      <trkpt lat="48.87676" lon="7.32841">
        <ele>295.232666</ele>
        <time>2010-08-28T08:55:55Z</time>
      </trkpt>
      <trkpt lat="48.8768" lon="7.32833">
        <ele>295.334229</ele>
        <time>2010-08-28T08:55:57Z</time>
      </trkpt>
      <trkpt lat="48.87685" lon="7.32822">
        <ele>294.927979</ele>
        <time>2010-08-28T08:55:59Z</time>
      </trkpt>
      <trkpt lat="48.87686" lon="7.32812">
        <ele>294.271729</ele>
        <time>2010-08-28T08:56:01Z</time>
      </trkpt>
      <trkpt lat="48.87688" lon="7.32802">
        <ele>293.435791</ele>
        <time>2010-08-28T08:56:03Z</time>
      </trkpt>
      <trkpt lat="48.8769" lon="7.32793">
        <ele>293.279541</ele>
        <time>2010-08-28T08:56:05Z</time>
      </trkpt>
      <trkpt lat="48.87691" lon="7.32784">
        <ele>291.498291</ele>
        <time>2010-08-28T08:56:07Z</time>
      </trkpt>
      <trkpt lat="48.87692" lon="7.32776">
        <ele>290.451416</ele>
        <time>2010-08-28T08:56:09Z</time>
      </trkpt>
      <trkpt lat="48.8769" lon="7.32766">
        <ele>289.185791</ele>
        <time>2010-08-28T08:56:11Z</time>
      </trkpt>
      <trkpt lat="48.87689" lon="7.32755">
        <ele>288.185791</ele>
        <time>2010-08-28T08:56:13Z</time>
      </trkpt>
      <trkpt lat="48.87689" lon="7.32745">
        <ele>287.060791</ele>
        <time>2010-08-28T08:56:15Z</time>
      </trkpt>
      <trkpt lat="48.87687" lon="7.32734">
        <ele>286.045166</ele>
        <time>2010-08-28T08:56:17Z</time>
      </trkpt>
      <trkpt lat="48.87687" lon="7.32727">
        <ele>285.435791</ele>
        <time>2010-08-28T08:56:18Z</time>
      </trkpt>
      <trkpt lat="48.87685" lon="7.32717">
        <ele>286.826416</ele>
        <time>2010-08-28T08:56:19Z</time>
      </trkpt>
      <trkpt lat="48.87684" lon="7.32707">
        <ele>285.748291</ele>
        <time>2010-08-28T08:56:21Z</time>
      </trkpt>
      <trkpt lat="48.87683" lon="7.32697">
        <ele>284.560791</ele>
        <time>2010-08-28T08:56:23Z</time>
      </trkpt>
      <trkpt lat="48.87684" lon="7.32688">
        <ele>283.545166</ele>
        <time>2010-08-28T08:56:25Z</time>
      </trkpt>
      <trkpt lat="48.87685" lon="7.32677">
        <ele>282.881104</ele>
        <time>2010-08-28T08:56:27Z</time>
      </trkpt>
      <trkpt lat="48.87685" lon="7.3267">
        <ele>282.638916</ele>
        <time>2010-08-28T08:56:29Z</time>
      </trkpt>
      <trkpt lat="48.87684" lon="7.32659">
        <ele>283.052979</ele>
        <time>2010-08-28T08:56:31Z</time>
      </trkpt>
      <trkpt lat="48.87681" lon="7.3265">
        <ele>284.732666</ele>
        <time>2010-08-28T08:56:32Z</time>
      </trkpt>
      <trkpt lat="48.87679" lon="7.3264">
        <ele>283.990479</ele>
        <time>2010-08-28T08:56:34Z</time>
      </trkpt>
      <trkpt lat="48.87678" lon="7.32629">
        <ele>282.990479</ele>
        <time>2010-08-28T08:56:36Z</time>
      </trkpt>
      <trkpt lat="48.87679" lon="7.3262">
        <ele>281.865479</ele>
        <time>2010-08-28T08:56:38Z</time>
      </trkpt>
      <trkpt lat="48.87679" lon="7.3261">
        <ele>281.615479</ele>
        <time>2010-08-28T08:56:40Z</time>
      </trkpt>
      <trkpt lat="48.8768" lon="7.32599">
        <ele>282.138916</ele>
        <time>2010-08-28T08:56:42Z</time>
      </trkpt>
      <trkpt lat="48.87681" lon="7.32589">
        <ele>281.662354</ele>
        <time>2010-08-28T08:56:44Z</time>
      </trkpt>
      <trkpt lat="48.87684" lon="7.32578">
        <ele>281.302979</ele>
        <time>2010-08-28T08:56:46Z</time>
      </trkpt>
      <trkpt lat="48.87686" lon="7.32569">
        <ele>280.427979</ele>
        <time>2010-08-28T08:56:48Z</time>
      </trkpt>
      <trkpt lat="48.87689" lon="7.32564">
        <ele>280.529541</ele>
        <time>2010-08-28T08:56:50Z</time>
      </trkpt>
      <trkpt lat="48.87687" lon="7.32553">
        <ele>283.927979</ele>
        <time>2010-08-28T08:56:53Z</time>
      </trkpt>
      <trkpt lat="48.87687" lon="7.32547">
        <ele>286.357666</ele>
        <time>2010-08-28T08:56:57Z</time>
      </trkpt>
      <trkpt lat="48.87692" lon="7.32549">
        <ele>287.279541</ele>
        <time>2010-08-28T08:58:14Z</time>
      </trkpt>
      <trkpt lat="48.87696" lon="7.32551">
        <ele>289.685791</ele>
        <time>2010-08-28T09:00:49Z</time>
      </trkpt>
      <trkpt lat="48.877" lon="7.32557">
        <ele>289.217041</ele>
        <time>2010-08-28T09:00:53Z</time>
      </trkpt>
      <trkpt lat="48.87701" lon="7.32565">
        <ele>288.670166</ele>
        <time>2010-08-28T09:00:56Z</time>
      </trkpt>
      <trkpt lat="48.87704" lon="7.32573">
        <ele>287.881104</ele>
        <time>2010-08-28T09:00:59Z</time>
      </trkpt>
      <trkpt lat="48.87708" lon="7.32578">
        <ele>287.076416</ele>
        <time>2010-08-28T09:01:01Z</time>
      </trkpt>
      <trkpt lat="48.87713" lon="7.32585">
        <ele>286.302979</ele>
        <time>2010-08-28T09:01:03Z</time>
      </trkpt>
      <trkpt lat="48.87716" lon="7.3259">
        <ele>285.420166</ele>
        <time>2010-08-28T09:01:05Z</time>
      </trkpt>
      <trkpt lat="48.87721" lon="7.32596">
        <ele>283.865479</ele>
        <time>2010-08-28T09:01:07Z</time>
      </trkpt>
      <trkpt lat="48.87726" lon="7.32604">
        <ele>282.888916</ele>
        <time>2010-08-28T09:01:09Z</time>
      </trkpt>
      <trkpt lat="48.87731" lon="7.32612">
        <ele>282.154541</ele>
        <time>2010-08-28T09:01:11Z</time>
      </trkpt>
      <trkpt lat="48.87734" lon="7.32621">
        <ele>281.677979</ele>
        <time>2010-08-28T09:01:13Z</time>
      </trkpt>
      <trkpt lat="48.87738" lon="7.32631">
        <ele>281.115479</ele>
        <time>2010-08-28T09:01:15Z</time>
      </trkpt>
      <trkpt lat="48.8774" lon="7.3264">
        <ele>280.263916</ele>
        <time>2010-08-28T09:01:17Z</time>
      </trkpt>
      <trkpt lat="48.8774" lon="7.32647">
        <ele>279.982666</ele>
        <time>2010-08-28T09:01:18Z</time>
      </trkpt>
      <trkpt lat="48.87739" lon="7.32655">
        <ele>279.576416</ele>
        <time>2010-08-28T09:01:19Z</time>
      </trkpt>
      <trkpt lat="48.87741" lon="7.32666">
        <ele>278.623291</ele>
        <time>2010-08-28T09:01:21Z</time>
      </trkpt>
      <trkpt lat="48.87742" lon="7.32675">
        <ele>278.279541</ele>
        <time>2010-08-28T09:01:22Z</time>
      </trkpt>
      <trkpt lat="48.87741" lon="7.32682">
        <ele>277.834229</ele>
        <time>2010-08-28T09:01:23Z</time>
      </trkpt>
      <trkpt lat="48.87737" lon="7.32698">
        <ele>276.498291</ele>
        <time>2010-08-28T09:01:25Z</time>
      </trkpt>
      <trkpt lat="48.87737" lon="7.32706">
        <ele>275.795166</ele>
        <time>2010-08-28T09:01:26Z</time>
      </trkpt>
      <trkpt lat="48.87735" lon="7.32713">
        <ele>275.107666</ele>
        <time>2010-08-28T09:01:27Z</time>
      </trkpt>
      <trkpt lat="48.87737" lon="7.3272">
        <ele>274.740479</ele>
        <time>2010-08-28T09:01:28Z</time>
      </trkpt>
      <trkpt lat="48.87732" lon="7.3273">
        <ele>274.076416</ele>
        <time>2010-08-28T09:01:29Z</time>
      </trkpt>
      <trkpt lat="48.87729" lon="7.32739">
        <ele>273.381104</ele>
        <time>2010-08-28T09:01:30Z</time>
      </trkpt>
      <trkpt lat="48.87725" lon="7.32746">
        <ele>272.623291</ele>
        <time>2010-08-28T09:01:31Z</time>
      </trkpt>
      <trkpt lat="48.87723" lon="7.32752">
        <ele>271.779541</ele>
        <time>2010-08-28T09:01:32Z</time>
      </trkpt>
      <trkpt lat="48.87723" lon="7.32758">
        <ele>269.967041</ele>
        <time>2010-08-28T09:01:34Z</time>
      </trkpt>
      <trkpt lat="48.87723" lon="7.32767">
        <ele>269.138916</ele>
        <time>2010-08-28T09:01:35Z</time>
      </trkpt>
      <trkpt lat="48.87732" lon="7.32774">
        <ele>268.279541</ele>
        <time>2010-08-28T09:01:36Z</time>
      </trkpt>
      <trkpt lat="48.87732" lon="7.32782">
        <ele>266.498291</ele>
        <time>2010-08-28T09:01:38Z</time>
      </trkpt>
      <trkpt lat="48.87733" lon="7.32801">
        <ele>265.709229</ele>
        <time>2010-08-28T09:01:39Z</time>
      </trkpt>
      <trkpt lat="48.87734" lon="7.32812">
        <ele>264.857666</ele>
        <time>2010-08-28T09:01:40Z</time>
      </trkpt>
      <trkpt lat="48.87737" lon="7.32827">
        <ele>262.982666</ele>
        <time>2010-08-28T09:01:42Z</time>
      </trkpt>
      <trkpt lat="48.87736" lon="7.32837">
        <ele>262.193604</ele>
        <time>2010-08-28T09:01:43Z</time>
      </trkpt>
      <trkpt lat="48.87734" lon="7.32847">
        <ele>261.412354</ele>
        <time>2010-08-28T09:01:44Z</time>
      </trkpt>
      <trkpt lat="48.8774" lon="7.32866">
        <ele>260.279541</ele>
        <time>2010-08-28T09:01:45Z</time>
      </trkpt>
      <trkpt lat="48.87743" lon="7.32876">
        <ele>259.349854</ele>
        <time>2010-08-28T09:01:46Z</time>
      </trkpt>
      <trkpt lat="48.87744" lon="7.32884">
        <ele>258.701416</ele>
        <time>2010-08-28T09:01:47Z</time>
      </trkpt>
      <trkpt lat="48.87747" lon="7.32889">
        <ele>258.131104</ele>
        <time>2010-08-28T09:01:48Z</time>
      </trkpt>
      <trkpt lat="48.87745" lon="7.32898">
        <ele>257.631104</ele>
        <time>2010-08-28T09:01:49Z</time>
      </trkpt>
      <trkpt lat="48.87746" lon="7.32915">
        <ele>257.404541</ele>
        <time>2010-08-28T09:01:50Z</time>
      </trkpt>
      <trkpt lat="48.87744" lon="7.32934">
        <ele>256.513916</ele>
        <time>2010-08-28T09:01:51Z</time>
      </trkpt>
      <trkpt lat="48.87742" lon="7.32943">
        <ele>255.315552</ele>
        <time>2010-08-28T09:01:52Z</time>
      </trkpt>
      <trkpt lat="48.8774" lon="7.3295">
        <ele>254.522583</ele>
        <time>2010-08-28T09:01:53Z</time>
      </trkpt>
      <trkpt lat="48.87741" lon="7.3296">
        <ele>254.085083</ele>
        <time>2010-08-28T09:01:54Z</time>
      </trkpt>
      <trkpt lat="48.87738" lon="7.32969">
        <ele>253.042114</ele>
        <time>2010-08-28T09:01:55Z</time>
      </trkpt>
      <trkpt lat="48.87737" lon="7.32977">
        <ele>252.647583</ele>
        <time>2010-08-28T09:01:56Z</time>
      </trkpt>
      <trkpt lat="48.87735" lon="7.32991">
        <ele>252.186646</ele>
        <time>2010-08-28T09:01:57Z</time>
      </trkpt>
      <trkpt lat="48.87733" lon="7.33001">
        <ele>251.624146</ele>
        <time>2010-08-28T09:01:58Z</time>
      </trkpt>
      <trkpt lat="48.87727" lon="7.33012">
        <ele>251.463989</ele>
        <time>2010-08-28T09:01:59Z</time>
      </trkpt>
      <trkpt lat="48.87722" lon="7.3302">
        <ele>250.635864</ele>
        <time>2010-08-28T09:02:00Z</time>
      </trkpt>
      <trkpt lat="48.87727" lon="7.33026">
        <ele>249.213989</ele>
        <time>2010-08-28T09:02:01Z</time>
      </trkpt>
      <trkpt lat="48.87725" lon="7.33036">
        <ele>249.221802</ele>
        <time>2010-08-28T09:02:02Z</time>
      </trkpt>
      <trkpt lat="48.87723" lon="7.33045">
        <ele>249.167114</ele>
        <time>2010-08-28T09:02:03Z</time>
      </trkpt>
      <trkpt lat="48.87726" lon="7.33063">
        <ele>250.307739</ele>
        <time>2010-08-28T09:02:05Z</time>
      </trkpt>
      <trkpt lat="48.87731" lon="7.33076">
        <ele>253.901489</ele>
        <time>2010-08-28T09:02:06Z</time>
      </trkpt>
      <trkpt lat="48.87729" lon="7.33085">
        <ele>254.171021</ele>
        <time>2010-08-28T09:02:07Z</time>
      </trkpt>
      <trkpt lat="48.87725" lon="7.33093">
        <ele>253.928833</ele>
        <time>2010-08-28T09:02:08Z</time>
      </trkpt>
      <trkpt lat="48.87727" lon="7.33105">
        <ele>252.749146</ele>
        <time>2010-08-28T09:02:10Z</time>
      </trkpt>
      <trkpt lat="48.87728" lon="7.33114">
        <ele>251.370239</ele>
        <time>2010-08-28T09:02:12Z</time>
      </trkpt>
      <trkpt lat="48.87727" lon="7.33123">
        <ele>251.237427</ele>
        <time>2010-08-28T09:02:15Z</time>
      </trkpt>
      <trkpt lat="48.87726" lon="7.3313">
        <ele>249.901489</ele>
        <time>2010-08-28T09:02:16Z</time>
      </trkpt>
      <trkpt lat="48.87726" lon="7.33134">
        <ele>253.764771</ele>
        <time>2010-08-28T09:02:19Z</time>
      </trkpt>
      <trkpt lat="48.87727" lon="7.3314">
        <ele>256.420166</ele>
        <time>2010-08-28T09:03:38Z</time>
      </trkpt>
      <trkpt lat="48.87729" lon="7.33142">
        <ele>260.740479</ele>
        <time>2010-08-28T09:04:34Z</time>
      </trkpt>
      <trkpt lat="48.87731" lon="7.33149">
        <ele>261.545166</ele>
        <time>2010-08-28T09:04:47Z</time>
      </trkpt>
      <trkpt lat="48.87729" lon="7.33157">
        <ele>261.232666</ele>
        <time>2010-08-28T09:04:51Z</time>
      </trkpt>
      <trkpt lat="48.87726" lon="7.33165">
        <ele>260.021729</ele>
        <time>2010-08-28T09:04:54Z</time>
      </trkpt>
      <trkpt lat="48.87726" lon="7.33174">
        <ele>256.756104</ele>
        <time>2010-08-28T09:04:58Z</time>
      </trkpt>
      <trkpt lat="48.87726" lon="7.3318">
        <ele>254.260864</ele>
        <time>2010-08-28T09:05:00Z</time>
      </trkpt>
      <trkpt lat="48.87729" lon="7.33191">
        <ele>253.577271</ele>
        <time>2010-08-28T09:05:03Z</time>
      </trkpt>
      <trkpt lat="48.87732" lon="7.33197">
        <ele>254.186646</ele>
        <time>2010-08-28T09:05:04Z</time>
      </trkpt>
      <trkpt lat="48.87732" lon="7.33204">
        <ele>253.506958</ele>
        <time>2010-08-28T09:05:06Z</time>
      </trkpt>
      <trkpt lat="48.87733" lon="7.33214">
        <ele>253.358521</ele>
        <time>2010-08-28T09:05:08Z</time>
      </trkpt>
      <trkpt lat="48.87732" lon="7.33222">
        <ele>251.483521</ele>
        <time>2010-08-28T09:05:10Z</time>
      </trkpt>
      <trkpt lat="48.87731" lon="7.33228">
        <ele>249.151489</ele>
        <time>2010-08-28T09:05:12Z</time>
      </trkpt>
      <trkpt lat="48.87729" lon="7.33236">
        <ele>247.108521</ele>
        <time>2010-08-28T09:05:15Z</time>
      </trkpt>
      <trkpt lat="48.87727" lon="7.33246">
        <ele>246.682739</ele>
        <time>2010-08-28T09:05:18Z</time>
      </trkpt>
      <trkpt lat="48.87725" lon="7.33254">
        <ele>246.846802</ele>
        <time>2010-08-28T09:05:20Z</time>
      </trkpt>
      <trkpt lat="48.87729" lon="7.33263">
        <ele>246.428833</ele>
        <time>2010-08-28T09:05:22Z</time>
      </trkpt>
      <trkpt lat="48.87731" lon="7.33272">
        <ele>245.815552</ele>
        <time>2010-08-28T09:05:24Z</time>
      </trkpt>
      <trkpt lat="48.87735" lon="7.33282">
        <ele>244.979614</ele>
        <time>2010-08-28T09:05:26Z</time>
      </trkpt>
      <trkpt lat="48.87737" lon="7.33293">
        <ele>247.608521</ele>
        <time>2010-08-28T09:05:28Z</time>
      </trkpt>
      <trkpt lat="48.87738" lon="7.33303">
        <ele>248.088989</ele>
        <time>2010-08-28T09:05:30Z</time>
      </trkpt>
      <trkpt lat="48.87742" lon="7.33314">
        <ele>248.565552</ele>
        <time>2010-08-28T09:05:32Z</time>
      </trkpt>
      <trkpt lat="48.87746" lon="7.33324">
        <ele>248.116333</ele>
        <time>2010-08-28T09:05:34Z</time>
      </trkpt>
      <trkpt lat="48.8775" lon="7.33334">
        <ele>247.745239</ele>
        <time>2010-08-28T09:05:36Z</time>
      </trkpt>
      <trkpt lat="48.87752" lon="7.33342">
        <ele>247.963989</ele>
        <time>2010-08-28T09:05:37Z</time>
      </trkpt>
      <trkpt lat="48.87753" lon="7.33349">
        <ele>247.827271</ele>
        <time>2010-08-28T09:05:38Z</time>
      </trkpt>
      <trkpt lat="48.87752" lon="7.33356">
        <ele>247.444458</ele>
        <time>2010-08-28T09:05:39Z</time>
      </trkpt>
      <trkpt lat="48.87746" lon="7.33366">
        <ele>246.596802</ele>
        <time>2010-08-28T09:05:41Z</time>
      </trkpt>
      <trkpt lat="48.87739" lon="7.3337">
        <ele>245.924927</ele>
        <time>2010-08-28T09:05:43Z</time>
      </trkpt>
      <trkpt lat="48.87735" lon="7.33372">
        <ele>245.639771</ele>
        <time>2010-08-28T09:05:44Z</time>
      </trkpt>
      <trkpt lat="48.87726" lon="7.33373">
        <ele>247.057739</ele>
        <time>2010-08-28T09:05:46Z</time>
      </trkpt>
      <trkpt lat="48.87722" lon="7.33376">
        <ele>246.979614</ele>
        <time>2010-08-28T09:05:47Z</time>
      </trkpt>
      <trkpt lat="48.87717" lon="7.33378">
        <ele>246.299927</ele>
        <time>2010-08-28T09:05:48Z</time>
      </trkpt>
      <trkpt lat="48.8771" lon="7.33383">
        <ele>246.174927</ele>
        <time>2010-08-28T09:05:50Z</time>
      </trkpt>
      <trkpt lat="48.87706" lon="7.33388">
        <ele>246.792114</ele>
        <time>2010-08-28T09:05:52Z</time>
      </trkpt>
      <trkpt lat="48.87702" lon="7.33391">
        <ele>245.452271</ele>
        <time>2010-08-28T09:05:54Z</time>
      </trkpt>
      <trkpt lat="48.87697" lon="7.33389">
        <ele>246.436646</ele>
        <time>2010-08-28T09:05:56Z</time>
      </trkpt>
      <trkpt lat="48.87693" lon="7.33393">
        <ele>245.897583</ele>
        <time>2010-08-28T09:05:57Z</time>
      </trkpt>
      <trkpt lat="48.87687" lon="7.33398">
        <ele>247.186646</ele>
        <time>2010-08-28T09:05:58Z</time>
      </trkpt>
      <trkpt lat="48.8768" lon="7.33407">
        <ele>246.631958</ele>
        <time>2010-08-28T09:06:00Z</time>
      </trkpt>
      <trkpt lat="48.87675" lon="7.33415">
        <ele>245.440552</ele>
        <time>2010-08-28T09:06:02Z</time>
      </trkpt>
      <trkpt lat="48.87666" lon="7.33423">
        <ele>249.975708</ele>
        <time>2010-08-28T09:06:03Z</time>
      </trkpt>
      <trkpt lat="48.8766" lon="7.3343">
        <ele>250.393677</ele>
        <time>2010-08-28T09:06:05Z</time>
      </trkpt>
      <trkpt lat="48.87656" lon="7.33439">
        <ele>251.288208</ele>
        <time>2010-08-28T09:06:07Z</time>
      </trkpt>
      <trkpt lat="48.87653" lon="7.33448">
        <ele>251.671021</ele>
        <time>2010-08-28T09:06:09Z</time>
      </trkpt>
      <trkpt lat="48.87651" lon="7.33457">
        <ele>250.835083</ele>
        <time>2010-08-28T09:06:11Z</time>
      </trkpt>
      <trkpt lat="48.8765" lon="7.33465">
        <ele>250.081177</ele>
        <time>2010-08-28T09:06:13Z</time>
      </trkpt>
      <trkpt lat="48.8765" lon="7.33473">
        <ele>250.596802</ele>
        <time>2010-08-28T09:06:15Z</time>
      </trkpt>
      <trkpt lat="48.87645" lon="7.33482">
        <ele>252.889771</ele>
        <time>2010-08-28T09:06:17Z</time>
      </trkpt>
      <trkpt lat="48.8764" lon="7.33491">
        <ele>255.901489</ele>
        <time>2010-08-28T09:06:19Z</time>
      </trkpt>
      <trkpt lat="48.8764" lon="7.33502">
        <ele>257.248291</ele>
        <time>2010-08-28T09:06:21Z</time>
      </trkpt>
      <trkpt lat="48.8764" lon="7.33513">
        <ele>259.013916</ele>
        <time>2010-08-28T09:06:23Z</time>
      </trkpt>
      <trkpt lat="48.87637" lon="7.33522">
        <ele>259.748291</ele>
        <time>2010-08-28T09:06:25Z</time>
      </trkpt>
      <trkpt lat="48.87637" lon="7.3353">
        <ele>260.295166</ele>
        <time>2010-08-28T09:06:27Z</time>
      </trkpt>
      <trkpt lat="48.87637" lon="7.33537">
        <ele>260.459229</ele>
        <time>2010-08-28T09:06:30Z</time>
      </trkpt>
      <trkpt lat="48.87639" lon="7.3355">
        <ele>259.881104</ele>
        <time>2010-08-28T09:06:32Z</time>
      </trkpt>
      <trkpt lat="48.87639" lon="7.33561">
        <ele>259.756104</ele>
        <time>2010-08-28T09:06:34Z</time>
      </trkpt>
      <trkpt lat="48.87637" lon="7.33568">
        <ele>261.537354</ele>
        <time>2010-08-28T09:06:35Z</time>
      </trkpt>
      <trkpt lat="48.87635" lon="7.33575">
        <ele>261.381104</ele>
        <time>2010-08-28T09:06:36Z</time>
      </trkpt>
      <trkpt lat="48.87637" lon="7.33586">
        <ele>261.818604</ele>
        <time>2010-08-28T09:06:38Z</time>
      </trkpt>
      <trkpt lat="48.87636" lon="7.33599">
        <ele>260.740479</ele>
        <time>2010-08-28T09:06:40Z</time>
      </trkpt>
      <trkpt lat="48.87635" lon="7.33607">
        <ele>260.826416</ele>
        <time>2010-08-28T09:06:41Z</time>
      </trkpt>
      <trkpt lat="48.87633" lon="7.33614">
        <ele>261.115479</ele>
        <time>2010-08-28T09:06:42Z</time>
      </trkpt>
      <trkpt lat="48.87631" lon="7.33625">
        <ele>261.443604</ele>
        <time>2010-08-28T09:06:44Z</time>
      </trkpt>
      <trkpt lat="48.87632" lon="7.33637">
        <ele>261.717041</ele>
        <time>2010-08-28T09:06:46Z</time>
      </trkpt>
      <trkpt lat="48.87631" lon="7.33649">
        <ele>262.693604</ele>
        <time>2010-08-28T09:06:48Z</time>
      </trkpt>
      <trkpt lat="48.8763" lon="7.3366">
        <ele>264.201416</ele>
        <time>2010-08-28T09:06:50Z</time>
      </trkpt>
      <trkpt lat="48.87629" lon="7.33671">
        <ele>263.787354</ele>
        <time>2010-08-28T09:06:52Z</time>
      </trkpt>
      <trkpt lat="48.87629" lon="7.33678">
        <ele>265.224854</ele>
        <time>2010-08-28T09:06:53Z</time>
      </trkpt>
      <trkpt lat="48.87626" lon="7.3369">
        <ele>265.240479</ele>
        <time>2010-08-28T09:06:55Z</time>
      </trkpt>
      <trkpt lat="48.87625" lon="7.33701">
        <ele>264.045166</ele>
        <time>2010-08-28T09:06:57Z</time>
      </trkpt>
      <trkpt lat="48.87628" lon="7.33713">
        <ele>263.623291</ele>
        <time>2010-08-28T09:06:59Z</time>
      </trkpt>
      <trkpt lat="48.87631" lon="7.33725">
        <ele>262.404541</ele>
        <time>2010-08-28T09:07:01Z</time>
      </trkpt>
      <trkpt lat="48.87632" lon="7.33738">
        <ele>261.927979</ele>
        <time>2010-08-28T09:07:03Z</time>
      </trkpt>
      <trkpt lat="48.87635" lon="7.33753">
        <ele>263.654541</ele>
        <time>2010-08-28T09:07:05Z</time>
      </trkpt>
      <trkpt lat="48.87637" lon="7.33766">
        <ele>262.529541</ele>
        <time>2010-08-28T09:07:07Z</time>
      </trkpt>
      <trkpt lat="48.87638" lon="7.33779">
        <ele>261.599854</ele>
        <time>2010-08-28T09:07:09Z</time>
      </trkpt>
      <trkpt lat="48.87638" lon="7.33793">
        <ele>260.662354</ele>
        <time>2010-08-28T09:07:11Z</time>
      </trkpt>
      <trkpt lat="48.8764" lon="7.338">
        <ele>261.474854</ele>
        <time>2010-08-28T09:07:12Z</time>
      </trkpt>
      <trkpt lat="48.87642" lon="7.33807">
        <ele>262.209229</ele>
        <time>2010-08-28T09:07:13Z</time>
      </trkpt>
      <trkpt lat="48.87645" lon="7.33814">
        <ele>263.217041</ele>
        <time>2010-08-28T09:07:14Z</time>
      </trkpt>
      <trkpt lat="48.87646" lon="7.33821">
        <ele>263.560791</ele>
        <time>2010-08-28T09:07:15Z</time>
      </trkpt>
      <trkpt lat="48.87647" lon="7.33828">
        <ele>263.881104</ele>
        <time>2010-08-28T09:07:16Z</time>
      </trkpt>
      <trkpt lat="48.87651" lon="7.3384">
        <ele>264.474854</ele>
        <time>2010-08-28T09:07:18Z</time>
      </trkpt>
      <trkpt lat="48.87653" lon="7.33846">
        <ele>265.240479</ele>
        <time>2010-08-28T09:07:19Z</time>
      </trkpt>
      <trkpt lat="48.87656" lon="7.33858">
        <ele>266.584229</ele>
        <time>2010-08-28T09:07:21Z</time>
      </trkpt>
      <trkpt lat="48.87661" lon="7.3387">
        <ele>266.076416</ele>
        <time>2010-08-28T09:07:23Z</time>
      </trkpt>
      <trkpt lat="48.87663" lon="7.33876">
        <ele>266.256104</ele>
        <time>2010-08-28T09:07:24Z</time>
      </trkpt>
      <trkpt lat="48.87668" lon="7.33886">
        <ele>267.138916</ele>
        <time>2010-08-28T09:07:26Z</time>
      </trkpt>
      <trkpt lat="48.87672" lon="7.33896">
        <ele>266.779541</ele>
        <time>2010-08-28T09:07:28Z</time>
      </trkpt>
      <trkpt lat="48.87674" lon="7.33904">
        <ele>266.732666</ele>
        <time>2010-08-28T09:07:30Z</time>
      </trkpt>
      <trkpt lat="48.87677" lon="7.33912">
        <ele>266.959229</ele>
        <time>2010-08-28T09:07:32Z</time>
      </trkpt>
      <trkpt lat="48.87678" lon="7.33921">
        <ele>267.146729</ele>
        <time>2010-08-28T09:07:34Z</time>
      </trkpt>
      <trkpt lat="48.87679" lon="7.3393">
        <ele>267.131104</ele>
        <time>2010-08-28T09:07:36Z</time>
      </trkpt>
      <trkpt lat="48.87681" lon="7.3394">
        <ele>266.826416</ele>
        <time>2010-08-28T09:07:38Z</time>
      </trkpt>
      <trkpt lat="48.87682" lon="7.33951">
        <ele>266.779541</ele>
        <time>2010-08-28T09:07:40Z</time>
      </trkpt>
      <trkpt lat="48.87685" lon="7.33962">
        <ele>266.849854</ele>
        <time>2010-08-28T09:07:42Z</time>
      </trkpt>
      <trkpt lat="48.87687" lon="7.33975">
        <ele>266.420166</ele>
        <time>2010-08-28T09:07:44Z</time>
      </trkpt>
      <trkpt lat="48.87689" lon="7.33987">
        <ele>267.037354</ele>
        <time>2010-08-28T09:07:46Z</time>
      </trkpt>
      <trkpt lat="48.87691" lon="7.33999">
        <ele>266.779541</ele>
        <time>2010-08-28T09:07:48Z</time>
      </trkpt>
      <trkpt lat="48.87692" lon="7.34011">
        <ele>266.701416</ele>
        <time>2010-08-28T09:07:50Z</time>
      </trkpt>
      <trkpt lat="48.87693" lon="7.34023">
        <ele>266.951416</ele>
        <time>2010-08-28T09:07:52Z</time>
      </trkpt>
      <trkpt lat="48.87694" lon="7.34035">
        <ele>267.232666</ele>
        <time>2010-08-28T09:07:54Z</time>
      </trkpt>
      <trkpt lat="48.87693" lon="7.34048">
        <ele>267.342041</ele>
        <time>2010-08-28T09:07:56Z</time>
      </trkpt>
      <trkpt lat="48.87693" lon="7.3406">
        <ele>267.420166</ele>
        <time>2010-08-28T09:07:58Z</time>
      </trkpt>
      <trkpt lat="48.87692" lon="7.34073">
        <ele>266.990479</ele>
        <time>2010-08-28T09:08:00Z</time>
      </trkpt>
      <trkpt lat="48.87692" lon="7.34086">
        <ele>266.982666</ele>
        <time>2010-08-28T09:08:02Z</time>
      </trkpt>
      <trkpt lat="48.87692" lon="7.34093">
        <ele>266.810791</ele>
        <time>2010-08-28T09:08:03Z</time>
      </trkpt>
      <trkpt lat="48.87691" lon="7.341">
        <ele>266.943604</ele>
        <time>2010-08-28T09:08:04Z</time>
      </trkpt>
      <trkpt lat="48.87692" lon="7.34114">
        <ele>267.256104</ele>
        <time>2010-08-28T09:08:06Z</time>
      </trkpt>
      <trkpt lat="48.87692" lon="7.34128">
        <ele>267.490479</ele>
        <time>2010-08-28T09:08:08Z</time>
      </trkpt>
      <trkpt lat="48.87693" lon="7.34135">
        <ele>267.443604</ele>
        <time>2010-08-28T09:08:09Z</time>
      </trkpt>
      <trkpt lat="48.87693" lon="7.34142">
        <ele>267.474854</ele>
        <time>2010-08-28T09:08:10Z</time>
      </trkpt>
      <trkpt lat="48.87694" lon="7.34149">
        <ele>267.271729</ele>
        <time>2010-08-28T09:08:11Z</time>
      </trkpt>
      <trkpt lat="48.87693" lon="7.34156">
        <ele>267.224854</ele>
        <time>2010-08-28T09:08:12Z</time>
      </trkpt>
      <trkpt lat="48.87693" lon="7.34164">
        <ele>267.513916</ele>
        <time>2010-08-28T09:08:13Z</time>
      </trkpt>
      <trkpt lat="48.87693" lon="7.34172">
        <ele>267.365479</ele>
        <time>2010-08-28T09:08:14Z</time>
      </trkpt>
      <trkpt lat="48.87693" lon="7.34179">
        <ele>267.045166</ele>
        <time>2010-08-28T09:08:15Z</time>
      </trkpt>
      <trkpt lat="48.87693" lon="7.34187">
        <ele>266.873291</ele>
        <time>2010-08-28T09:08:16Z</time>
      </trkpt>
      <trkpt lat="48.87693" lon="7.34194">
        <ele>266.545166</ele>
        <time>2010-08-28T09:08:17Z</time>
      </trkpt>
      <trkpt lat="48.87693" lon="7.34201">
        <ele>266.013916</ele>
        <time>2010-08-28T09:08:18Z</time>
      </trkpt>
      <trkpt lat="48.87697" lon="7.34209">
        <ele>267.834229</ele>
        <time>2010-08-28T09:08:19Z</time>
      </trkpt>
      <trkpt lat="48.87699" lon="7.34214">
        <ele>267.263916</ele>
        <time>2010-08-28T09:08:20Z</time>
      </trkpt>
      <trkpt lat="48.877" lon="7.34221">
        <ele>267.482666</ele>
        <time>2010-08-28T09:08:21Z</time>
      </trkpt>
      <trkpt lat="48.87702" lon="7.34229">
        <ele>267.615479</ele>
        <time>2010-08-28T09:08:22Z</time>
      </trkpt>
      <trkpt lat="48.87702" lon="7.34236">
        <ele>267.334229</ele>
        <time>2010-08-28T09:08:23Z</time>
      </trkpt>
      <trkpt lat="48.87702" lon="7.34243">
        <ele>266.888916</ele>
        <time>2010-08-28T09:08:24Z</time>
      </trkpt>
      <trkpt lat="48.87702" lon="7.34251">
        <ele>267.435791</ele>
        <time>2010-08-28T09:08:25Z</time>
      </trkpt>
      <trkpt lat="48.87702" lon="7.34259">
        <ele>268.123291</ele>
        <time>2010-08-28T09:08:26Z</time>
      </trkpt>
      <trkpt lat="48.87701" lon="7.34267">
        <ele>267.670166</ele>
        <time>2010-08-28T09:08:27Z</time>
      </trkpt>
      <trkpt lat="48.87701" lon="7.34275">
        <ele>267.435791</ele>
        <time>2010-08-28T09:08:28Z</time>
      </trkpt>
      <trkpt lat="48.87701" lon="7.34283">
        <ele>267.131104</ele>
        <time>2010-08-28T09:08:29Z</time>
      </trkpt>
      <trkpt lat="48.87701" lon="7.3429">
        <ele>266.693604</ele>
        <time>2010-08-28T09:08:30Z</time>
      </trkpt>
      <trkpt lat="48.87701" lon="7.34298">
        <ele>266.537354</ele>
        <time>2010-08-28T09:08:31Z</time>
      </trkpt>
      <trkpt lat="48.87702" lon="7.34309">
        <ele>266.646729</ele>
        <time>2010-08-28T09:08:33Z</time>
      </trkpt>
      <trkpt lat="48.87702" lon="7.34319">
        <ele>265.912354</ele>
        <time>2010-08-28T09:08:35Z</time>
      </trkpt>
      <trkpt lat="48.87703" lon="7.34328">
        <ele>265.435791</ele>
        <time>2010-08-28T09:08:37Z</time>
      </trkpt>
      <trkpt lat="48.87702" lon="7.34338">
        <ele>265.068604</ele>
        <time>2010-08-28T09:08:39Z</time>
      </trkpt>
      <trkpt lat="48.87702" lon="7.34348">
        <ele>264.412354</ele>
        <time>2010-08-28T09:08:41Z</time>
      </trkpt>
      <trkpt lat="48.87704" lon="7.34359">
        <ele>266.201416</ele>
        <time>2010-08-28T09:08:43Z</time>
      </trkpt>
      <trkpt lat="48.87707" lon="7.34368">
        <ele>267.732666</ele>
        <time>2010-08-28T09:08:45Z</time>
      </trkpt>
      <trkpt lat="48.87708" lon="7.3438">
        <ele>268.873291</ele>
        <time>2010-08-28T09:08:47Z</time>
      </trkpt>
      <trkpt lat="48.87708" lon="7.34393">
        <ele>269.467041</ele>
        <time>2010-08-28T09:08:49Z</time>
      </trkpt>
      <trkpt lat="48.87707" lon="7.34405">
        <ele>269.787354</ele>
        <time>2010-08-28T09:08:51Z</time>
      </trkpt>
      <trkpt lat="48.87708" lon="7.34419">
        <ele>269.826416</ele>
        <time>2010-08-28T09:08:53Z</time>
      </trkpt>
      <trkpt lat="48.87709" lon="7.34426">
        <ele>269.967041</ele>
        <time>2010-08-28T09:08:54Z</time>
      </trkpt>
      <trkpt lat="48.87709" lon="7.34441">
        <ele>269.740479</ele>
        <time>2010-08-28T09:08:56Z</time>
      </trkpt>
      <trkpt lat="48.87709" lon="7.34448">
        <ele>269.552979</ele>
        <time>2010-08-28T09:08:57Z</time>
      </trkpt>
      <trkpt lat="48.87709" lon="7.34455">
        <ele>269.396729</ele>
        <time>2010-08-28T09:08:58Z</time>
      </trkpt>
      <trkpt lat="48.87709" lon="7.34462">
        <ele>268.912354</ele>
        <time>2010-08-28T09:08:59Z</time>
      </trkpt>
      <trkpt lat="48.87709" lon="7.34471">
        <ele>268.451416</ele>
        <time>2010-08-28T09:09:00Z</time>
      </trkpt>
      <trkpt lat="48.87709" lon="7.34479">
        <ele>267.521729</ele>
        <time>2010-08-28T09:09:01Z</time>
      </trkpt>
      <trkpt lat="48.87709" lon="7.34486">
        <ele>266.920166</ele>
        <time>2010-08-28T09:09:02Z</time>
      </trkpt>
      <trkpt lat="48.87711" lon="7.345">
        <ele>265.584229</ele>
        <time>2010-08-28T09:09:04Z</time>
      </trkpt>
      <trkpt lat="48.87711" lon="7.34507">
        <ele>264.935791</ele>
        <time>2010-08-28T09:09:05Z</time>
      </trkpt>
      <trkpt lat="48.87711" lon="7.34514">
        <ele>264.209229</ele>
        <time>2010-08-28T09:09:06Z</time>
      </trkpt>
      <trkpt lat="48.87712" lon="7.34521">
        <ele>264.498291</ele>
        <time>2010-08-28T09:09:07Z</time>
      </trkpt>
      <trkpt lat="48.87713" lon="7.34528">
        <ele>264.263916</ele>
        <time>2010-08-28T09:09:08Z</time>
      </trkpt>
      <trkpt lat="48.87713" lon="7.34535">
        <ele>264.232666</ele>
        <time>2010-08-28T09:09:09Z</time>
      </trkpt>
      <trkpt lat="48.87713" lon="7.34542">
        <ele>264.068604</ele>
        <time>2010-08-28T09:09:10Z</time>
      </trkpt>
      <trkpt lat="48.87714" lon="7.34549">
        <ele>264.060791</ele>
        <time>2010-08-28T09:09:11Z</time>
      </trkpt>
      <trkpt lat="48.87715" lon="7.34556">
        <ele>264.029541</ele>
        <time>2010-08-28T09:09:12Z</time>
      </trkpt>
      <trkpt lat="48.87714" lon="7.34563">
        <ele>264.092041</ele>
        <time>2010-08-28T09:09:13Z</time>
      </trkpt>
      <trkpt lat="48.87713" lon="7.3457">
        <ele>263.888916</ele>
        <time>2010-08-28T09:09:14Z</time>
      </trkpt>
      <trkpt lat="48.87714" lon="7.34582">
        <ele>263.896729</ele>
        <time>2010-08-28T09:09:16Z</time>
      </trkpt>
      <trkpt lat="48.87714" lon="7.34588">
        <ele>263.810791</ele>
        <time>2010-08-28T09:09:18Z</time>
      </trkpt>
      <trkpt lat="48.87714" lon="7.34598">
        <ele>263.631104</ele>
        <time>2010-08-28T09:09:19Z</time>
      </trkpt>
      <trkpt lat="48.87715" lon="7.34605">
        <ele>263.310791</ele>
        <time>2010-08-28T09:09:20Z</time>
      </trkpt>
      <trkpt lat="48.87717" lon="7.34618">
        <ele>262.693604</ele>
        <time>2010-08-28T09:09:22Z</time>
      </trkpt>
      <trkpt lat="48.87719" lon="7.34625">
        <ele>262.357666</ele>
        <time>2010-08-28T09:09:23Z</time>
      </trkpt>
      <trkpt lat="48.87723" lon="7.34638">
        <ele>260.623291</ele>
        <time>2010-08-28T09:09:25Z</time>
      </trkpt>
      <trkpt lat="48.87725" lon="7.34644">
        <ele>259.654541</ele>
        <time>2010-08-28T09:09:26Z</time>
      </trkpt>
      <trkpt lat="48.87726" lon="7.34653">
        <ele>258.482666</ele>
        <time>2010-08-28T09:09:28Z</time>
      </trkpt>
      <trkpt lat="48.87727" lon="7.34659">
        <ele>257.982666</ele>
        <time>2010-08-28T09:09:30Z</time>
      </trkpt>
      <trkpt lat="48.8773" lon="7.34654">
        <ele>257.545166</ele>
        <time>2010-08-28T09:10:43Z</time>
      </trkpt>
      <trkpt lat="48.87727" lon="7.34661">
        <ele>257.248291</ele>
        <time>2010-08-28T09:10:45Z</time>
      </trkpt>
      <trkpt lat="48.87725" lon="7.34669">
        <ele>257.138916</ele>
        <time>2010-08-28T09:10:48Z</time>
      </trkpt>
      <trkpt lat="48.87724" lon="7.34678">
        <ele>256.490479</ele>
        <time>2010-08-28T09:10:50Z</time>
      </trkpt>
      <trkpt lat="48.87724" lon="7.3469">
        <ele>256.842041</ele>
        <time>2010-08-28T09:10:52Z</time>
      </trkpt>
      <trkpt lat="48.87724" lon="7.34701">
        <ele>255.995239</ele>
        <time>2010-08-28T09:10:54Z</time>
      </trkpt>
      <trkpt lat="48.87724" lon="7.34714">
        <ele>255.436646</ele>
        <time>2010-08-28T09:10:56Z</time>
      </trkpt>
      <trkpt lat="48.87725" lon="7.34725">
        <ele>254.592896</ele>
        <time>2010-08-28T09:10:58Z</time>
      </trkpt>
      <trkpt lat="48.87727" lon="7.3474">
        <ele>253.393677</ele>
        <time>2010-08-28T09:11:00Z</time>
      </trkpt>
      <trkpt lat="48.87728" lon="7.34748">
        <ele>252.858521</ele>
        <time>2010-08-28T09:11:01Z</time>
      </trkpt>
      <trkpt lat="48.87729" lon="7.34756">
        <ele>252.452271</ele>
        <time>2010-08-28T09:11:02Z</time>
      </trkpt>
      <trkpt lat="48.8773" lon="7.34764">
        <ele>251.600708</ele>
        <time>2010-08-28T09:11:03Z</time>
      </trkpt>
      <trkpt lat="48.87732" lon="7.34772">
        <ele>252.178833</ele>
        <time>2010-08-28T09:11:04Z</time>
      </trkpt>
      <trkpt lat="48.87733" lon="7.3478">
        <ele>251.803833</ele>
        <time>2010-08-28T09:11:05Z</time>
      </trkpt>
      <trkpt lat="48.87734" lon="7.34787">
        <ele>251.401489</ele>
        <time>2010-08-28T09:11:06Z</time>
      </trkpt>
      <trkpt lat="48.87738" lon="7.34796">
        <ele>251.088989</ele>
        <time>2010-08-28T09:11:08Z</time>
      </trkpt>
      <trkpt lat="48.87743" lon="7.34803">
        <ele>250.753052</ele>
        <time>2010-08-28T09:11:10Z</time>
      </trkpt>
      <trkpt lat="48.87745" lon="7.34809">
        <ele>251.085083</ele>
        <time>2010-08-28T09:11:15Z</time>
      </trkpt>
      <trkpt lat="48.87746" lon="7.34816">
        <ele>250.081177</ele>
        <time>2010-08-28T09:12:54Z</time>
      </trkpt>
      <trkpt lat="48.87746" lon="7.34825">
        <ele>250.370239</ele>
        <time>2010-08-28T09:12:56Z</time>
      </trkpt>
      <trkpt lat="48.87745" lon="7.34835">
        <ele>249.581177</ele>
        <time>2010-08-28T09:12:58Z</time>
      </trkpt>
      <trkpt lat="48.87743" lon="7.34847">
        <ele>249.030396</ele>
        <time>2010-08-28T09:13:00Z</time>
      </trkpt>
      <trkpt lat="48.87741" lon="7.34861">
        <ele>247.682739</ele>
        <time>2010-08-28T09:13:02Z</time>
      </trkpt>
      <trkpt lat="48.8774" lon="7.34868">
        <ele>246.909302</ele>
        <time>2010-08-28T09:13:03Z</time>
      </trkpt>
      <trkpt lat="48.87739" lon="7.34875">
        <ele>245.928833</ele>
        <time>2010-08-28T09:13:04Z</time>
      </trkpt>
      <trkpt lat="48.87738" lon="7.34884">
        <ele>245.819458</ele>
        <time>2010-08-28T09:13:05Z</time>
      </trkpt>
      <trkpt lat="48.87737" lon="7.34892">
        <ele>245.678833</ele>
        <time>2010-08-28T09:13:06Z</time>
      </trkpt>
      <trkpt lat="48.87736" lon="7.34899">
        <ele>245.710083</ele>
        <time>2010-08-28T09:13:07Z</time>
      </trkpt>
      <trkpt lat="48.87735" lon="7.34907">
        <ele>245.710083</ele>
        <time>2010-08-28T09:13:08Z</time>
      </trkpt>
      <trkpt lat="48.87734" lon="7.34915">
        <ele>245.335083</ele>
        <time>2010-08-28T09:13:09Z</time>
      </trkpt>
      <trkpt lat="48.87733" lon="7.34922">
        <ele>245.057739</ele>
        <time>2010-08-28T09:13:10Z</time>
      </trkpt>
      <trkpt lat="48.87733" lon="7.34933">
        <ele>244.483521</ele>
        <time>2010-08-28T09:13:12Z</time>
      </trkpt>
      <trkpt lat="48.87734" lon="7.34942">
        <ele>244.159302</ele>
        <time>2010-08-28T09:13:14Z</time>
      </trkpt>
      <trkpt lat="48.87738" lon="7.34946">
        <ele>243.893677</ele>
        <time>2010-08-28T09:13:20Z</time>
      </trkpt>
      <trkpt lat="48.87743" lon="7.34948">
        <ele>243.729614</ele>
        <time>2010-08-28T09:15:56Z</time>
      </trkpt>
      <trkpt lat="48.87751" lon="7.34947">
        <ele>243.733521</ele>
        <time>2010-08-28T09:15:59Z</time>
      </trkpt>
      <trkpt lat="48.87758" lon="7.34947">
        <ele>244.268677</ele>
        <time>2010-08-28T09:16:01Z</time>
      </trkpt>
      <trkpt lat="48.87765" lon="7.34947">
        <ele>244.073364</ele>
        <time>2010-08-28T09:16:03Z</time>
      </trkpt>
      <trkpt lat="48.87772" lon="7.34947">
        <ele>244.108521</ele>
        <time>2010-08-28T09:16:05Z</time>
      </trkpt>
      <trkpt lat="48.8778" lon="7.34946">
        <ele>244.741333</ele>
        <time>2010-08-28T09:16:07Z</time>
      </trkpt>
      <trkpt lat="48.87788" lon="7.34947">
        <ele>244.667114</ele>
        <time>2010-08-28T09:16:09Z</time>
      </trkpt>
      <trkpt lat="48.87795" lon="7.34947">
        <ele>244.139771</ele>
        <time>2010-08-28T09:16:11Z</time>
      </trkpt>
      <trkpt lat="48.87803" lon="7.34949">
        <ele>243.952271</ele>
        <time>2010-08-28T09:16:13Z</time>
      </trkpt>
      <trkpt lat="48.87812" lon="7.34951">
        <ele>243.522583</ele>
        <time>2010-08-28T09:16:15Z</time>
      </trkpt>
      <trkpt lat="48.8782" lon="7.34952">
        <ele>242.667114</ele>
        <time>2010-08-28T09:16:17Z</time>
      </trkpt>
      <trkpt lat="48.87828" lon="7.34955">
        <ele>242.171021</ele>
        <time>2010-08-28T09:16:19Z</time>
      </trkpt>
      <trkpt lat="48.87835" lon="7.34956">
        <ele>241.143677</ele>
        <time>2010-08-28T09:16:21Z</time>
      </trkpt>
      <trkpt lat="48.87845" lon="7.34959">
        <ele>240.608521</ele>
        <time>2010-08-28T09:16:23Z</time>
      </trkpt>
      <trkpt lat="48.87849" lon="7.3496">
        <ele>240.737427</ele>
        <time>2010-08-28T09:16:24Z</time>
      </trkpt>
      <trkpt lat="48.87854" lon="7.34961">
        <ele>240.362427</ele>
        <time>2010-08-28T09:16:25Z</time>
      </trkpt>
      <trkpt lat="48.87861" lon="7.34964">
        <ele>239.620239</ele>
        <time>2010-08-28T09:16:27Z</time>
      </trkpt>
      <trkpt lat="48.87865" lon="7.34965">
        <ele>239.487427</ele>
        <time>2010-08-28T09:16:28Z</time>
      </trkpt>
      <trkpt lat="48.87873" lon="7.34969">
        <ele>238.260864</ele>
        <time>2010-08-28T09:16:30Z</time>
      </trkpt>
      <trkpt lat="48.87879" lon="7.34976">
        <ele>237.772583</ele>
        <time>2010-08-28T09:16:32Z</time>
      </trkpt>
      <trkpt lat="48.87884" lon="7.34981">
        <ele>237.424927</ele>
        <time>2010-08-28T09:16:34Z</time>
      </trkpt>
      <trkpt lat="48.87891" lon="7.34983">
        <ele>236.811646</ele>
        <time>2010-08-28T09:16:36Z</time>
      </trkpt>
      <trkpt lat="48.87898" lon="7.34985">
        <ele>236.421021</ele>
        <time>2010-08-28T09:16:38Z</time>
      </trkpt>
      <trkpt lat="48.87903" lon="7.34984">
        <ele>236.725708</ele>
        <time>2010-08-28T09:16:39Z</time>
      </trkpt>
      <trkpt lat="48.87907" lon="7.34983">
        <ele>236.655396</ele>
        <time>2010-08-28T09:16:40Z</time>
      </trkpt>
      <trkpt lat="48.87912" lon="7.34982">
        <ele>237.213989</ele>
        <time>2010-08-28T09:16:41Z</time>
      </trkpt>
      <trkpt lat="48.87916" lon="7.34979">
        <ele>237.229614</ele>
        <time>2010-08-28T09:16:42Z</time>
      </trkpt>
      <trkpt lat="48.87926" lon="7.34974">
        <ele>237.842896</ele>
        <time>2010-08-28T09:16:44Z</time>
      </trkpt>
      <trkpt lat="48.87931" lon="7.34971">
        <ele>238.643677</ele>
        <time>2010-08-28T09:16:45Z</time>
      </trkpt>
      <trkpt lat="48.87938" lon="7.34965">
        <ele>238.393677</ele>
        <time>2010-08-28T09:16:47Z</time>
      </trkpt>
      <trkpt lat="48.87944" lon="7.34958">
        <ele>238.327271</ele>
        <time>2010-08-28T09:16:49Z</time>
      </trkpt>
      <trkpt lat="48.8795" lon="7.34951">
        <ele>238.338989</ele>
        <time>2010-08-28T09:16:51Z</time>
      </trkpt>
      <trkpt lat="48.87956" lon="7.34946">
        <ele>238.366333</ele>
        <time>2010-08-28T09:16:53Z</time>
      </trkpt>
      <trkpt lat="48.8796" lon="7.3494">
        <ele>238.463989</ele>
        <time>2010-08-28T09:16:55Z</time>
      </trkpt>
      <trkpt lat="48.87966" lon="7.34934">
        <ele>238.557739</ele>
        <time>2010-08-28T09:16:57Z</time>
      </trkpt>
      <trkpt lat="48.87972" lon="7.34928">
        <ele>238.936646</ele>
        <time>2010-08-28T09:16:59Z</time>
      </trkpt>
      <trkpt lat="48.87977" lon="7.34921">
        <ele>239.069458</ele>
        <time>2010-08-28T09:17:01Z</time>
      </trkpt>
      <trkpt lat="48.8798" lon="7.34914">
        <ele>240.358521</ele>
        <time>2010-08-28T09:17:03Z</time>
      </trkpt>
      <trkpt lat="48.87985" lon="7.34907">
        <ele>240.487427</ele>
        <time>2010-08-28T09:17:05Z</time>
      </trkpt>
      <trkpt lat="48.87996" lon="7.34904">
        <ele>242.092896</ele>
        <time>2010-08-28T09:17:07Z</time>
      </trkpt>
      <trkpt lat="48.88001" lon="7.34898">
        <ele>242.147583</ele>
        <time>2010-08-28T09:17:09Z</time>
      </trkpt>
      <trkpt lat="48.88007" lon="7.34891">
        <ele>241.706177</ele>
        <time>2010-08-28T09:17:11Z</time>
      </trkpt>
      <trkpt lat="48.88011" lon="7.34884">
        <ele>241.878052</ele>
        <time>2010-08-28T09:17:13Z</time>
      </trkpt>
      <trkpt lat="48.88015" lon="7.34876">
        <ele>242.499146</ele>
        <time>2010-08-28T09:17:15Z</time>
      </trkpt>
      <trkpt lat="48.88021" lon="7.34868">
        <ele>242.444458</ele>
        <time>2010-08-28T09:17:17Z</time>
      </trkpt>
      <trkpt lat="48.88025" lon="7.3486">
        <ele>242.905396</ele>
        <time>2010-08-28T09:17:19Z</time>
      </trkpt>
      <trkpt lat="48.88032" lon="7.34852">
        <ele>243.026489</ele>
        <time>2010-08-28T09:17:21Z</time>
      </trkpt>
      <trkpt lat="48.88038" lon="7.34844">
        <ele>243.143677</ele>
        <time>2010-08-28T09:17:23Z</time>
      </trkpt>
      <trkpt lat="48.88043" lon="7.34836">
        <ele>243.350708</ele>
        <time>2010-08-28T09:17:25Z</time>
      </trkpt>
      <trkpt lat="48.88049" lon="7.34828">
        <ele>243.655396</ele>
        <time>2010-08-28T09:17:27Z</time>
      </trkpt>
      <trkpt lat="48.88056" lon="7.34825">
        <ele>243.905396</ele>
        <time>2010-08-28T09:17:28Z</time>
      </trkpt>
      <trkpt lat="48.8806" lon="7.34817">
        <ele>244.077271</ele>
        <time>2010-08-28T09:17:30Z</time>
      </trkpt>
      <trkpt lat="48.88066" lon="7.34811">
        <ele>244.237427</ele>
        <time>2010-08-28T09:17:32Z</time>
      </trkpt>
      <trkpt lat="48.88071" lon="7.34806">
        <ele>244.542114</ele>
        <time>2010-08-28T09:17:34Z</time>
      </trkpt>
      <trkpt lat="48.88076" lon="7.34801">
        <ele>244.979614</ele>
        <time>2010-08-28T09:17:37Z</time>
      </trkpt>
      <trkpt lat="48.88081" lon="7.34796">
        <ele>245.249146</ele>
        <time>2010-08-28T09:17:41Z</time>
      </trkpt>
      <trkpt lat="48.88085" lon="7.34792">
        <ele>246.167114</ele>
        <time>2010-08-28T09:17:45Z</time>
      </trkpt>
      <trkpt lat="48.88091" lon="7.34792">
        <ele>247.206177</ele>
        <time>2010-08-28T09:17:46Z</time>
      </trkpt>
      <trkpt lat="48.88086" lon="7.34794">
        <ele>247.350708</ele>
        <time>2010-08-28T09:17:55Z</time>
      </trkpt>
      <trkpt lat="48.88084" lon="7.348">
        <ele>249.397583</ele>
        <time>2010-08-28T09:21:16Z</time>
      </trkpt>
      <trkpt lat="48.88079" lon="7.34803">
        <ele>249.335083</ele>
        <time>2010-08-28T09:21:19Z</time>
      </trkpt>
      <trkpt lat="48.88073" lon="7.34807">
        <ele>248.913208</ele>
        <time>2010-08-28T09:21:21Z</time>
      </trkpt>
      <trkpt lat="48.88067" lon="7.3481">
        <ele>248.335083</ele>
        <time>2010-08-28T09:21:23Z</time>
      </trkpt>
      <trkpt lat="48.88061" lon="7.34813">
        <ele>247.581177</ele>
        <time>2010-08-28T09:21:25Z</time>
      </trkpt>
      <trkpt lat="48.88055" lon="7.3482">
        <ele>246.745239</ele>
        <time>2010-08-28T09:21:27Z</time>
      </trkpt>
      <trkpt lat="48.88049" lon="7.34829">
        <ele>246.085083</ele>
        <time>2010-08-28T09:21:29Z</time>
      </trkpt>
      <trkpt lat="48.88043" lon="7.34838">
        <ele>247.331177</ele>
        <time>2010-08-28T09:21:31Z</time>
      </trkpt>
      <trkpt lat="48.88037" lon="7.34846">
        <ele>247.874146</ele>
        <time>2010-08-28T09:21:33Z</time>
      </trkpt>
      <trkpt lat="48.88032" lon="7.34855">
        <ele>247.792114</ele>
        <time>2010-08-28T09:21:35Z</time>
      </trkpt>
      <trkpt lat="48.88025" lon="7.34862">
        <ele>247.784302</ele>
        <time>2010-08-28T09:21:37Z</time>
      </trkpt>
      <trkpt lat="48.88019" lon="7.34871">
        <ele>247.237427</ele>
        <time>2010-08-28T09:21:39Z</time>
      </trkpt>
      <trkpt lat="48.88015" lon="7.34875">
        <ele>247.893677</ele>
        <time>2010-08-28T09:21:40Z</time>
      </trkpt>
      <trkpt lat="48.88012" lon="7.3488">
        <ele>247.952271</ele>
        <time>2010-08-28T09:21:41Z</time>
      </trkpt>
      <trkpt lat="48.88008" lon="7.34884">
        <ele>247.506958</ele>
        <time>2010-08-28T09:21:42Z</time>
      </trkpt>
      <trkpt lat="48.88004" lon="7.34889">
        <ele>247.186646</ele>
        <time>2010-08-28T09:21:43Z</time>
      </trkpt>
      <trkpt lat="48.88" lon="7.34893">
        <ele>246.889771</ele>
        <time>2010-08-28T09:21:44Z</time>
      </trkpt>
      <trkpt lat="48.87996" lon="7.34897">
        <ele>246.546021</ele>
        <time>2010-08-28T09:21:45Z</time>
      </trkpt>
      <trkpt lat="48.87991" lon="7.34901">
        <ele>246.057739</ele>
        <time>2010-08-28T09:21:46Z</time>
      </trkpt>
      <trkpt lat="48.87988" lon="7.34906">
        <ele>245.733521</ele>
        <time>2010-08-28T09:21:47Z</time>
      </trkpt>
      <trkpt lat="48.87984" lon="7.34912">
        <ele>245.510864</ele>
        <time>2010-08-28T09:21:48Z</time>
      </trkpt>
      <trkpt lat="48.87979" lon="7.34921">
        <ele>244.694458</ele>
        <time>2010-08-28T09:21:50Z</time>
      </trkpt>
      <trkpt lat="48.87973" lon="7.34931">
        <ele>244.163208</ele>
        <time>2010-08-28T09:21:52Z</time>
      </trkpt>
      <trkpt lat="48.87969" lon="7.34937">
        <ele>243.592896</ele>
        <time>2010-08-28T09:21:53Z</time>
      </trkpt>
      <trkpt lat="48.87964" lon="7.34942">
        <ele>243.202271</ele>
        <time>2010-08-28T09:21:54Z</time>
      </trkpt>
      <trkpt lat="48.8796" lon="7.34947">
        <ele>242.624146</ele>
        <time>2010-08-28T09:21:55Z</time>
      </trkpt>
      <trkpt lat="48.87956" lon="7.34951">
        <ele>242.682739</ele>
        <time>2010-08-28T09:21:56Z</time>
      </trkpt>
      <trkpt lat="48.8795" lon="7.34955">
        <ele>242.725708</ele>
        <time>2010-08-28T09:21:57Z</time>
      </trkpt>
      <trkpt lat="48.87945" lon="7.34959">
        <ele>244.085083</ele>
        <time>2010-08-28T09:21:58Z</time>
      </trkpt>
      <trkpt lat="48.8794" lon="7.34964">
        <ele>244.526489</ele>
        <time>2010-08-28T09:21:59Z</time>
      </trkpt>
      <trkpt lat="48.87935" lon="7.34967">
        <ele>245.061646</ele>
        <time>2010-08-28T09:22:00Z</time>
      </trkpt>
      <trkpt lat="48.8793" lon="7.34972">
        <ele>244.967896</ele>
        <time>2010-08-28T09:22:01Z</time>
      </trkpt>
      <trkpt lat="48.87926" lon="7.34976">
        <ele>245.221802</ele>
        <time>2010-08-28T09:22:02Z</time>
      </trkpt>
      <trkpt lat="48.87921" lon="7.3498">
        <ele>245.542114</ele>
        <time>2010-08-28T09:22:03Z</time>
      </trkpt>
      <trkpt lat="48.87916" lon="7.34982">
        <ele>245.667114</ele>
        <time>2010-08-28T09:22:04Z</time>
      </trkpt>
      <trkpt lat="48.87911" lon="7.34984">
        <ele>245.881958</ele>
        <time>2010-08-28T09:22:05Z</time>
      </trkpt>
      <trkpt lat="48.87907" lon="7.34985">
        <ele>246.178833</ele>
        <time>2010-08-28T09:22:06Z</time>
      </trkpt>
      <trkpt lat="48.87902" lon="7.34986">
        <ele>246.198364</ele>
        <time>2010-08-28T09:22:07Z</time>
      </trkpt>
      <trkpt lat="48.87893" lon="7.34982">
        <ele>246.362427</ele>
        <time>2010-08-28T09:22:09Z</time>
      </trkpt>
      <trkpt lat="48.87886" lon="7.34976">
        <ele>246.065552</ele>
        <time>2010-08-28T09:22:11Z</time>
      </trkpt>
      <trkpt lat="48.8788" lon="7.34971">
        <ele>245.186646</ele>
        <time>2010-08-28T09:22:13Z</time>
      </trkpt>
      <trkpt lat="48.87874" lon="7.34964">
        <ele>244.577271</ele>
        <time>2010-08-28T09:22:15Z</time>
      </trkpt>
      <trkpt lat="48.87868" lon="7.34959">
        <ele>243.671021</ele>
        <time>2010-08-28T09:22:17Z</time>
      </trkpt>
      <trkpt lat="48.87862" lon="7.34957">
        <ele>245.217896</ele>
        <time>2010-08-28T09:22:19Z</time>
      </trkpt>
      <trkpt lat="48.87857" lon="7.34956">
        <ele>245.260864</ele>
        <time>2010-08-28T09:22:21Z</time>
      </trkpt>
      <trkpt lat="48.87852" lon="7.34954">
        <ele>245.506958</ele>
        <time>2010-08-28T09:22:23Z</time>
      </trkpt>
      <trkpt lat="48.87845" lon="7.34956">
        <ele>248.838989</ele>
        <time>2010-08-28T09:22:25Z</time>
      </trkpt>
      <trkpt lat="48.87839" lon="7.34955">
        <ele>249.995239</ele>
        <time>2010-08-28T09:22:27Z</time>
      </trkpt>
      <trkpt lat="48.87832" lon="7.34956">
        <ele>252.022583</ele>
        <time>2010-08-28T09:22:29Z</time>
      </trkpt>
      <trkpt lat="48.87826" lon="7.34955">
        <ele>252.710083</ele>
        <time>2010-08-28T09:22:31Z</time>
      </trkpt>
      <trkpt lat="48.87819" lon="7.34952">
        <ele>252.526489</ele>
        <time>2010-08-28T09:22:33Z</time>
      </trkpt>
      <trkpt lat="48.87812" lon="7.3495">
        <ele>254.198364</ele>
        <time>2010-08-28T09:22:35Z</time>
      </trkpt>
      <trkpt lat="48.87808" lon="7.3495">
        <ele>253.553833</ele>
        <time>2010-08-28T09:22:39Z</time>
      </trkpt>
      <trkpt lat="48.87802" lon="7.34947">
        <ele>253.038208</ele>
        <time>2010-08-28T09:22:42Z</time>
      </trkpt>
      <trkpt lat="48.87798" lon="7.34946">
        <ele>253.159302</ele>
        <time>2010-08-28T09:22:44Z</time>
      </trkpt>
      <trkpt lat="48.87792" lon="7.34946">
        <ele>253.643677</ele>
        <time>2010-08-28T09:22:49Z</time>
      </trkpt>
      <trkpt lat="48.87786" lon="7.34947">
        <ele>253.928833</ele>
        <time>2010-08-28T09:22:52Z</time>
      </trkpt>
      <trkpt lat="48.87789" lon="7.34945">
        <ele>250.436646</ele>
        <time>2010-08-28T09:23:01Z</time>
      </trkpt>
      <trkpt lat="48.87794" lon="7.34945">
        <ele>249.815552</ele>
        <time>2010-08-28T09:23:04Z</time>
      </trkpt>
      <trkpt lat="48.87798" lon="7.34946">
        <ele>249.854614</ele>
        <time>2010-08-28T09:23:08Z</time>
      </trkpt>
      <trkpt lat="48.87803" lon="7.34947">
        <ele>246.557739</ele>
        <time>2010-08-28T09:24:39Z</time>
      </trkpt>
      <trkpt lat="48.87808" lon="7.34948">
        <ele>245.799927</ele>
        <time>2010-08-28T09:24:41Z</time>
      </trkpt>
      <trkpt lat="48.87814" lon="7.3495">
        <ele>244.803833</ele>
        <time>2010-08-28T09:24:43Z</time>
      </trkpt>
      <trkpt lat="48.87822" lon="7.34953">
        <ele>244.178833</ele>
        <time>2010-08-28T09:24:45Z</time>
      </trkpt>
      <trkpt lat="48.87828" lon="7.34955">
        <ele>243.085083</ele>
        <time>2010-08-28T09:24:47Z</time>
      </trkpt>
      <trkpt lat="48.87836" lon="7.34957">
        <ele>242.249146</ele>
        <time>2010-08-28T09:24:49Z</time>
      </trkpt>
      <trkpt lat="48.87843" lon="7.34959">
        <ele>242.038208</ele>
        <time>2010-08-28T09:24:51Z</time>
      </trkpt>
      <trkpt lat="48.8785" lon="7.34962">
        <ele>242.264771</ele>
        <time>2010-08-28T09:24:53Z</time>
      </trkpt>
      <trkpt lat="48.87854" lon="7.34965">
        <ele>242.206177</ele>
        <time>2010-08-28T09:24:55Z</time>
      </trkpt>
      <trkpt lat="48.8786" lon="7.34964">
        <ele>241.588989</ele>
        <time>2010-08-28T09:24:57Z</time>
      </trkpt>
      <trkpt lat="48.87864" lon="7.34961">
        <ele>242.299927</ele>
        <time>2010-08-28T09:25:01Z</time>
      </trkpt>
      <trkpt lat="48.87859" lon="7.3496">
        <ele>244.706177</ele>
        <time>2010-08-28T09:26:10Z</time>
      </trkpt>
      <trkpt lat="48.87853" lon="7.34958">
        <ele>244.815552</ele>
        <time>2010-08-28T09:26:13Z</time>
      </trkpt>
      <trkpt lat="48.87847" lon="7.34956">
        <ele>245.026489</ele>
        <time>2010-08-28T09:26:15Z</time>
      </trkpt>
      <trkpt lat="48.8784" lon="7.34955">
        <ele>245.905396</ele>
        <time>2010-08-28T09:26:17Z</time>
      </trkpt>
      <trkpt lat="48.87834" lon="7.34955">
        <ele>246.624146</ele>
        <time>2010-08-28T09:26:19Z</time>
      </trkpt>
      <trkpt lat="48.87828" lon="7.34953">
        <ele>247.081177</ele>
        <time>2010-08-28T09:26:21Z</time>
      </trkpt>
      <trkpt lat="48.87822" lon="7.34951">
        <ele>247.303833</ele>
        <time>2010-08-28T09:26:23Z</time>
      </trkpt>
      <trkpt lat="48.87815" lon="7.34948">
        <ele>248.327271</ele>
        <time>2010-08-28T09:26:25Z</time>
      </trkpt>
      <trkpt lat="48.87812" lon="7.34953">
        <ele>247.710083</ele>
        <time>2010-08-28T09:33:02Z</time>
      </trkpt>
      <trkpt lat="48.87817" lon="7.34955">
        <ele>248.307739</ele>
        <time>2010-08-28T09:34:07Z</time>
      </trkpt>
      <trkpt lat="48.87822" lon="7.34957">
        <ele>248.362427</ele>
        <time>2010-08-28T09:34:20Z</time>
      </trkpt>
      <trkpt lat="48.87828" lon="7.34959">
        <ele>247.561646</ele>
        <time>2010-08-28T09:34:22Z</time>
      </trkpt>
      <trkpt lat="48.87835" lon="7.34961">
        <ele>247.178833</ele>
        <time>2010-08-28T09:34:24Z</time>
      </trkpt>
      <trkpt lat="48.87842" lon="7.34962">
        <ele>246.905396</ele>
        <time>2010-08-28T09:34:26Z</time>
      </trkpt>
      <trkpt lat="48.8785" lon="7.34965">
        <ele>246.710083</ele>
        <time>2010-08-28T09:34:28Z</time>
      </trkpt>
      <trkpt lat="48.87857" lon="7.34969">
        <ele>246.182739</ele>
        <time>2010-08-28T09:34:30Z</time>
      </trkpt>
      <trkpt lat="48.87864" lon="7.34973">
        <ele>245.538208</ele>
        <time>2010-08-28T09:34:32Z</time>
      </trkpt>
      <trkpt lat="48.87871" lon="7.34979">
        <ele>244.296021</ele>
        <time>2010-08-28T09:34:34Z</time>
      </trkpt>
      <trkpt lat="48.87878" lon="7.34986">
        <ele>243.338989</ele>
        <time>2010-08-28T09:34:36Z</time>
      </trkpt>
      <trkpt lat="48.87882" lon="7.34989">
        <ele>242.565552</ele>
        <time>2010-08-28T09:34:37Z</time>
      </trkpt>
      <trkpt lat="48.87891" lon="7.34992">
        <ele>241.194458</ele>
        <time>2010-08-28T09:34:39Z</time>
      </trkpt>
      <trkpt lat="48.87896" lon="7.34993">
        <ele>241.530396</ele>
        <time>2010-08-28T09:34:40Z</time>
      </trkpt>
      <trkpt lat="48.87902" lon="7.34993">
        <ele>241.538208</ele>
        <time>2010-08-28T09:34:41Z</time>
      </trkpt>
      <trkpt lat="48.87907" lon="7.34992">
        <ele>241.092896</ele>
        <time>2010-08-28T09:34:42Z</time>
      </trkpt>
      <trkpt lat="48.87912" lon="7.34988">
        <ele>240.112427</ele>
        <time>2010-08-28T09:34:43Z</time>
      </trkpt>
      <trkpt lat="48.8792" lon="7.34986">
        <ele>241.710083</ele>
        <time>2010-08-28T09:34:44Z</time>
      </trkpt>
      <trkpt lat="48.87927" lon="7.34982">
        <ele>242.585083</ele>
        <time>2010-08-28T09:34:45Z</time>
      </trkpt>
      <trkpt lat="48.87932" lon="7.34978">
        <ele>242.682739</ele>
        <time>2010-08-28T09:34:46Z</time>
      </trkpt>
      <trkpt lat="48.87938" lon="7.34974">
        <ele>243.221802</ele>
        <time>2010-08-28T09:34:47Z</time>
      </trkpt>
      <trkpt lat="48.87943" lon="7.34969">
        <ele>242.893677</ele>
        <time>2010-08-28T09:34:48Z</time>
      </trkpt>
      <trkpt lat="48.87947" lon="7.34965">
        <ele>242.952271</ele>
        <time>2010-08-28T09:34:49Z</time>
      </trkpt>
      <trkpt lat="48.87951" lon="7.3496">
        <ele>242.663208</ele>
        <time>2010-08-28T09:34:50Z</time>
      </trkpt>
      <trkpt lat="48.87956" lon="7.34955">
        <ele>242.463989</ele>
        <time>2010-08-28T09:34:51Z</time>
      </trkpt>
      <trkpt lat="48.8796" lon="7.3495">
        <ele>242.510864</ele>
        <time>2010-08-28T09:34:52Z</time>
      </trkpt>
      <trkpt lat="48.87964" lon="7.34944">
        <ele>242.421021</ele>
        <time>2010-08-28T09:34:53Z</time>
      </trkpt>
      <trkpt lat="48.87967" lon="7.34938">
        <ele>242.010864</ele>
        <time>2010-08-28T09:34:54Z</time>
      </trkpt>
      <trkpt lat="48.8797" lon="7.34932">
        <ele>241.928833</ele>
        <time>2010-08-28T09:34:55Z</time>
      </trkpt>
      <trkpt lat="48.87975" lon="7.34927">
        <ele>241.561646</ele>
        <time>2010-08-28T09:34:56Z</time>
      </trkpt>
      <trkpt lat="48.87981" lon="7.34918">
        <ele>240.385864</ele>
        <time>2010-08-28T09:34:58Z</time>
      </trkpt>
      <trkpt lat="48.87986" lon="7.34913">
        <ele>240.100708</ele>
        <time>2010-08-28T09:34:59Z</time>
      </trkpt>
      <trkpt lat="48.87991" lon="7.34909">
        <ele>239.815552</ele>
        <time>2010-08-28T09:35:00Z</time>
      </trkpt>
      <trkpt lat="48.87997" lon="7.34902">
        <ele>237.983521</ele>
        <time>2010-08-28T09:35:01Z</time>
      </trkpt>
      <trkpt lat="48.88001" lon="7.34895">
        <ele>237.549927</ele>
        <time>2010-08-28T09:35:02Z</time>
      </trkpt>
      <trkpt lat="48.88005" lon="7.34891">
        <ele>237.733521</ele>
        <time>2010-08-28T09:35:03Z</time>
      </trkpt>
      <trkpt lat="48.88009" lon="7.34885">
        <ele>237.842896</ele>
        <time>2010-08-28T09:35:04Z</time>
      </trkpt>
      <trkpt lat="48.88012" lon="7.3488">
        <ele>237.780396</ele>
        <time>2010-08-28T09:35:05Z</time>
      </trkpt>
      <trkpt lat="48.88015" lon="7.34875">
        <ele>237.479614</ele>
        <time>2010-08-28T09:35:06Z</time>
      </trkpt>
      <trkpt lat="48.88022" lon="7.34867">
        <ele>237.315552</ele>
        <time>2010-08-28T09:35:08Z</time>
      </trkpt>
      <trkpt lat="48.88026" lon="7.3486">
        <ele>237.413208</ele>
        <time>2010-08-28T09:35:10Z</time>
      </trkpt>
      <trkpt lat="48.88035" lon="7.34851">
        <ele>237.163208</ele>
        <time>2010-08-28T09:35:12Z</time>
      </trkpt>
      <trkpt lat="48.8804" lon="7.34846">
        <ele>237.159302</ele>
        <time>2010-08-28T09:35:13Z</time>
      </trkpt>
      <trkpt lat="48.88045" lon="7.34841">
        <ele>237.022583</ele>
        <time>2010-08-28T09:35:14Z</time>
      </trkpt>
      <trkpt lat="48.8805" lon="7.34836">
        <ele>236.944458</ele>
        <time>2010-08-28T09:35:15Z</time>
      </trkpt>
      <trkpt lat="48.88054" lon="7.3483">
        <ele>236.717896</ele>
        <time>2010-08-28T09:35:16Z</time>
      </trkpt>
      <trkpt lat="48.88058" lon="7.34827">
        <ele>236.495239</ele>
        <time>2010-08-28T09:35:17Z</time>
      </trkpt>
      <trkpt lat="48.88062" lon="7.34824">
        <ele>236.487427</ele>
        <time>2010-08-28T09:35:18Z</time>
      </trkpt>
      <trkpt lat="48.88066" lon="7.34821">
        <ele>236.342896</ele>
        <time>2010-08-28T09:35:19Z</time>
      </trkpt>
      <trkpt lat="48.88071" lon="7.34818">
        <ele>236.241333</ele>
        <time>2010-08-28T09:35:20Z</time>
      </trkpt>
      <trkpt lat="48.88079" lon="7.34813">
        <ele>236.100708</ele>
        <time>2010-08-28T09:35:22Z</time>
      </trkpt>
      <trkpt lat="48.88086" lon="7.34809">
        <ele>235.932739</ele>
        <time>2010-08-28T09:35:24Z</time>
      </trkpt>
      <trkpt lat="48.88092" lon="7.34805">
        <ele>235.538208</ele>
        <time>2010-08-28T09:35:26Z</time>
      </trkpt>
      <trkpt lat="48.88098" lon="7.34802">
        <ele>235.456177</ele>
        <time>2010-08-28T09:35:28Z</time>
      </trkpt>
      <trkpt lat="48.88103" lon="7.34799">
        <ele>235.327271</ele>
        <time>2010-08-28T09:35:30Z</time>
      </trkpt>
      <trkpt lat="48.88107" lon="7.34795">
        <ele>236.178833</ele>
        <time>2010-08-28T09:35:34Z</time>
      </trkpt>
      <trkpt lat="48.88102" lon="7.34797">
        <ele>235.444458</ele>
        <time>2010-08-28T09:35:41Z</time>
      </trkpt>
      <trkpt lat="48.88097" lon="7.34801">
        <ele>235.303833</ele>
        <time>2010-08-28T09:35:45Z</time>
      </trkpt>
      <trkpt lat="48.881" lon="7.34807">
        <ele>236.186646</ele>
        <time>2010-08-28T09:35:53Z</time>
      </trkpt>
      <trkpt lat="48.88103" lon="7.34811">
        <ele>238.417114</ele>
        <time>2010-08-28T09:36:20Z</time>
      </trkpt>
      <trkpt lat="48.88107" lon="7.34817">
        <ele>238.006958</ele>
        <time>2010-08-28T09:36:24Z</time>
      </trkpt>
      <trkpt lat="48.88112" lon="7.34821">
        <ele>238.659302</ele>
        <time>2010-08-28T09:36:28Z</time>
      </trkpt>
      <trkpt lat="48.88113" lon="7.34828">
        <ele>237.620239</ele>
        <time>2010-08-28T09:36:33Z</time>
      </trkpt>
      <trkpt lat="48.88116" lon="7.34832">
        <ele>240.077271</ele>
        <time>2010-08-28T09:36:40Z</time>
      </trkpt>
      <trkpt lat="48.88123" lon="7.34832">
        <ele>239.100708</ele>
        <time>2010-08-28T09:36:51Z</time>
      </trkpt>
      <trkpt lat="48.88131" lon="7.34831">
        <ele>239.768677</ele>
        <time>2010-08-28T09:36:53Z</time>
      </trkpt>
      <trkpt lat="48.88136" lon="7.34833">
        <ele>241.143677</ele>
        <time>2010-08-28T09:36:55Z</time>
      </trkpt>
      <trkpt lat="48.88141" lon="7.34835">
        <ele>241.995239</ele>
        <time>2010-08-28T09:36:58Z</time>
      </trkpt>
      <trkpt lat="48.88146" lon="7.34839">
        <ele>242.850708</ele>
        <time>2010-08-28T09:37:03Z</time>
      </trkpt>
      <trkpt lat="48.8815" lon="7.34842">
        <ele>243.499146</ele>
        <time>2010-08-28T09:37:05Z</time>
      </trkpt>
      <trkpt lat="48.88155" lon="7.34846">
        <ele>244.276489</ele>
        <time>2010-08-28T09:37:07Z</time>
      </trkpt>
      <trkpt lat="48.88155" lon="7.34839">
        <ele>246.588989</ele>
        <time>2010-08-28T09:38:14Z</time>
      </trkpt>
      <trkpt lat="48.88159" lon="7.34836">
        <ele>246.237427</ele>
        <time>2010-08-28T09:38:18Z</time>
      </trkpt>
      <trkpt lat="48.88163" lon="7.34833">
        <ele>246.069458</ele>
        <time>2010-08-28T09:38:21Z</time>
      </trkpt>
      <trkpt lat="48.8817" lon="7.34832">
        <ele>245.346802</ele>
        <time>2010-08-28T09:38:25Z</time>
      </trkpt>
      <trkpt lat="48.88174" lon="7.34833">
        <ele>245.186646</ele>
        <time>2010-08-28T09:38:28Z</time>
      </trkpt>
      <trkpt lat="48.88178" lon="7.34828">
        <ele>245.799927</ele>
        <time>2010-08-28T09:38:32Z</time>
      </trkpt>
      <trkpt lat="48.88183" lon="7.34828">
        <ele>246.682739</ele>
        <time>2010-08-28T09:38:36Z</time>
      </trkpt>
      <trkpt lat="48.88188" lon="7.34825">
        <ele>247.182739</ele>
        <time>2010-08-28T09:38:40Z</time>
      </trkpt>
      <trkpt lat="48.88193" lon="7.34826">
        <ele>248.381958</ele>
        <time>2010-08-28T09:38:44Z</time>
      </trkpt>
      <trkpt lat="48.88199" lon="7.34826">
        <ele>248.495239</ele>
        <time>2010-08-28T09:38:48Z</time>
      </trkpt>
      <trkpt lat="48.88204" lon="7.34827">
        <ele>249.428833</ele>
        <time>2010-08-28T09:38:51Z</time>
      </trkpt>
      <trkpt lat="48.88209" lon="7.34824">
        <ele>250.116333</ele>
        <time>2010-08-28T09:38:54Z</time>
      </trkpt>
      <trkpt lat="48.88214" lon="7.34826">
        <ele>249.842896</ele>
        <time>2010-08-28T09:38:57Z</time>
      </trkpt>
      <trkpt lat="48.88219" lon="7.34827">
        <ele>251.401489</ele>
        <time>2010-08-28T09:39:01Z</time>
      </trkpt>
      <trkpt lat="48.88224" lon="7.34829">
        <ele>251.108521</ele>
        <time>2010-08-28T09:39:05Z</time>
      </trkpt>
      <trkpt lat="48.88228" lon="7.34829">
        <ele>250.940552</ele>
        <time>2010-08-28T09:39:08Z</time>
      </trkpt>
      <trkpt lat="48.88234" lon="7.3483">
        <ele>251.792114</ele>
        <time>2010-08-28T09:39:11Z</time>
      </trkpt>
      <trkpt lat="48.88229" lon="7.3483">
        <ele>252.842896</ele>
        <time>2010-08-28T09:39:31Z</time>
      </trkpt>
      <trkpt lat="48.88222" lon="7.34828">
        <ele>253.374146</ele>
        <time>2010-08-28T09:39:34Z</time>
      </trkpt>
      <trkpt lat="48.88217" lon="7.34831">
        <ele>254.202271</ele>
        <time>2010-08-28T09:39:36Z</time>
      </trkpt>
      <trkpt lat="48.8821" lon="7.34827">
        <ele>254.897583</ele>
        <time>2010-08-28T09:39:38Z</time>
      </trkpt>
      <trkpt lat="48.88204" lon="7.34826">
        <ele>255.690552</ele>
        <time>2010-08-28T09:39:40Z</time>
      </trkpt>
      <trkpt lat="48.88197" lon="7.34823">
        <ele>255.600708</ele>
        <time>2010-08-28T09:39:42Z</time>
      </trkpt>
      <trkpt lat="48.8819" lon="7.34822">
        <ele>255.049927</ele>
        <time>2010-08-28T09:39:44Z</time>
      </trkpt>
      <trkpt lat="48.88185" lon="7.34822">
        <ele>254.850708</ele>
        <time>2010-08-28T09:39:46Z</time>
      </trkpt>
      <trkpt lat="48.88182" lon="7.34827">
        <ele>254.909302</ele>
        <time>2010-08-28T09:40:00Z</time>
      </trkpt>
      <trkpt lat="48.88186" lon="7.34826">
        <ele>256.490479</ele>
        <time>2010-08-28T09:40:43Z</time>
      </trkpt>
      <trkpt lat="48.88191" lon="7.34827">
        <ele>257.396729</ele>
        <time>2010-08-28T09:40:46Z</time>
      </trkpt>
      <trkpt lat="48.88196" lon="7.34827">
        <ele>258.873291</ele>
        <time>2010-08-28T09:40:49Z</time>
      </trkpt>
      <trkpt lat="48.882" lon="7.34827">
        <ele>259.326416</ele>
        <time>2010-08-28T09:40:52Z</time>
      </trkpt>
      <trkpt lat="48.88205" lon="7.34833">
        <ele>259.474854</ele>
        <time>2010-08-28T09:40:55Z</time>
      </trkpt>
      <trkpt lat="48.8821" lon="7.34834">
        <ele>260.427979</ele>
        <time>2010-08-28T09:40:58Z</time>
      </trkpt>
      <trkpt lat="48.88215" lon="7.34833">
        <ele>260.474854</ele>
        <time>2010-08-28T09:41:01Z</time>
      </trkpt>
      <trkpt lat="48.88219" lon="7.34834">
        <ele>261.357666</ele>
        <time>2010-08-28T09:41:05Z</time>
      </trkpt>
      <trkpt lat="48.88224" lon="7.34837">
        <ele>260.138916</ele>
        <time>2010-08-28T09:41:07Z</time>
      </trkpt>
      <trkpt lat="48.8823" lon="7.34837">
        <ele>262.209229</ele>
        <time>2010-08-28T09:41:19Z</time>
      </trkpt>
      <trkpt lat="48.88238" lon="7.34838">
        <ele>265.240479</ele>
        <time>2010-08-28T09:41:22Z</time>
      </trkpt>
      <trkpt lat="48.88244" lon="7.34836">
        <ele>266.435791</ele>
        <time>2010-08-28T09:41:26Z</time>
      </trkpt>
      <trkpt lat="48.88248" lon="7.34834">
        <ele>267.326416</ele>
        <time>2010-08-28T09:41:30Z</time>
      </trkpt>
      <trkpt lat="48.88251" lon="7.34836">
        <ele>271.529541</ele>
        <time>2010-08-28T09:42:20Z</time>
      </trkpt>
      <trkpt lat="48.88256" lon="7.34837">
        <ele>272.865479</ele>
        <time>2010-08-28T09:42:24Z</time>
      </trkpt>
      <trkpt lat="48.88253" lon="7.34843">
        <ele>275.771729</ele>
        <time>2010-08-28T09:43:58Z</time>
      </trkpt>
      <trkpt lat="48.88248" lon="7.34846">
        <ele>275.545166</ele>
        <time>2010-08-28T09:44:08Z</time>
      </trkpt>
      <trkpt lat="48.88253" lon="7.34844">
        <ele>275.256104</ele>
        <time>2010-08-28T09:45:13Z</time>
      </trkpt>
      <trkpt lat="48.88257" lon="7.34849">
        <ele>276.435791</ele>
        <time>2010-08-28T09:45:30Z</time>
      </trkpt>
      <trkpt lat="48.8826" lon="7.34855">
        <ele>277.185791</ele>
        <time>2010-08-28T09:45:37Z</time>
      </trkpt>
      <trkpt lat="48.88267" lon="7.34862">
        <ele>275.810791</ele>
        <time>2010-08-28T09:45:39Z</time>
      </trkpt>
      <trkpt lat="48.88271" lon="7.34867">
        <ele>275.974854</ele>
        <time>2010-08-28T09:45:42Z</time>
      </trkpt>
      <trkpt lat="48.88274" lon="7.34872">
        <ele>276.271729</ele>
        <time>2010-08-28T09:45:45Z</time>
      </trkpt>
      <trkpt lat="48.88278" lon="7.34877">
        <ele>276.404541</ele>
        <time>2010-08-28T09:45:49Z</time>
      </trkpt>
      <trkpt lat="48.88282" lon="7.34881">
        <ele>276.701416</ele>
        <time>2010-08-28T09:45:52Z</time>
      </trkpt>
      <trkpt lat="48.88285" lon="7.34887">
        <ele>277.193604</ele>
        <time>2010-08-28T09:45:57Z</time>
      </trkpt>
      <trkpt lat="48.8829" lon="7.34892">
        <ele>275.990479</ele>
        <time>2010-08-28T09:45:58Z</time>
      </trkpt>
      <trkpt lat="48.88294" lon="7.34896">
        <ele>275.404541</ele>
        <time>2010-08-28T09:46:00Z</time>
      </trkpt>
      <trkpt lat="48.88299" lon="7.349">
        <ele>274.646729</ele>
        <time>2010-08-28T09:46:05Z</time>
      </trkpt>
      <trkpt lat="48.88303" lon="7.34904">
        <ele>275.279541</ele>
        <time>2010-08-28T09:46:10Z</time>
      </trkpt>
      <trkpt lat="48.88308" lon="7.34903">
        <ele>275.912354</ele>
        <time>2010-08-28T09:46:13Z</time>
      </trkpt>
      <trkpt lat="48.88314" lon="7.34902">
        <ele>275.334229</ele>
        <time>2010-08-28T09:46:17Z</time>
      </trkpt>
      <trkpt lat="48.88318" lon="7.34904">
        <ele>275.006104</ele>
        <time>2010-08-28T09:46:20Z</time>
      </trkpt>
      <trkpt lat="48.88323" lon="7.34909">
        <ele>274.209229</ele>
        <time>2010-08-28T09:46:22Z</time>
      </trkpt>
      <trkpt lat="48.88328" lon="7.34914">
        <ele>273.342041</ele>
        <time>2010-08-28T09:46:25Z</time>
      </trkpt>
      <trkpt lat="48.88332" lon="7.34919">
        <ele>272.904541</ele>
        <time>2010-08-28T09:46:28Z</time>
      </trkpt>
      <trkpt lat="48.88335" lon="7.34925">
        <ele>272.248291</ele>
        <time>2010-08-28T09:46:31Z</time>
      </trkpt>
      <trkpt lat="48.8834" lon="7.34926">
        <ele>272.068604</ele>
        <time>2010-08-28T09:46:34Z</time>
      </trkpt>
      <trkpt lat="48.88345" lon="7.34931">
        <ele>272.185791</ele>
        <time>2010-08-28T09:46:38Z</time>
      </trkpt>
      <trkpt lat="48.88348" lon="7.34934">
        <ele>269.420166</ele>
        <time>2010-08-28T09:46:57Z</time>
      </trkpt>
      <trkpt lat="48.88352" lon="7.34938">
        <ele>270.021729</ele>
        <time>2010-08-28T09:47:01Z</time>
      </trkpt>
      <trkpt lat="48.88356" lon="7.34944">
        <ele>269.357666</ele>
        <time>2010-08-28T09:47:05Z</time>
      </trkpt>
      <trkpt lat="48.8836" lon="7.34949">
        <ele>267.982666</ele>
        <time>2010-08-28T09:47:09Z</time>
      </trkpt>
      <trkpt lat="48.88364" lon="7.34953">
        <ele>267.662354</ele>
        <time>2010-08-28T09:47:12Z</time>
      </trkpt>
      <trkpt lat="48.88368" lon="7.34957">
        <ele>268.443604</ele>
        <time>2010-08-28T09:47:15Z</time>
      </trkpt>
      <trkpt lat="48.88373" lon="7.34961">
        <ele>267.935791</ele>
        <time>2010-08-28T09:48:05Z</time>
      </trkpt>
      <trkpt lat="48.88377" lon="7.34966">
        <ele>267.052979</ele>
        <time>2010-08-28T09:48:09Z</time>
      </trkpt>
      <trkpt lat="48.8838" lon="7.34971">
        <ele>266.584229</ele>
        <time>2010-08-28T09:48:13Z</time>
      </trkpt>
      <trkpt lat="48.88386" lon="7.34975">
        <ele>267.060791</ele>
        <time>2010-08-28T09:48:17Z</time>
      </trkpt>
      <trkpt lat="48.88383" lon="7.34967">
        <ele>267.349854</ele>
        <time>2010-08-28T09:48:28Z</time>
      </trkpt>
      <trkpt lat="48.8838" lon="7.34959">
        <ele>266.990479</ele>
        <time>2010-08-28T09:48:31Z</time>
      </trkpt>
      <trkpt lat="48.88376" lon="7.34956">
        <ele>266.076416</ele>
        <time>2010-08-28T09:48:35Z</time>
      </trkpt>
      <trkpt lat="48.88372" lon="7.3495">
        <ele>266.607666</ele>
        <time>2010-08-28T09:48:39Z</time>
      </trkpt>
      <trkpt lat="48.88368" lon="7.34945">
        <ele>266.396729</ele>
        <time>2010-08-28T09:48:46Z</time>
      </trkpt>
      <trkpt lat="48.88364" lon="7.3494">
        <ele>266.092041</ele>
        <time>2010-08-28T09:48:50Z</time>
      </trkpt>
      <trkpt lat="48.88359" lon="7.34936">
        <ele>265.842041</ele>
        <time>2010-08-28T09:48:54Z</time>
      </trkpt>
      <trkpt lat="48.88355" lon="7.34931">
        <ele>265.232666</ele>
        <time>2010-08-28T09:48:57Z</time>
      </trkpt>
      <trkpt lat="48.8835" lon="7.34923">
        <ele>265.068604</ele>
        <time>2010-08-28T09:49:00Z</time>
      </trkpt>
      <trkpt lat="48.88347" lon="7.34918">
        <ele>264.287354</ele>
        <time>2010-08-28T09:49:02Z</time>
      </trkpt>
      <trkpt lat="48.88342" lon="7.34914">
        <ele>262.912354</ele>
        <time>2010-08-28T09:49:09Z</time>
      </trkpt>
      <trkpt lat="48.88337" lon="7.34909">
        <ele>262.131104</ele>
        <time>2010-08-28T09:49:13Z</time>
      </trkpt>
      <trkpt lat="48.88333" lon="7.34901">
        <ele>262.357666</ele>
        <time>2010-08-28T09:49:16Z</time>
      </trkpt>
      <trkpt lat="48.88329" lon="7.34896">
        <ele>262.084229</ele>
        <time>2010-08-28T09:49:18Z</time>
      </trkpt>
      <trkpt lat="48.88325" lon="7.34891">
        <ele>261.677979</ele>
        <time>2010-08-28T09:49:20Z</time>
      </trkpt>
      <trkpt lat="48.88315" lon="7.3489">
        <ele>260.795166</ele>
        <time>2010-08-28T09:49:22Z</time>
      </trkpt>
      <trkpt lat="48.88306" lon="7.34885">
        <ele>260.209229</ele>
        <time>2010-08-28T09:49:24Z</time>
      </trkpt>
      <trkpt lat="48.883" lon="7.34883">
        <ele>259.685791</ele>
        <time>2010-08-28T09:49:25Z</time>
      </trkpt>
      <trkpt lat="48.88295" lon="7.3488">
        <ele>259.334229</ele>
        <time>2010-08-28T09:49:26Z</time>
      </trkpt>
      <trkpt lat="48.88289" lon="7.34875">
        <ele>259.318604</ele>
        <time>2010-08-28T09:49:27Z</time>
      </trkpt>
      <trkpt lat="48.88284" lon="7.34872">
        <ele>259.193604</ele>
        <time>2010-08-28T09:49:28Z</time>
      </trkpt>
      <trkpt lat="48.88279" lon="7.34869">
        <ele>258.888916</ele>
        <time>2010-08-28T09:49:29Z</time>
      </trkpt>
      <trkpt lat="48.88271" lon="7.34861">
        <ele>258.420166</ele>
        <time>2010-08-28T09:49:31Z</time>
      </trkpt>
      <trkpt lat="48.88264" lon="7.34859">
        <ele>257.482666</ele>
        <time>2010-08-28T09:49:32Z</time>
      </trkpt>
      <trkpt lat="48.88258" lon="7.34858">
        <ele>256.951416</ele>
        <time>2010-08-28T09:49:33Z</time>
      </trkpt>
      <trkpt lat="48.88251" lon="7.34856">
        <ele>256.638916</ele>
        <time>2010-08-28T09:49:34Z</time>
      </trkpt>
      <trkpt lat="48.88245" lon="7.34854">
        <ele>255.745239</ele>
        <time>2010-08-28T09:49:35Z</time>
      </trkpt>
      <trkpt lat="48.8824" lon="7.34853">
        <ele>255.694458</ele>
        <time>2010-08-28T09:49:36Z</time>
      </trkpt>
      <trkpt lat="48.88235" lon="7.34851">
        <ele>254.721802</ele>
        <time>2010-08-28T09:49:37Z</time>
      </trkpt>
      <trkpt lat="48.88229" lon="7.34849">
        <ele>254.319458</ele>
        <time>2010-08-28T09:49:38Z</time>
      </trkpt>
      <trkpt lat="48.88223" lon="7.34845">
        <ele>253.788208</ele>
        <time>2010-08-28T09:49:39Z</time>
      </trkpt>
      <trkpt lat="48.88218" lon="7.34842">
        <ele>253.198364</ele>
        <time>2010-08-28T09:49:40Z</time>
      </trkpt>
      <trkpt lat="48.88212" lon="7.34839">
        <ele>252.202271</ele>
        <time>2010-08-28T09:49:41Z</time>
      </trkpt>
      <trkpt lat="48.88206" lon="7.34835">
        <ele>251.444458</ele>
        <time>2010-08-28T09:49:42Z</time>
      </trkpt>
      <trkpt lat="48.88201" lon="7.34832">
        <ele>250.671021</ele>
        <time>2010-08-28T09:49:43Z</time>
      </trkpt>
      <trkpt lat="48.88195" lon="7.34831">
        <ele>249.792114</ele>
        <time>2010-08-28T09:49:44Z</time>
      </trkpt>
      <trkpt lat="48.88191" lon="7.34832">
        <ele>249.042114</ele>
        <time>2010-08-28T09:49:45Z</time>
      </trkpt>
      <trkpt lat="48.88183" lon="7.34835">
        <ele>248.085083</ele>
        <time>2010-08-28T09:49:47Z</time>
      </trkpt>
      <trkpt lat="48.88179" lon="7.34835">
        <ele>247.960083</ele>
        <time>2010-08-28T09:49:49Z</time>
      </trkpt>
      <trkpt lat="48.88171" lon="7.34835">
        <ele>249.682739</ele>
        <time>2010-08-28T09:49:51Z</time>
      </trkpt>
      <trkpt lat="48.88166" lon="7.34835">
        <ele>250.729614</ele>
        <time>2010-08-28T09:49:52Z</time>
      </trkpt>
      <trkpt lat="48.88159" lon="7.34836">
        <ele>251.678833</ele>
        <time>2010-08-28T09:49:54Z</time>
      </trkpt>
      <trkpt lat="48.88151" lon="7.34837">
        <ele>252.944458</ele>
        <time>2010-08-28T09:49:56Z</time>
      </trkpt>
      <trkpt lat="48.88142" lon="7.34839">
        <ele>252.952271</ele>
        <time>2010-08-28T09:49:58Z</time>
      </trkpt>
      <trkpt lat="48.88133" lon="7.3484">
        <ele>251.378052</ele>
        <time>2010-08-28T09:50:00Z</time>
      </trkpt>
      <trkpt lat="48.88126" lon="7.3484">
        <ele>251.936646</ele>
        <time>2010-08-28T09:50:02Z</time>
      </trkpt>
      <trkpt lat="48.88121" lon="7.34837">
        <ele>253.530396</ele>
        <time>2010-08-28T09:50:04Z</time>
      </trkpt>
      <trkpt lat="48.88118" lon="7.34827">
        <ele>257.763916</ele>
        <time>2010-08-28T09:50:05Z</time>
      </trkpt>
      <trkpt lat="48.88114" lon="7.34818">
        <ele>259.513916</ele>
        <time>2010-08-28T09:50:07Z</time>
      </trkpt>
      <trkpt lat="48.8811" lon="7.34813">
        <ele>260.521729</ele>
        <time>2010-08-28T09:50:09Z</time>
      </trkpt>
      <trkpt lat="48.88104" lon="7.34808">
        <ele>261.670166</ele>
        <time>2010-08-28T09:50:11Z</time>
      </trkpt>
      <trkpt lat="48.88098" lon="7.34805">
        <ele>263.068604</ele>
        <time>2010-08-28T09:50:13Z</time>
      </trkpt>
      <trkpt lat="48.88093" lon="7.34806">
        <ele>264.029541</ele>
        <time>2010-08-28T09:50:14Z</time>
      </trkpt>
      <trkpt lat="48.88088" lon="7.34805">
        <ele>265.381104</ele>
        <time>2010-08-28T09:50:16Z</time>
      </trkpt>
      <trkpt lat="48.88083" lon="7.34805">
        <ele>267.974854</ele>
        <time>2010-08-28T09:50:18Z</time>
      </trkpt>
      <trkpt lat="48.88077" lon="7.34806">
        <ele>268.451416</ele>
        <time>2010-08-28T09:50:20Z</time>
      </trkpt>
      <trkpt lat="48.88071" lon="7.3481">
        <ele>270.013916</ele>
        <time>2010-08-28T09:50:22Z</time>
      </trkpt>
      <trkpt lat="48.88065" lon="7.34814">
        <ele>269.287354</ele>
        <time>2010-08-28T09:50:24Z</time>
      </trkpt>
      <trkpt lat="48.88061" lon="7.3482">
        <ele>268.865479</ele>
        <time>2010-08-28T09:50:26Z</time>
      </trkpt>
      <trkpt lat="48.88055" lon="7.34825">
        <ele>267.693604</ele>
        <time>2010-08-28T09:50:28Z</time>
      </trkpt>
      <trkpt lat="48.88048" lon="7.34832">
        <ele>264.935791</ele>
        <time>2010-08-28T09:50:30Z</time>
      </trkpt>
      <trkpt lat="48.88043" lon="7.34841">
        <ele>263.756104</ele>
        <time>2010-08-28T09:50:32Z</time>
      </trkpt>
      <trkpt lat="48.88036" lon="7.34848">
        <ele>261.537354</ele>
        <time>2010-08-28T09:50:34Z</time>
      </trkpt>
      <trkpt lat="48.88033" lon="7.34854">
        <ele>257.779541</ele>
        <time>2010-08-28T09:50:35Z</time>
      </trkpt>
      <trkpt lat="48.8803" lon="7.34858">
        <ele>255.710083</ele>
        <time>2010-08-28T09:50:36Z</time>
      </trkpt>
      <trkpt lat="48.88025" lon="7.34866">
        <ele>253.835083</ele>
        <time>2010-08-28T09:50:38Z</time>
      </trkpt>
      <trkpt lat="48.88022" lon="7.3487">
        <ele>252.010864</ele>
        <time>2010-08-28T09:50:39Z</time>
      </trkpt>
      <trkpt lat="48.88019" lon="7.34875">
        <ele>252.909302</ele>
        <time>2010-08-28T09:50:40Z</time>
      </trkpt>
      <trkpt lat="48.88014" lon="7.34884">
        <ele>252.131958</ele>
        <time>2010-08-28T09:50:42Z</time>
      </trkpt>
      <trkpt lat="48.88009" lon="7.34892">
        <ele>249.338989</ele>
        <time>2010-08-28T09:50:44Z</time>
      </trkpt>
      <trkpt lat="48.88005" lon="7.34895">
        <ele>249.995239</ele>
        <time>2010-08-28T09:50:45Z</time>
      </trkpt>
      <trkpt lat="48.88001" lon="7.34898">
        <ele>249.874146</ele>
        <time>2010-08-28T09:50:46Z</time>
      </trkpt>
      <trkpt lat="48.87997" lon="7.34903">
        <ele>249.940552</ele>
        <time>2010-08-28T09:50:47Z</time>
      </trkpt>
      <trkpt lat="48.87993" lon="7.34907">
        <ele>248.768677</ele>
        <time>2010-08-28T09:50:48Z</time>
      </trkpt>
      <trkpt lat="48.87987" lon="7.34916">
        <ele>246.944458</ele>
        <time>2010-08-28T09:50:50Z</time>
      </trkpt>
      <trkpt lat="48.87981" lon="7.34925">
        <ele>245.249146</ele>
        <time>2010-08-28T09:50:52Z</time>
      </trkpt>
      <trkpt lat="48.87973" lon="7.34933">
        <ele>244.753052</ele>
        <time>2010-08-28T09:50:54Z</time>
      </trkpt>
      <trkpt lat="48.87968" lon="7.34938">
        <ele>245.174927</ele>
        <time>2010-08-28T09:50:55Z</time>
      </trkpt>
      <trkpt lat="48.87965" lon="7.34942">
        <ele>245.522583</ele>
        <time>2010-08-28T09:50:56Z</time>
      </trkpt>
      <trkpt lat="48.87962" lon="7.34953">
        <ele>245.256958</ele>
        <time>2010-08-28T09:50:58Z</time>
      </trkpt>
      <trkpt lat="48.87957" lon="7.34957">
        <ele>244.753052</ele>
        <time>2010-08-28T09:50:59Z</time>
      </trkpt>
      <trkpt lat="48.87953" lon="7.34961">
        <ele>245.338989</ele>
        <time>2010-08-28T09:51:00Z</time>
      </trkpt>
      <trkpt lat="48.87949" lon="7.34964">
        <ele>245.049927</ele>
        <time>2010-08-28T09:51:01Z</time>
      </trkpt>
      <trkpt lat="48.87945" lon="7.34968">
        <ele>244.936646</ele>
        <time>2010-08-28T09:51:02Z</time>
      </trkpt>
      <trkpt lat="48.87941" lon="7.34972">
        <ele>245.690552</ele>
        <time>2010-08-28T09:51:03Z</time>
      </trkpt>
      <trkpt lat="48.87937" lon="7.34976">
        <ele>247.327271</ele>
        <time>2010-08-28T09:51:04Z</time>
      </trkpt>
      <trkpt lat="48.87933" lon="7.34979">
        <ele>248.077271</ele>
        <time>2010-08-28T09:51:05Z</time>
      </trkpt>
      <trkpt lat="48.87928" lon="7.34983">
        <ele>248.249146</ele>
        <time>2010-08-28T09:51:06Z</time>
      </trkpt>
      <trkpt lat="48.87924" lon="7.34986">
        <ele>248.338989</ele>
        <time>2010-08-28T09:51:07Z</time>
      </trkpt>
      <trkpt lat="48.87919" lon="7.34988">
        <ele>248.100708</ele>
        <time>2010-08-28T09:51:08Z</time>
      </trkpt>
      <trkpt lat="48.87915" lon="7.3499">
        <ele>248.561646</ele>
        <time>2010-08-28T09:51:09Z</time>
      </trkpt>
      <trkpt lat="48.8791" lon="7.34992">
        <ele>249.741333</ele>
        <time>2010-08-28T09:51:10Z</time>
      </trkpt>
      <trkpt lat="48.87902" lon="7.34994">
        <ele>250.003052</ele>
        <time>2010-08-28T09:51:12Z</time>
      </trkpt>
      <trkpt lat="48.87894" lon="7.34994">
        <ele>249.374146</ele>
        <time>2010-08-28T09:51:14Z</time>
      </trkpt>
      <trkpt lat="48.87887" lon="7.34989">
        <ele>248.674927</ele>
        <time>2010-08-28T09:51:16Z</time>
      </trkpt>
      <trkpt lat="48.87879" lon="7.34982">
        <ele>248.561646</ele>
        <time>2010-08-28T09:51:18Z</time>
      </trkpt>
      <trkpt lat="48.87875" lon="7.34979">
        <ele>248.854614</ele>
        <time>2010-08-28T09:51:19Z</time>
      </trkpt>
      <trkpt lat="48.87871" lon="7.34975">
        <ele>248.452271</ele>
        <time>2010-08-28T09:51:20Z</time>
      </trkpt>
      <trkpt lat="48.87867" lon="7.34971">
        <ele>247.948364</ele>
        <time>2010-08-28T09:51:21Z</time>
      </trkpt>
      <trkpt lat="48.87862" lon="7.34968">
        <ele>248.077271</ele>
        <time>2010-08-28T09:51:22Z</time>
      </trkpt>
      <trkpt lat="48.87857" lon="7.34966">
        <ele>248.100708</ele>
        <time>2010-08-28T09:51:23Z</time>
      </trkpt>
      <trkpt lat="48.87849" lon="7.34965">
        <ele>247.139771</ele>
        <time>2010-08-28T09:51:25Z</time>
      </trkpt>
      <trkpt lat="48.87843" lon="7.34964">
        <ele>247.284302</ele>
        <time>2010-08-28T09:51:26Z</time>
      </trkpt>
      <trkpt lat="48.87838" lon="7.34962">
        <ele>247.897583</ele>
        <time>2010-08-28T09:51:27Z</time>
      </trkpt>
      <trkpt lat="48.87833" lon="7.34961">
        <ele>247.788208</ele>
        <time>2010-08-28T09:51:28Z</time>
      </trkpt>
      <trkpt lat="48.87828" lon="7.3496">
        <ele>248.788208</ele>
        <time>2010-08-28T09:51:29Z</time>
      </trkpt>
      <trkpt lat="48.87822" lon="7.34958">
        <ele>248.854614</ele>
        <time>2010-08-28T09:51:30Z</time>
      </trkpt>
      <trkpt lat="48.87818" lon="7.34954">
        <ele>247.428833</ele>
        <time>2010-08-28T09:51:31Z</time>
      </trkpt>
      <trkpt lat="48.87813" lon="7.34952">
        <ele>247.010864</ele>
        <time>2010-08-28T09:51:32Z</time>
      </trkpt>
      <trkpt lat="48.87808" lon="7.3495">
        <ele>246.842896</ele>
        <time>2010-08-28T09:51:33Z</time>
      </trkpt>
      <trkpt lat="48.87802" lon="7.34948">
        <ele>246.604614</ele>
        <time>2010-08-28T09:51:34Z</time>
      </trkpt>
      <trkpt lat="48.87797" lon="7.34947">
        <ele>246.991333</ele>
        <time>2010-08-28T09:51:35Z</time>
      </trkpt>
      <trkpt lat="48.87791" lon="7.34946">
        <ele>246.831177</ele>
        <time>2010-08-28T09:51:36Z</time>
      </trkpt>
      <trkpt lat="48.87786" lon="7.34946">
        <ele>246.741333</ele>
        <time>2010-08-28T09:51:37Z</time>
      </trkpt>
      <trkpt lat="48.87781" lon="7.34946">
        <ele>247.014771</ele>
        <time>2010-08-28T09:51:38Z</time>
      </trkpt>
      <trkpt lat="48.87775" lon="7.34946">
        <ele>247.272583</ele>
        <time>2010-08-28T09:51:39Z</time>
      </trkpt>
      <trkpt lat="48.87771" lon="7.34946">
        <ele>247.249146</ele>
        <time>2010-08-28T09:51:40Z</time>
      </trkpt>
      <trkpt lat="48.87766" lon="7.34946">
        <ele>247.323364</ele>
        <time>2010-08-28T09:51:41Z</time>
      </trkpt>
      <trkpt lat="48.87761" lon="7.34947">
        <ele>247.323364</ele>
        <time>2010-08-28T09:51:42Z</time>
      </trkpt>
      <trkpt lat="48.87757" lon="7.34948">
        <ele>247.085083</ele>
        <time>2010-08-28T09:51:43Z</time>
      </trkpt>
      <trkpt lat="48.87749" lon="7.34949">
        <ele>246.897583</ele>
        <time>2010-08-28T09:51:45Z</time>
      </trkpt>
      <trkpt lat="48.87741" lon="7.34949">
        <ele>247.116333</ele>
        <time>2010-08-28T09:51:47Z</time>
      </trkpt>
      <trkpt lat="48.87735" lon="7.34951">
        <ele>247.288208</ele>
        <time>2010-08-28T09:51:49Z</time>
      </trkpt>
      <trkpt lat="48.87731" lon="7.34953">
        <ele>246.686646</ele>
        <time>2010-08-28T09:51:52Z</time>
      </trkpt>
      <trkpt lat="48.87729" lon="7.3496">
        <ele>246.331177</ele>
        <time>2010-08-28T09:51:54Z</time>
      </trkpt>
      <trkpt lat="48.87727" lon="7.34968">
        <ele>245.819458</ele>
        <time>2010-08-28T09:52:04Z</time>
      </trkpt>
      <trkpt lat="48.87725" lon="7.34977">
        <ele>244.565552</ele>
        <time>2010-08-28T09:52:06Z</time>
      </trkpt>
      <trkpt lat="48.87724" lon="7.3499">
        <ele>243.651489</ele>
        <time>2010-08-28T09:52:08Z</time>
      </trkpt>
      <trkpt lat="48.87723" lon="7.34997">
        <ele>243.631958</ele>
        <time>2010-08-28T09:52:09Z</time>
      </trkpt>
      <trkpt lat="48.87722" lon="7.35005">
        <ele>243.526489</ele>
        <time>2010-08-28T09:52:10Z</time>
      </trkpt>
      <trkpt lat="48.87722" lon="7.35013">
        <ele>242.960083</ele>
        <time>2010-08-28T09:52:11Z</time>
      </trkpt>
      <trkpt lat="48.87721" lon="7.35021">
        <ele>242.534302</ele>
        <time>2010-08-28T09:52:12Z</time>
      </trkpt>
      <trkpt lat="48.8772" lon="7.35029">
        <ele>241.792114</ele>
        <time>2010-08-28T09:52:13Z</time>
      </trkpt>
      <trkpt lat="48.87719" lon="7.35038">
        <ele>241.760864</ele>
        <time>2010-08-28T09:52:14Z</time>
      </trkpt>
      <trkpt lat="48.87718" lon="7.35046">
        <ele>241.721802</ele>
        <time>2010-08-28T09:52:15Z</time>
      </trkpt>
      <trkpt lat="48.87717" lon="7.35054">
        <ele>241.647583</ele>
        <time>2010-08-28T09:52:16Z</time>
      </trkpt>
      <trkpt lat="48.87716" lon="7.35062">
        <ele>241.143677</ele>
        <time>2010-08-28T09:52:17Z</time>
      </trkpt>
      <trkpt lat="48.87714" lon="7.35071">
        <ele>240.612427</ele>
        <time>2010-08-28T09:52:18Z</time>
      </trkpt>
      <trkpt lat="48.87712" lon="7.35079">
        <ele>240.635864</ele>
        <time>2010-08-28T09:52:19Z</time>
      </trkpt>
      <trkpt lat="48.8771" lon="7.35087">
        <ele>240.792114</ele>
        <time>2010-08-28T09:52:20Z</time>
      </trkpt>
      <trkpt lat="48.87708" lon="7.35096">
        <ele>240.542114</ele>
        <time>2010-08-28T09:52:21Z</time>
      </trkpt>
      <trkpt lat="48.87707" lon="7.35104">
        <ele>240.428833</ele>
        <time>2010-08-28T09:52:22Z</time>
      </trkpt>
      <trkpt lat="48.87705" lon="7.35112">
        <ele>240.409302</ele>
        <time>2010-08-28T09:52:23Z</time>
      </trkpt>
      <trkpt lat="48.87703" lon="7.3512">
        <ele>240.272583</ele>
        <time>2010-08-28T09:52:24Z</time>
      </trkpt>
      <trkpt lat="48.87701" lon="7.35128">
        <ele>240.491333</ele>
        <time>2010-08-28T09:52:25Z</time>
      </trkpt>
      <trkpt lat="48.877" lon="7.35136">
        <ele>240.506958</ele>
        <time>2010-08-28T09:52:26Z</time>
      </trkpt>
      <trkpt lat="48.87698" lon="7.35144">
        <ele>240.338989</ele>
        <time>2010-08-28T09:52:27Z</time>
      </trkpt>
      <trkpt lat="48.87696" lon="7.35152">
        <ele>240.229614</ele>
        <time>2010-08-28T09:52:28Z</time>
      </trkpt>
      <trkpt lat="48.87694" lon="7.35159">
        <ele>239.901489</ele>
        <time>2010-08-28T09:52:29Z</time>
      </trkpt>
      <trkpt lat="48.87693" lon="7.35167">
        <ele>240.131958</ele>
        <time>2010-08-28T09:52:30Z</time>
      </trkpt>
      <trkpt lat="48.87692" lon="7.35174">
        <ele>240.221802</ele>
        <time>2010-08-28T09:52:31Z</time>
      </trkpt>
      <trkpt lat="48.8769" lon="7.35181">
        <ele>239.924927</ele>
        <time>2010-08-28T09:52:32Z</time>
      </trkpt>
      <trkpt lat="48.87688" lon="7.35188">
        <ele>239.706177</ele>
        <time>2010-08-28T09:52:33Z</time>
      </trkpt>
      <trkpt lat="48.87687" lon="7.35195">
        <ele>239.299927</ele>
        <time>2010-08-28T09:52:34Z</time>
      </trkpt>
      <trkpt lat="48.87685" lon="7.35203">
        <ele>239.405396</ele>
        <time>2010-08-28T09:52:35Z</time>
      </trkpt>
      <trkpt lat="48.87684" lon="7.3521">
        <ele>239.256958</ele>
        <time>2010-08-28T09:52:36Z</time>
      </trkpt>
      <trkpt lat="48.87682" lon="7.35218">
        <ele>239.022583</ele>
        <time>2010-08-28T09:52:37Z</time>
      </trkpt>
      <trkpt lat="48.8768" lon="7.35225">
        <ele>238.878052</ele>
        <time>2010-08-28T09:52:38Z</time>
      </trkpt>
      <trkpt lat="48.87679" lon="7.35232">
        <ele>238.745239</ele>
        <time>2010-08-28T09:52:39Z</time>
      </trkpt>
      <trkpt lat="48.87677" lon="7.35239">
        <ele>238.948364</ele>
        <time>2010-08-28T09:52:40Z</time>
      </trkpt>
      <trkpt lat="48.87674" lon="7.35252">
        <ele>238.838989</ele>
        <time>2010-08-28T09:52:42Z</time>
      </trkpt>
      <trkpt lat="48.87672" lon="7.35259">
        <ele>238.753052</ele>
        <time>2010-08-28T09:52:43Z</time>
      </trkpt>
      <trkpt lat="48.87671" lon="7.35266">
        <ele>238.854614</ele>
        <time>2010-08-28T09:52:44Z</time>
      </trkpt>
      <trkpt lat="48.87669" lon="7.35273">
        <ele>239.245239</ele>
        <time>2010-08-28T09:52:45Z</time>
      </trkpt>
      <trkpt lat="48.87667" lon="7.3528">
        <ele>239.397583</ele>
        <time>2010-08-28T09:52:46Z</time>
      </trkpt>
      <trkpt lat="48.87663" lon="7.35291">
        <ele>239.432739</ele>
        <time>2010-08-28T09:52:48Z</time>
      </trkpt>
      <trkpt lat="48.87661" lon="7.35297">
        <ele>239.928833</ele>
        <time>2010-08-28T09:52:49Z</time>
      </trkpt>
      <trkpt lat="48.87656" lon="7.35309">
        <ele>239.956177</ele>
        <time>2010-08-28T09:52:51Z</time>
      </trkpt>
      <trkpt lat="48.87652" lon="7.3532">
        <ele>240.088989</ele>
        <time>2010-08-28T09:52:53Z</time>
      </trkpt>
      <trkpt lat="48.87647" lon="7.35331">
        <ele>240.319458</ele>
        <time>2010-08-28T09:52:55Z</time>
      </trkpt>
      <trkpt lat="48.87642" lon="7.3534">
        <ele>240.120239</ele>
        <time>2010-08-28T09:52:57Z</time>
      </trkpt>
      <trkpt lat="48.87636" lon="7.35349">
        <ele>240.542114</ele>
        <time>2010-08-28T09:52:59Z</time>
      </trkpt>
      <trkpt lat="48.87631" lon="7.35359">
        <ele>240.534302</ele>
        <time>2010-08-28T09:53:01Z</time>
      </trkpt>
      <trkpt lat="48.87625" lon="7.3537">
        <ele>240.518677</ele>
        <time>2010-08-28T09:53:03Z</time>
      </trkpt>
      <trkpt lat="48.87622" lon="7.35375">
        <ele>240.303833</ele>
        <time>2010-08-28T09:53:04Z</time>
      </trkpt>
      <trkpt lat="48.87619" lon="7.35381">
        <ele>239.952271</ele>
        <time>2010-08-28T09:53:05Z</time>
      </trkpt>
      <trkpt lat="48.87616" lon="7.35387">
        <ele>239.893677</ele>
        <time>2010-08-28T09:53:06Z</time>
      </trkpt>
      <trkpt lat="48.87614" lon="7.35393">
        <ele>239.893677</ele>
        <time>2010-08-28T09:53:07Z</time>
      </trkpt>
      <trkpt lat="48.87611" lon="7.354">
        <ele>239.600708</ele>
        <time>2010-08-28T09:53:08Z</time>
      </trkpt>
      <trkpt lat="48.87608" lon="7.35406">
        <ele>239.436646</ele>
        <time>2010-08-28T09:53:09Z</time>
      </trkpt>
      <trkpt lat="48.87606" lon="7.35412">
        <ele>239.409302</ele>
        <time>2010-08-28T09:53:10Z</time>
      </trkpt>
      <trkpt lat="48.87603" lon="7.35419">
        <ele>239.362427</ele>
        <time>2010-08-28T09:53:11Z</time>
      </trkpt>
      <trkpt lat="48.87601" lon="7.35426">
        <ele>239.042114</ele>
        <time>2010-08-28T09:53:12Z</time>
      </trkpt>
      <trkpt lat="48.87599" lon="7.35433">
        <ele>238.975708</ele>
        <time>2010-08-28T09:53:13Z</time>
      </trkpt>
      <trkpt lat="48.87597" lon="7.3544">
        <ele>238.897583</ele>
        <time>2010-08-28T09:53:14Z</time>
      </trkpt>
      <trkpt lat="48.87595" lon="7.35447">
        <ele>238.889771</ele>
        <time>2010-08-28T09:53:15Z</time>
      </trkpt>
      <trkpt lat="48.87594" lon="7.35454">
        <ele>238.628052</ele>
        <time>2010-08-28T09:53:16Z</time>
      </trkpt>
      <trkpt lat="48.87592" lon="7.35462">
        <ele>238.186646</ele>
        <time>2010-08-28T09:53:17Z</time>
      </trkpt>
      <trkpt lat="48.8759" lon="7.35469">
        <ele>237.827271</ele>
        <time>2010-08-28T09:53:18Z</time>
      </trkpt>
      <trkpt lat="48.87589" lon="7.35476">
        <ele>237.788208</ele>
        <time>2010-08-28T09:53:19Z</time>
      </trkpt>
      <trkpt lat="48.87588" lon="7.35483">
        <ele>237.573364</ele>
        <time>2010-08-28T09:53:20Z</time>
      </trkpt>
      <trkpt lat="48.87586" lon="7.3549">
        <ele>237.342896</ele>
        <time>2010-08-28T09:53:21Z</time>
      </trkpt>
      <trkpt lat="48.87584" lon="7.35496">
        <ele>237.221802</ele>
        <time>2010-08-28T09:53:22Z</time>
      </trkpt>
      <trkpt lat="48.87583" lon="7.35504">
        <ele>237.131958</ele>
        <time>2010-08-28T09:53:23Z</time>
      </trkpt>
      <trkpt lat="48.87581" lon="7.35511">
        <ele>237.049927</ele>
        <time>2010-08-28T09:53:24Z</time>
      </trkpt>
      <trkpt lat="48.8758" lon="7.35519">
        <ele>236.835083</ele>
        <time>2010-08-28T09:53:25Z</time>
      </trkpt>
      <trkpt lat="48.87578" lon="7.35526">
        <ele>236.588989</ele>
        <time>2010-08-28T09:53:26Z</time>
      </trkpt>
      <trkpt lat="48.87576" lon="7.35533">
        <ele>236.260864</ele>
        <time>2010-08-28T09:53:27Z</time>
      </trkpt>
      <trkpt lat="48.87575" lon="7.3554">
        <ele>236.038208</ele>
        <time>2010-08-28T09:53:28Z</time>
      </trkpt>
      <trkpt lat="48.87573" lon="7.35548">
        <ele>235.823364</ele>
        <time>2010-08-28T09:53:29Z</time>
      </trkpt>
      <trkpt lat="48.87571" lon="7.35556">
        <ele>235.846802</ele>
        <time>2010-08-28T09:53:30Z</time>
      </trkpt>
      <trkpt lat="48.8757" lon="7.35564">
        <ele>235.776489</ele>
        <time>2010-08-28T09:53:31Z</time>
      </trkpt>
      <trkpt lat="48.87569" lon="7.35573">
        <ele>235.827271</ele>
        <time>2010-08-28T09:53:32Z</time>
      </trkpt>
      <trkpt lat="48.87568" lon="7.35581">
        <ele>235.354614</ele>
        <time>2010-08-28T09:53:33Z</time>
      </trkpt>
      <trkpt lat="48.87567" lon="7.3559">
        <ele>235.319458</ele>
        <time>2010-08-28T09:53:34Z</time>
      </trkpt>
      <trkpt lat="48.87566" lon="7.35599">
        <ele>235.374146</ele>
        <time>2010-08-28T09:53:35Z</time>
      </trkpt>
      <trkpt lat="48.87566" lon="7.35608">
        <ele>235.436646</ele>
        <time>2010-08-28T09:53:36Z</time>
      </trkpt>
      <trkpt lat="48.87566" lon="7.35617">
        <ele>235.366333</ele>
        <time>2010-08-28T09:53:37Z</time>
      </trkpt>
      <trkpt lat="48.87566" lon="7.35626">
        <ele>235.788208</ele>
        <time>2010-08-28T09:53:38Z</time>
      </trkpt>
      <trkpt lat="48.87567" lon="7.35635">
        <ele>235.409302</ele>
        <time>2010-08-28T09:53:39Z</time>
      </trkpt>
      <trkpt lat="48.87567" lon="7.35643">
        <ele>235.003052</ele>
        <time>2010-08-28T09:53:40Z</time>
      </trkpt>
      <trkpt lat="48.87567" lon="7.35653">
        <ele>234.557739</ele>
        <time>2010-08-28T09:53:41Z</time>
      </trkpt>
      <trkpt lat="48.87567" lon="7.35662">
        <ele>234.245239</ele>
        <time>2010-08-28T09:53:42Z</time>
      </trkpt>
      <trkpt lat="48.87568" lon="7.35672">
        <ele>233.682739</ele>
        <time>2010-08-28T09:53:43Z</time>
      </trkpt>
      <trkpt lat="48.87568" lon="7.35683">
        <ele>233.120239</ele>
        <time>2010-08-28T09:53:44Z</time>
      </trkpt>
      <trkpt lat="48.87568" lon="7.35693">
        <ele>232.815552</ele>
        <time>2010-08-28T09:53:45Z</time>
      </trkpt>
      <trkpt lat="48.87568" lon="7.35704">
        <ele>232.378052</ele>
        <time>2010-08-28T09:53:46Z</time>
      </trkpt>
      <trkpt lat="48.87568" lon="7.35716">
        <ele>231.780396</ele>
        <time>2010-08-28T09:53:47Z</time>
      </trkpt>
      <trkpt lat="48.87568" lon="7.35728">
        <ele>230.495239</ele>
        <time>2010-08-28T09:53:48Z</time>
      </trkpt>
      <trkpt lat="48.87568" lon="7.35741">
        <ele>230.233521</ele>
        <time>2010-08-28T09:53:49Z</time>
      </trkpt>
      <trkpt lat="48.87567" lon="7.35754">
        <ele>229.206177</ele>
        <time>2010-08-28T09:53:50Z</time>
      </trkpt>
      <trkpt lat="48.87565" lon="7.35766">
        <ele>228.276489</ele>
        <time>2010-08-28T09:53:51Z</time>
      </trkpt>
      <trkpt lat="48.87563" lon="7.35778">
        <ele>227.503052</ele>
        <time>2010-08-28T09:53:52Z</time>
      </trkpt>
      <trkpt lat="48.8756" lon="7.3579">
        <ele>226.815552</ele>
        <time>2010-08-28T09:53:53Z</time>
      </trkpt>
      <trkpt lat="48.87555" lon="7.35801">
        <ele>225.651489</ele>
        <time>2010-08-28T09:53:54Z</time>
      </trkpt>
      <trkpt lat="48.87553" lon="7.35812">
        <ele>224.952271</ele>
        <time>2010-08-28T09:53:55Z</time>
      </trkpt>
      <trkpt lat="48.87551" lon="7.35823">
        <ele>223.921021</ele>
        <time>2010-08-28T09:53:56Z</time>
      </trkpt>
      <trkpt lat="48.8755" lon="7.35836">
        <ele>223.561646</ele>
        <time>2010-08-28T09:53:57Z</time>
      </trkpt>
      <trkpt lat="48.8755" lon="7.35848">
        <ele>223.198364</ele>
        <time>2010-08-28T09:53:58Z</time>
      </trkpt>
      <trkpt lat="48.87551" lon="7.35861">
        <ele>222.624146</ele>
        <time>2010-08-28T09:53:59Z</time>
      </trkpt>
      <trkpt lat="48.87552" lon="7.35873">
        <ele>222.463989</ele>
        <time>2010-08-28T09:54:00Z</time>
      </trkpt>
      <trkpt lat="48.87553" lon="7.35886">
        <ele>222.174927</ele>
        <time>2010-08-28T09:54:01Z</time>
      </trkpt>
      <trkpt lat="48.87553" lon="7.35898">
        <ele>221.467896</ele>
        <time>2010-08-28T09:54:02Z</time>
      </trkpt>
      <trkpt lat="48.87554" lon="7.3591">
        <ele>220.979614</ele>
        <time>2010-08-28T09:54:03Z</time>
      </trkpt>
      <trkpt lat="48.87553" lon="7.35923">
        <ele>221.104614</ele>
        <time>2010-08-28T09:54:04Z</time>
      </trkpt>
      <trkpt lat="48.87552" lon="7.35933">
        <ele>220.764771</ele>
        <time>2010-08-28T09:54:05Z</time>
      </trkpt>
      <trkpt lat="48.87548" lon="7.35941">
        <ele>220.803833</ele>
        <time>2010-08-28T09:54:06Z</time>
      </trkpt>
      <trkpt lat="48.87544" lon="7.35948">
        <ele>221.463989</ele>
        <time>2010-08-28T09:54:07Z</time>
      </trkpt>
      <trkpt lat="48.87539" lon="7.35954">
        <ele>222.178833</ele>
        <time>2010-08-28T09:54:08Z</time>
      </trkpt>
      <trkpt lat="48.87534" lon="7.3596">
        <ele>222.436646</ele>
        <time>2010-08-28T09:54:09Z</time>
      </trkpt>
      <trkpt lat="48.87528" lon="7.35965">
        <ele>222.585083</ele>
        <time>2010-08-28T09:54:10Z</time>
      </trkpt>
      <trkpt lat="48.87523" lon="7.3597">
        <ele>222.151489</ele>
        <time>2010-08-28T09:54:11Z</time>
      </trkpt>
      <trkpt lat="48.87518" lon="7.35977">
        <ele>222.155396</ele>
        <time>2010-08-28T09:54:12Z</time>
      </trkpt>
      <trkpt lat="48.87512" lon="7.35984">
        <ele>222.553833</ele>
        <time>2010-08-28T09:54:13Z</time>
      </trkpt>
      <trkpt lat="48.87507" lon="7.3599">
        <ele>222.784302</ele>
        <time>2010-08-28T09:54:14Z</time>
      </trkpt>
      <trkpt lat="48.87501" lon="7.35997">
        <ele>223.346802</ele>
        <time>2010-08-28T09:54:15Z</time>
      </trkpt>
      <trkpt lat="48.87495" lon="7.36004">
        <ele>223.506958</ele>
        <time>2010-08-28T09:54:16Z</time>
      </trkpt>
      <trkpt lat="48.87489" lon="7.36011">
        <ele>224.534302</ele>
        <time>2010-08-28T09:54:17Z</time>
      </trkpt>
      <trkpt lat="48.87483" lon="7.36018">
        <ele>224.956177</ele>
        <time>2010-08-28T09:54:18Z</time>
      </trkpt>
      <trkpt lat="48.87478" lon="7.36023">
        <ele>225.147583</ele>
        <time>2010-08-28T09:54:19Z</time>
      </trkpt>
      <trkpt lat="48.87471" lon="7.36028">
        <ele>225.428833</ele>
        <time>2010-08-28T09:54:20Z</time>
      </trkpt>
      <trkpt lat="48.87465" lon="7.36033">
        <ele>225.952271</ele>
        <time>2010-08-28T09:54:21Z</time>
      </trkpt>
      <trkpt lat="48.8746" lon="7.36037">
        <ele>226.225708</ele>
        <time>2010-08-28T09:54:22Z</time>
      </trkpt>
      <trkpt lat="48.87454" lon="7.36041">
        <ele>226.503052</ele>
        <time>2010-08-28T09:54:23Z</time>
      </trkpt>
      <trkpt lat="48.87448" lon="7.36046">
        <ele>227.057739</ele>
        <time>2010-08-28T09:54:24Z</time>
      </trkpt>
      <trkpt lat="48.87442" lon="7.36049">
        <ele>227.358521</ele>
        <time>2010-08-28T09:54:25Z</time>
      </trkpt>
      <trkpt lat="48.87436" lon="7.36053">
        <ele>227.741333</ele>
        <time>2010-08-28T09:54:26Z</time>
      </trkpt>
      <trkpt lat="48.87431" lon="7.36058">
        <ele>228.409302</ele>
        <time>2010-08-28T09:54:27Z</time>
      </trkpt>
      <trkpt lat="48.87425" lon="7.36063">
        <ele>228.944458</ele>
        <time>2010-08-28T09:54:28Z</time>
      </trkpt>
      <trkpt lat="48.87421" lon="7.36068">
        <ele>229.358521</ele>
        <time>2010-08-28T09:54:29Z</time>
      </trkpt>
      <trkpt lat="48.87417" lon="7.36073">
        <ele>230.065552</ele>
        <time>2010-08-28T09:54:30Z</time>
      </trkpt>
      <trkpt lat="48.87413" lon="7.3608">
        <ele>230.401489</ele>
        <time>2010-08-28T09:54:31Z</time>
      </trkpt>
      <trkpt lat="48.87409" lon="7.36085">
        <ele>230.401489</ele>
        <time>2010-08-28T09:54:32Z</time>
      </trkpt>
      <trkpt lat="48.87405" lon="7.36091">
        <ele>230.522583</ele>
        <time>2010-08-28T09:54:33Z</time>
      </trkpt>
      <trkpt lat="48.87402" lon="7.36097">
        <ele>230.819458</ele>
        <time>2010-08-28T09:54:34Z</time>
      </trkpt>
      <trkpt lat="48.87398" lon="7.36102">
        <ele>231.077271</ele>
        <time>2010-08-28T09:54:35Z</time>
      </trkpt>
      <trkpt lat="48.87395" lon="7.36108">
        <ele>231.014771</ele>
        <time>2010-08-28T09:54:36Z</time>
      </trkpt>
      <trkpt lat="48.87392" lon="7.36113">
        <ele>231.424927</ele>
        <time>2010-08-28T09:54:37Z</time>
      </trkpt>
      <trkpt lat="48.87389" lon="7.36119">
        <ele>231.530396</ele>
        <time>2010-08-28T09:54:38Z</time>
      </trkpt>
      <trkpt lat="48.87386" lon="7.36124">
        <ele>231.409302</ele>
        <time>2010-08-28T09:54:39Z</time>
      </trkpt>
      <trkpt lat="48.87382" lon="7.3613">
        <ele>231.827271</ele>
        <time>2010-08-28T09:54:40Z</time>
      </trkpt>
      <trkpt lat="48.87379" lon="7.36135">
        <ele>231.733521</ele>
        <time>2010-08-28T09:54:41Z</time>
      </trkpt>
      <trkpt lat="48.87373" lon="7.36145">
        <ele>232.268677</ele>
        <time>2010-08-28T09:54:43Z</time>
      </trkpt>
      <trkpt lat="48.8737" lon="7.3615">
        <ele>232.311646</ele>
        <time>2010-08-28T09:54:44Z</time>
      </trkpt>
      <trkpt lat="48.87364" lon="7.3616">
        <ele>232.499146</ele>
        <time>2010-08-28T09:54:46Z</time>
      </trkpt>
      <trkpt lat="48.87359" lon="7.3617">
        <ele>232.428833</ele>
        <time>2010-08-28T09:54:48Z</time>
      </trkpt>
      <trkpt lat="48.87353" lon="7.3618">
        <ele>233.206177</ele>
        <time>2010-08-28T09:54:50Z</time>
      </trkpt>
      <trkpt lat="48.87348" lon="7.36189">
        <ele>233.389771</ele>
        <time>2010-08-28T09:54:52Z</time>
      </trkpt>
      <trkpt lat="48.87343" lon="7.362">
        <ele>234.065552</ele>
        <time>2010-08-28T09:54:54Z</time>
      </trkpt>
      <trkpt lat="48.87337" lon="7.36209">
        <ele>234.444458</ele>
        <time>2010-08-28T09:54:56Z</time>
      </trkpt>
      <trkpt lat="48.87332" lon="7.36219">
        <ele>234.811646</ele>
        <time>2010-08-28T09:54:58Z</time>
      </trkpt>
      <trkpt lat="48.87326" lon="7.3623">
        <ele>235.815552</ele>
        <time>2010-08-28T09:55:00Z</time>
      </trkpt>
      <trkpt lat="48.87321" lon="7.36239">
        <ele>236.198364</ele>
        <time>2010-08-28T09:55:02Z</time>
      </trkpt>
      <trkpt lat="48.87317" lon="7.3625">
        <ele>237.049927</ele>
        <time>2010-08-28T09:55:04Z</time>
      </trkpt>
      <trkpt lat="48.87313" lon="7.36257">
        <ele>237.526489</ele>
        <time>2010-08-28T09:55:06Z</time>
      </trkpt>
      <trkpt lat="48.87309" lon="7.36263">
        <ele>237.366333</ele>
        <time>2010-08-28T09:55:09Z</time>
      </trkpt>
      <trkpt lat="48.87307" lon="7.3627">
        <ele>237.444458</ele>
        <time>2010-08-28T09:55:13Z</time>
      </trkpt>
      <trkpt lat="48.87304" lon="7.36276">
        <ele>237.803833</ele>
        <time>2010-08-28T09:55:16Z</time>
      </trkpt>
      <trkpt lat="48.87301" lon="7.36281">
        <ele>237.280396</ele>
        <time>2010-08-28T09:55:18Z</time>
      </trkpt>
      <trkpt lat="48.87297" lon="7.36287">
        <ele>237.366333</ele>
        <time>2010-08-28T09:55:20Z</time>
      </trkpt>
      <trkpt lat="48.87294" lon="7.36294">
        <ele>237.116333</ele>
        <time>2010-08-28T09:55:22Z</time>
      </trkpt>
      <trkpt lat="48.8729" lon="7.363">
        <ele>236.463989</ele>
        <time>2010-08-28T09:55:24Z</time>
      </trkpt>
      <trkpt lat="48.87286" lon="7.36306">
        <ele>235.952271</ele>
        <time>2010-08-28T09:55:26Z</time>
      </trkpt>
      <trkpt lat="48.87282" lon="7.36312">
        <ele>235.088989</ele>
        <time>2010-08-28T09:55:28Z</time>
      </trkpt>
      <trkpt lat="48.87279" lon="7.36317">
        <ele>234.796021</ele>
        <time>2010-08-28T09:55:30Z</time>
      </trkpt>
      <trkpt lat="48.87275" lon="7.36322">
        <ele>234.338989</ele>
        <time>2010-08-28T09:55:32Z</time>
      </trkpt>
      <trkpt lat="48.87271" lon="7.36329">
        <ele>234.342896</ele>
        <time>2010-08-28T09:55:34Z</time>
      </trkpt>
      <trkpt lat="48.87266" lon="7.36337">
        <ele>234.135864</ele>
        <time>2010-08-28T09:55:36Z</time>
      </trkpt>
      <trkpt lat="48.8726" lon="7.36345">
        <ele>233.776489</ele>
        <time>2010-08-28T09:55:38Z</time>
      </trkpt>
      <trkpt lat="48.87255" lon="7.36354">
        <ele>233.760864</ele>
        <time>2010-08-28T09:55:40Z</time>
      </trkpt>
      <trkpt lat="48.8725" lon="7.36362">
        <ele>233.651489</ele>
        <time>2010-08-28T09:55:42Z</time>
      </trkpt>
      <trkpt lat="48.87246" lon="7.3637">
        <ele>233.569458</ele>
        <time>2010-08-28T09:55:44Z</time>
      </trkpt>
      <trkpt lat="48.87243" lon="7.36373">
        <ele>238.327271</ele>
        <time>2010-08-28T09:55:47Z</time>
      </trkpt>
      <trkpt lat="48.87238" lon="7.36369">
        <ele>237.905396</ele>
        <time>2010-08-28T09:55:49Z</time>
      </trkpt>
      <trkpt lat="48.87235" lon="7.36363">
        <ele>237.335083</ele>
        <time>2010-08-28T09:55:51Z</time>
      </trkpt>
      <trkpt lat="48.8723" lon="7.36359">
        <ele>237.585083</ele>
        <time>2010-08-28T09:55:55Z</time>
      </trkpt>
      <trkpt lat="48.87227" lon="7.36352">
        <ele>238.198364</ele>
        <time>2010-08-28T09:55:59Z</time>
      </trkpt>
      <trkpt lat="48.87228" lon="7.36345">
        <ele>237.635864</ele>
        <time>2010-08-28T09:57:20Z</time>
      </trkpt>
    </trkseg>
  </trk>
</gpx>